Darstellungsparameter: Aktuell verwendete Einstellungen:
Skalierung der Graphiken ... ?
xyx+y,   Skalierungsfaktor:      Skalierung: Modus: x, Faktor: 1
Darstellungszeitraum ... ?
Vom - - bis: - -   Zeitraum: 01.11.2020 - 14.11.2020
Min/Max/Avg-Anzeige ... ?
Zeige MMA aktuell
Zeige MMA Monat
Zeige MMA alles
Zeige --A aktuell
Zeige --A Monat
Zeige --A alles
Keine MMA-Anzeige
MMA:
Average (ber die Originaldaten)
MMA-Basis: 01.11.2020 - 14.11.2020
Quicknavigation für Darstellung... ?
Tage:      1T, 2T, 3T, 5T -1T -2T -3T -5T +1T +2T +3T +5T
Wochen: 1W, 2W, 3W -1W -2W -3W +1W +2W +3W
Monate: 1M, 3M, 6M -1M -3M -6M +1M +3M +6M
Jahre:    1J, 3J, 5J, 10J -1J -3J -5J -10J +1J +3J +5J +10J
Nutze für die Darstellung ... ?
Originaldaten oder Mittelwerte auf ...
Stundenbasis Tagesbasis Wochenbasis
Monatsbasis Jahresbasis      Datenbasis: Original-Daten
Darstellen als:
Statistik (Auto) Statistik J:M      Darstellung:
Zur Graphik,    zurück zur Übersicht aller Sensoren.
 
Tabellarische Datenbersicht: ?
 
Sensor: Nr:Datum:Temp:Abs-Feuchte:Windchill:Wind:
Aussen-T/F 1 01-11-2020 00:00:00 13.1 C 10.84 g/m*3 13.1 C 4.8 km/h
2 01-11-2020 00:05:00 13.1 C 10.84 g/m*3 13.1 C 1.6 km/h
3 01-11-2020 00:10:00 13.1 C 10.84 g/m*3 13.1 C 1.6 km/h
4 01-11-2020 00:15:00 13.1 C 10.84 g/m*3 13.1 C 1.6 km/h
5 01-11-2020 00:20:00 13.1 C 10.84 g/m*3 13.1 C 1.6 km/h
6 01-11-2020 00:25:00 13.1 C 10.84 g/m*3 13.1 C 3.2 km/h
7 01-11-2020 00:30:00 13.1 C 10.84 g/m*3 13.1 C 3.2 km/h
8 01-11-2020 00:35:00 13.1 C 10.84 g/m*3 13.1 C 3.2 km/h
9 01-11-2020 00:40:00 13.1 C 10.84 g/m*3 13.1 C 0 km/h
10 01-11-2020 00:45:00 13.1 C 10.84 g/m*3 13.1 C 1.6 km/h
11 01-11-2020 00:50:00 13.1 C 10.84 g/m*3 13.1 C 4.8 km/h
12 01-11-2020 00:55:00 13.1 C 10.84 g/m*3 13.1 C 0 km/h
13 01-11-2020 01:00:00 13.1 C 10.84 g/m*3 13.1 C 1.6 km/h
14 01-11-2020 01:05:00 13.1 C 10.84 g/m*3 13.1 C 0 km/h
15 01-11-2020 01:10:00 13.1 C 10.84 g/m*3 13.1 C 1.6 km/h
16 01-11-2020 01:15:00 13.1 C 10.84 g/m*3 13.1 C 0 km/h
17 01-11-2020 01:20:00 13.1 C 10.84 g/m*3 13.1 C 3.2 km/h
18 01-11-2020 01:25:00 13.1 C 10.84 g/m*3 13.1 C 0 km/h
19 01-11-2020 01:30:00 13.1 C 10.84 g/m*3 13.1 C 1.6 km/h
20 01-11-2020 01:35:00 13.1 C 10.95 g/m*3 13.1 C 1.6 km/h
21 01-11-2020 01:40:00 13.2 C 11.02 g/m*3 13.2 C 0 km/h
22 01-11-2020 01:45:00 13.2 C 11.02 g/m*3 13.2 C 0 km/h
23 01-11-2020 01:50:00 13.2 C 11.02 g/m*3 13.2 C 1.6 km/h
24 01-11-2020 01:55:00 13.2 C 11.02 g/m*3 13.2 C 0 km/h
25 01-11-2020 02:00:00 13.2 C 11.02 g/m*3 13.2 C 0 km/h
Sensor: Nr:Datum:Temp:Abs-Feuchte:Windchill:Wind:
Aussen-T/F 26 01-11-2020 02:05:00 13.2 C 11.02 g/m*3 13.2 C 3.2 km/h
27 01-11-2020 02:10:00 13.2 C 11.02 g/m*3 13.2 C 4.8 km/h
28 01-11-2020 02:15:00 13.2 C 11.02 g/m*3 13.2 C 4.8 km/h
29 01-11-2020 02:20:00 13.2 C 11.02 g/m*3 13.2 C 1.6 km/h
30 01-11-2020 02:25:00 13.2 C 11.02 g/m*3 13.2 C 0 km/h
31 01-11-2020 02:30:00 13.2 C 11.02 g/m*3 13.2 C 0 km/h
32 01-11-2020 02:35:00 13.2 C 11.02 g/m*3 13.2 C 0 km/h
33 01-11-2020 02:40:00 13.2 C 11.02 g/m*3 13.2 C 0 km/h
34 01-11-2020 02:45:00 13.1 C 10.95 g/m*3 13.1 C 0 km/h
35 01-11-2020 02:50:00 13.1 C 10.95 g/m*3 13.1 C 0 km/h
36 01-11-2020 02:55:00 13.1 C 10.95 g/m*3 13.1 C 0 km/h
37 01-11-2020 03:00:00 13.1 C 10.95 g/m*3 13.1 C 0 km/h
38 01-11-2020 03:05:00 13.1 C 10.95 g/m*3 13.1 C 0 km/h
39 01-11-2020 03:10:00 13.1 C 10.95 g/m*3 13.1 C 0 km/h
40 01-11-2020 03:15:00 13.1 C 10.95 g/m*3 13.1 C 0 km/h
41 01-11-2020 03:20:00 13.1 C 10.95 g/m*3 13.1 C 0 km/h
42 01-11-2020 03:25:00 13.1 C 10.95 g/m*3 13.1 C 0 km/h
43 01-11-2020 03:30:00 13.1 C 10.95 g/m*3 13.1 C 0 km/h
44 01-11-2020 03:35:00 13.1 C 10.95 g/m*3 13.1 C 0 km/h
45 01-11-2020 03:40:00 13.1 C 10.95 g/m*3 13.1 C 0 km/h
46 01-11-2020 03:45:00 13.1 C 10.95 g/m*3 13.1 C 0 km/h
47 01-11-2020 03:50:00 13.1 C 10.95 g/m*3 13.1 C 0 km/h
48 01-11-2020 03:55:00 13.1 C 10.95 g/m*3 13.1 C 0 km/h
49 01-11-2020 04:00:00 13.1 C 10.95 g/m*3 13.1 C 0 km/h
50 01-11-2020 04:05:00 13.1 C 10.95 g/m*3 13.1 C 0 km/h
Sensor: Nr:Datum:Temp:Abs-Feuchte:Windchill:Wind:
Aussen-T/F 51 01-11-2020 04:10:00 13 C 10.89 g/m*3 13 C 0 km/h
52 01-11-2020 04:15:00 13 C 10.89 g/m*3 13 C 0 km/h
53 01-11-2020 04:20:00 13.1 C 10.95 g/m*3 13.1 C 0 km/h
54 01-11-2020 04:25:00 13 C 10.89 g/m*3 13 C 0 km/h
55 01-11-2020 04:30:00 13 C 10.89 g/m*3 13 C 0 km/h
56 01-11-2020 04:35:00 13 C 10.89 g/m*3 13 C 0 km/h
57 01-11-2020 04:40:00 13 C 10.89 g/m*3 13 C 0 km/h
58 01-11-2020 04:45:00 13.1 C 10.95 g/m*3 13.1 C 0 km/h
59 01-11-2020 04:50:00 13.1 C 10.95 g/m*3 13.1 C 0 km/h
60 01-11-2020 04:55:00 13 C 10.89 g/m*3 13 C 0 km/h
61 01-11-2020 05:00:00 12.9 C 10.82 g/m*3 12.9 C 0 km/h
62 01-11-2020 05:05:00 12.9 C 10.82 g/m*3 12.9 C 0 km/h
63 01-11-2020 05:10:00 12.8 C 10.75 g/m*3 12.8 C 0 km/h
64 01-11-2020 05:15:00 12.8 C 10.75 g/m*3 12.8 C 0 km/h
65 01-11-2020 05:20:00 12.8 C 10.75 g/m*3 12.8 C 0 km/h
66 01-11-2020 05:25:00 12.8 C 10.75 g/m*3 12.8 C 0 km/h
67 01-11-2020 05:30:00 12.8 C 10.75 g/m*3 12.8 C 0 km/h
68 01-11-2020 05:35:00 12.8 C 10.75 g/m*3 12.8 C 0 km/h
69 01-11-2020 05:40:00 12.7 C 10.69 g/m*3 12.7 C 0 km/h
70 01-11-2020 05:45:00 12.7 C 10.69 g/m*3 12.7 C 0 km/h
71 01-11-2020 05:50:00 12.6 C 10.62 g/m*3 12.6 C 0 km/h
72 01-11-2020 05:55:00 12.6 C 10.62 g/m*3 12.6 C 0 km/h
73 01-11-2020 06:00:00 12.6 C 10.62 g/m*3 12.6 C 0 km/h
74 01-11-2020 06:05:00 12.6 C 10.62 g/m*3 12.6 C 0 km/h
75 01-11-2020 06:10:00 12.6 C 10.62 g/m*3 12.6 C 0 km/h
Sensor: Nr:Datum:Temp:Abs-Feuchte:Windchill:Wind:
Aussen-T/F 76 01-11-2020 06:15:00 12.6 C 10.62 g/m*3 12.6 C 0 km/h
77 01-11-2020 06:20:00 12.6 C 10.62 g/m*3 12.6 C 0 km/h
78 01-11-2020 06:25:00 12.5 C 10.55 g/m*3 12.5 C 0 km/h
79 01-11-2020 06:30:00 12.5 C 10.55 g/m*3 12.5 C 0 km/h
80 01-11-2020 06:35:00 12.5 C 10.66 g/m*3 12.5 C 0 km/h
81 01-11-2020 06:40:00 12.5 C 10.66 g/m*3 12.5 C 0 km/h
82 01-11-2020 06:45:00 12.4 C 10.6 g/m*3 12.4 C 0 km/h
83 01-11-2020 06:50:00 12.4 C 10.6 g/m*3 12.4 C 0 km/h
84 01-11-2020 06:55:00 12.4 C 10.6 g/m*3 12.4 C 0 km/h
85 01-11-2020 07:00:00 12.4 C 10.6 g/m*3 12.4 C 0 km/h
86 01-11-2020 07:05:00 12.4 C 10.6 g/m*3 12.4 C 0 km/h
87 01-11-2020 07:10:00 12.4 C 10.49 g/m*3 12.4 C 0 km/h
88 01-11-2020 07:15:00 12.4 C 10.6 g/m*3 12.4 C 0 km/h
89 01-11-2020 07:20:00 12.5 C 10.66 g/m*3 12.5 C 0 km/h
90 01-11-2020 07:25:00 12.5 C 10.66 g/m*3 12.5 C 0 km/h
91 01-11-2020 07:30:00 12.6 C 10.73 g/m*3 12.6 C 0 km/h
92 01-11-2020 07:35:00 12.6 C 10.73 g/m*3 12.6 C 0 km/h
93 01-11-2020 07:40:00 12.6 C 10.73 g/m*3 12.6 C 0 km/h
94 01-11-2020 07:45:00 12.7 C 10.8 g/m*3 12.7 C 0 km/h
95 01-11-2020 07:50:00 12.7 C 10.8 g/m*3 12.7 C 0 km/h
96 01-11-2020 07:55:00 12.8 C 10.87 g/m*3 12.8 C 0 km/h
97 01-11-2020 08:00:00 12.8 C 10.87 g/m*3 12.8 C 0 km/h
98 01-11-2020 08:05:00 12.8 C 10.87 g/m*3 12.8 C 0 km/h
99 01-11-2020 08:10:00 12.9 C 10.93 g/m*3 12.9 C 0 km/h
100 01-11-2020 08:15:00 12.9 C 10.93 g/m*3 12.9 C 0 km/h
Sensor: Nr:Datum:Temp:Abs-Feuchte:Windchill:Wind:
Aussen-T/F 101 01-11-2020 08:20:00 13 C 11 g/m*3 13 C 0 km/h
102 01-11-2020 08:25:00 13.1 C 11.07 g/m*3 13.1 C 0 km/h
103 01-11-2020 08:30:00 13.2 C 11.14 g/m*3 13.2 C 0 km/h
104 01-11-2020 08:35:00 13.2 C 11.14 g/m*3 13.2 C 0 km/h
105 01-11-2020 08:40:00 13.3 C 11.21 g/m*3 13.3 C 0 km/h
106 01-11-2020 08:45:00 13.3 C 11.21 g/m*3 13.3 C 0 km/h
107 01-11-2020 08:50:00 13.4 C 11.28 g/m*3 13.4 C 0 km/h
108 01-11-2020 08:55:00 13.4 C 11.28 g/m*3 13.4 C 0 km/h
109 01-11-2020 09:00:00 13.5 C 11.35 g/m*3 13.5 C 0 km/h
110 01-11-2020 09:05:00 13.6 C 11.42 g/m*3 13.6 C 0 km/h
111 01-11-2020 09:10:00 13.7 C 11.49 g/m*3 13.7 C 0 km/h
112 01-11-2020 09:15:00 13.7 C 11.49 g/m*3 13.7 C 0 km/h
113 01-11-2020 09:20:00 13.7 C 11.49 g/m*3 13.7 C 0 km/h
114 01-11-2020 09:25:00 13.8 C 11.56 g/m*3 13.8 C 0 km/h
115 01-11-2020 09:30:00 13.8 C 11.56 g/m*3 13.8 C 0 km/h
116 01-11-2020 09:35:00 13.8 C 11.56 g/m*3 13.8 C 6.4 km/h
117 01-11-2020 09:40:00 14 C 11.7 g/m*3 14 C 9.7 km/h
118 01-11-2020 09:45:00 14.2 C 11.84 g/m*3 14.2 C 3.2 km/h
119 01-11-2020 09:50:00 14.3 C 12.04 g/m*3 14.3 C 6.4 km/h
120 01-11-2020 09:55:00 14.4 C 11.99 g/m*3 14.4 C 1.6 km/h
121 01-11-2020 10:00:00 14.6 C 12.14 g/m*3 14.6 C 9.7 km/h
122 01-11-2020 10:05:00 14.6 C 12.14 g/m*3 14.6 C 6.4 km/h
123 01-11-2020 10:10:00 14.6 C 12.14 g/m*3 14.6 C 12.9 km/h
124 01-11-2020 10:15:00 14.7 C 12.21 g/m*3 14.7 C 9.7 km/h
125 01-11-2020 10:20:00 14.8 C 12.16 g/m*3 14.8 C 8.1 km/h
Sensor: Nr:Datum:Temp:Abs-Feuchte:Windchill:Wind:
Aussen-T/F 126 01-11-2020 10:25:00 14.9 C 12.24 g/m*3 14.9 C 12.9 km/h
127 01-11-2020 10:30:00 15.1 C 12.26 g/m*3 15.1 C 12.9 km/h
128 01-11-2020 10:35:00 15.2 C 12.2 g/m*3 15.2 C 11.3 km/h
129 01-11-2020 10:40:00 15.3 C 12.14 g/m*3 15.3 C 11.3 km/h
130 01-11-2020 10:45:00 15.5 C 12.16 g/m*3 15.5 C 14.5 km/h
131 01-11-2020 10:50:00 15.6 C 12.23 g/m*3 15.6 C 8.1 km/h
132 01-11-2020 10:55:00 15.7 C 12.18 g/m*3 15.7 C 11.3 km/h
133 01-11-2020 11:00:00 15.7 C 12.04 g/m*3 15.7 C 9.7 km/h
134 01-11-2020 11:05:00 15.8 C 12.25 g/m*3 15.8 C 3.2 km/h
135 01-11-2020 11:10:00 16 C 12.4 g/m*3 16 C 3.2 km/h
136 01-11-2020 11:15:00 16.1 C 12.34 g/m*3 16.1 C 11.3 km/h
137 01-11-2020 11:20:00 16.2 C 12.41 g/m*3 16.2 C 3.2 km/h
138 01-11-2020 11:25:00 16.3 C 12.49 g/m*3 16.3 C 1.6 km/h
139 01-11-2020 11:30:00 16.4 C 12.42 g/m*3 16.4 C 4.8 km/h
140 01-11-2020 11:35:00 16.6 C 12.43 g/m*3 16.6 C 8.1 km/h
141 01-11-2020 11:40:00 16.7 C 12.51 g/m*3 16.7 C 3.2 km/h
142 01-11-2020 11:45:00 16.7 C 12.36 g/m*3 16.7 C 0 km/h
143 01-11-2020 11:50:00 16.8 C 12.44 g/m*3 16.8 C 6.4 km/h
144 01-11-2020 11:55:00 16.9 C 12.51 g/m*3 16.9 C 0 km/h
145 01-11-2020 12:00:00 16.9 C 12.51 g/m*3 16.9 C 1.6 km/h
146 01-11-2020 12:05:00 16.9 C 12.51 g/m*3 16.9 C 11.3 km/h
147 01-11-2020 12:10:00 16.8 C 12.3 g/m*3 16.8 C 4.8 km/h
148 01-11-2020 12:15:00 16.7 C 12.36 g/m*3 16.7 C 1.6 km/h
149 01-11-2020 12:20:00 16.7 C 12.22 g/m*3 16.7 C 9.7 km/h
150 01-11-2020 12:25:00 16.7 C 12.36 g/m*3 16.7 C 1.6 km/h
Sensor: Nr:Datum:Temp:Abs-Feuchte:Windchill:Wind:
Aussen-T/F 151 01-11-2020 12:30:00 16.7 C 12.51 g/m*3 16.7 C 3.2 km/h
152 01-11-2020 12:35:00 16.7 C 12.36 g/m*3 16.7 C 1.6 km/h
153 01-11-2020 12:40:00 16.8 C 12.58 g/m*3 16.8 C 1.6 km/h
154 01-11-2020 12:45:00 16.8 C 12.58 g/m*3 16.8 C 1.6 km/h
155 01-11-2020 12:50:00 16.8 C 12.58 g/m*3 16.8 C 1.6 km/h
156 01-11-2020 12:55:00 16.8 C 12.44 g/m*3 16.8 C 1.6 km/h
157 01-11-2020 13:00:00 16.8 C 12.44 g/m*3 16.8 C 4.8 km/h
158 01-11-2020 13:05:00 16.9 C 12.51 g/m*3 16.9 C 9.7 km/h
159 01-11-2020 13:10:00 16.9 C 12.66 g/m*3 16.9 C 6.4 km/h
160 01-11-2020 13:15:00 16.9 C 12.51 g/m*3 16.9 C 9.7 km/h
161 01-11-2020 13:20:00 16.9 C 12.51 g/m*3 16.9 C 9.7 km/h
162 01-11-2020 13:25:00 16.9 C 12.66 g/m*3 16.9 C 8.1 km/h
163 01-11-2020 13:30:00 16.9 C 12.66 g/m*3 16.9 C 8.1 km/h
164 01-11-2020 13:35:00 16.9 C 12.66 g/m*3 16.9 C 6.4 km/h
165 01-11-2020 13:40:00 17 C 12.59 g/m*3 17 C 4.8 km/h
166 01-11-2020 13:45:00 17 C 12.73 g/m*3 17 C 8.1 km/h
167 01-11-2020 13:50:00 17.1 C 12.66 g/m*3 17.1 C 12.9 km/h
168 01-11-2020 13:55:00 17.1 C 12.66 g/m*3 17.1 C 14.5 km/h
169 01-11-2020 14:00:00 17.1 C 12.81 g/m*3 17.1 C 12.9 km/h
170 01-11-2020 14:05:00 16.9 C 12.66 g/m*3 16.9 C 12.9 km/h
171 01-11-2020 14:10:00 16.9 C 12.8 g/m*3 16.9 C 11.3 km/h
172 01-11-2020 14:15:00 16.8 C 12.72 g/m*3 16.8 C 9.7 km/h
173 01-11-2020 14:20:00 16.8 C 12.72 g/m*3 16.8 C 8.1 km/h
174 01-11-2020 14:25:00 16.8 C 12.72 g/m*3 16.8 C 8.1 km/h
175 01-11-2020 14:30:00 16.8 C 12.72 g/m*3 16.8 C 11.3 km/h
Sensor: Nr:Datum:Temp:Abs-Feuchte:Windchill:Wind:
Aussen-T/F 176 01-11-2020 14:35:00 16.8 C 12.72 g/m*3 16.8 C 9.7 km/h
177 01-11-2020 14:40:00 16.7 C 12.51 g/m*3 16.7 C 14.5 km/h
178 01-11-2020 14:45:00 16.8 C 12.58 g/m*3 16.8 C 17.7 km/h
179 01-11-2020 14:50:00 16.8 C 12.58 g/m*3 16.8 C 17.7 km/h
180 01-11-2020 14:55:00 16.8 C 12.58 g/m*3 16.8 C 12.9 km/h
181 01-11-2020 15:00:00 16.8 C 12.58 g/m*3 16.8 C 12.9 km/h
182 01-11-2020 15:05:00 16.8 C 12.58 g/m*3 16.8 C 9.7 km/h
183 01-11-2020 15:10:00 16.7 C 12.51 g/m*3 16.7 C 14.5 km/h
184 01-11-2020 15:15:00 16.7 C 12.51 g/m*3 16.7 C 20.9 km/h
185 01-11-2020 15:20:00 16.7 C 12.51 g/m*3 16.7 C 17.7 km/h
186 01-11-2020 15:25:00 16.7 C 12.51 g/m*3 16.7 C 14.5 km/h
187 01-11-2020 15:30:00 16.7 C 12.51 g/m*3 16.7 C 17.7 km/h
188 01-11-2020 15:35:00 16.7 C 12.51 g/m*3 16.7 C 17.7 km/h
189 01-11-2020 15:40:00 16.7 C 12.51 g/m*3 16.7 C 22.5 km/h
190 01-11-2020 15:45:00 16.7 C 12.36 g/m*3 16.7 C 16.1 km/h
191 01-11-2020 15:50:00 16.7 C 12.36 g/m*3 16.7 C 22.5 km/h
192 01-11-2020 15:55:00 16.7 C 12.36 g/m*3 16.7 C 14.5 km/h
193 01-11-2020 16:00:00 16.7 C 12.51 g/m*3 16.7 C 16.1 km/h
194 01-11-2020 16:05:00 16.7 C 12.51 g/m*3 16.7 C 17.7 km/h
195 01-11-2020 16:10:00 16.7 C 12.51 g/m*3 16.7 C 22.5 km/h
196 01-11-2020 16:15:00 16.7 C 12.36 g/m*3 16.7 C 12.9 km/h
197 01-11-2020 16:20:00 16.8 C 12.44 g/m*3 16.8 C 9.7 km/h
198 01-11-2020 16:25:00 16.8 C 12.44 g/m*3 16.8 C 17.7 km/h
199 01-11-2020 16:30:00 16.8 C 12.44 g/m*3 16.8 C 14.5 km/h
200 01-11-2020 16:35:00 16.8 C 12.44 g/m*3 16.8 C 11.3 km/h
Sensor: Nr:Datum:Temp:Abs-Feuchte:Windchill:Wind:
Aussen-T/F 201 01-11-2020 16:40:00 16.8 C 12.58 g/m*3 16.8 C 9.7 km/h
202 01-11-2020 16:45:00 16.7 C 12.51 g/m*3 16.7 C 14.5 km/h
203 01-11-2020 16:50:00 16.7 C 12.51 g/m*3 16.7 C 9.7 km/h
204 01-11-2020 16:55:00 16.7 C 12.51 g/m*3 16.7 C 16.1 km/h
205 01-11-2020 17:00:00 16.7 C 12.51 g/m*3 16.7 C 11.3 km/h
206 01-11-2020 17:05:00 16.7 C 12.51 g/m*3 16.7 C 11.3 km/h
207 01-11-2020 17:10:00 16.6 C 12.43 g/m*3 16.6 C 14.5 km/h
208 01-11-2020 17:15:00 16.6 C 12.43 g/m*3 16.6 C 11.3 km/h
209 01-11-2020 17:20:00 16.6 C 12.43 g/m*3 16.6 C 8.1 km/h
210 01-11-2020 17:25:00 16.6 C 12.57 g/m*3 16.6 C 9.7 km/h
211 01-11-2020 17:30:00 16.6 C 12.57 g/m*3 16.6 C 8.1 km/h
212 01-11-2020 17:35:00 16.6 C 12.57 g/m*3 16.6 C 11.3 km/h
213 01-11-2020 17:40:00 16.5 C 12.5 g/m*3 16.5 C 9.7 km/h
214 01-11-2020 17:45:00 16.5 C 12.5 g/m*3 16.5 C 11.3 km/h
215 01-11-2020 17:50:00 16.6 C 12.57 g/m*3 16.6 C 12.9 km/h
216 01-11-2020 17:55:00 16.6 C 12.57 g/m*3 16.6 C 6.4 km/h
217 01-11-2020 18:00:00 16.6 C 12.57 g/m*3 16.6 C 4.8 km/h
218 01-11-2020 18:05:00 16.6 C 12.57 g/m*3 16.6 C 9.7 km/h
219 01-11-2020 18:10:00 16.6 C 12.57 g/m*3 16.6 C 6.4 km/h
220 01-11-2020 18:15:00 16.7 C 12.65 g/m*3 16.7 C 9.7 km/h
221 01-11-2020 18:20:00 16.7 C 12.65 g/m*3 16.7 C 11.3 km/h
222 01-11-2020 18:25:00 16.7 C 12.65 g/m*3 16.7 C 8.1 km/h
223 01-11-2020 18:30:00 16.7 C 12.65 g/m*3 16.7 C 4.8 km/h
224 01-11-2020 18:35:00 16.8 C 12.58 g/m*3 16.8 C 9.7 km/h
225 01-11-2020 18:40:00 16.8 C 12.58 g/m*3 16.8 C 11.3 km/h
Sensor: Nr:Datum:Temp:Abs-Feuchte:Windchill:Wind:
Aussen-T/F 226 01-11-2020 18:45:00 16.8 C 12.58 g/m*3 16.8 C 11.3 km/h
227 01-11-2020 18:50:00 16.8 C 12.58 g/m*3 16.8 C 12.9 km/h
228 01-11-2020 18:55:00 16.8 C 12.58 g/m*3 16.8 C 8.1 km/h
229 01-11-2020 19:00:00 16.8 C 12.58 g/m*3 16.8 C 8.1 km/h
230 01-11-2020 19:05:00 16.8 C 12.58 g/m*3 16.8 C 12.9 km/h
231 01-11-2020 19:10:00 16.8 C 12.58 g/m*3 16.8 C 14.5 km/h
232 01-11-2020 19:15:00 16.8 C 12.58 g/m*3 16.8 C 11.3 km/h
233 01-11-2020 19:20:00 16.9 C 12.66 g/m*3 16.9 C 12.9 km/h
234 01-11-2020 19:25:00 16.9 C 12.66 g/m*3 16.9 C 11.3 km/h
235 01-11-2020 19:30:00 16.9 C 12.66 g/m*3 16.9 C 12.9 km/h
236 01-11-2020 19:35:00 16.9 C 12.66 g/m*3 16.9 C 8.1 km/h
237 01-11-2020 19:40:00 16.9 C 12.66 g/m*3 16.9 C 11.3 km/h
238 01-11-2020 19:45:00 16.9 C 12.66 g/m*3 16.9 C 9.7 km/h
239 01-11-2020 19:50:00 16.9 C 12.66 g/m*3 16.9 C 4.8 km/h
240 01-11-2020 19:55:00 16.9 C 12.66 g/m*3 16.9 C 14.5 km/h
241 01-11-2020 20:00:00 16.9 C 12.66 g/m*3 16.9 C 17.7 km/h
242 01-11-2020 20:05:00 16.9 C 12.66 g/m*3 16.9 C 4.8 km/h
243 01-11-2020 20:10:00 16.9 C 12.66 g/m*3 16.9 C 14.5 km/h
244 01-11-2020 20:15:00 17 C 12.73 g/m*3 17 C 16.1 km/h
245 01-11-2020 20:20:00 17 C 12.73 g/m*3 17 C 14.5 km/h
246 01-11-2020 20:25:00 17 C 12.73 g/m*3 17 C 17.7 km/h
247 01-11-2020 20:30:00 17 C 12.73 g/m*3 17 C 14.5 km/h
248 01-11-2020 20:35:00 17 C 12.73 g/m*3 17 C 12.9 km/h
249 01-11-2020 20:40:00 17 C 12.73 g/m*3 17 C 11.3 km/h
250 01-11-2020 20:45:00 17 C 12.73 g/m*3 17 C 6.4 km/h
Sensor: Nr:Datum:Temp:Abs-Feuchte:Windchill:Wind:
Aussen-T/F 251 01-11-2020 20:50:00 17 C 12.73 g/m*3 17 C 8.1 km/h
252 01-11-2020 20:55:00 17 C 12.73 g/m*3 17 C 11.3 km/h
253 01-11-2020 21:00:00 17.1 C 12.81 g/m*3 17.1 C 16.1 km/h
254 01-11-2020 21:05:00 17.1 C 12.81 g/m*3 17.1 C 9.7 km/h
255 01-11-2020 21:10:00 17.1 C 12.81 g/m*3 17.1 C 16.1 km/h
256 01-11-2020 21:15:00 17.1 C 12.81 g/m*3 17.1 C 8.1 km/h
257 01-11-2020 21:20:00 17.1 C 12.81 g/m*3 17.1 C 4.8 km/h
258 01-11-2020 21:25:00 17.1 C 12.81 g/m*3 17.1 C 16.1 km/h
259 01-11-2020 21:30:00 17.1 C 12.81 g/m*3 17.1 C 9.7 km/h
260 01-11-2020 21:35:00 17.1 C 12.66 g/m*3 17.1 C 12.9 km/h
261 01-11-2020 21:40:00 17.1 C 12.66 g/m*3 17.1 C 16.1 km/h
262 01-11-2020 21:45:00 17.2 C 12.74 g/m*3 17.2 C 17.7 km/h
263 01-11-2020 21:50:00 17.2 C 12.74 g/m*3 17.2 C 14.5 km/h
264 01-11-2020 21:55:00 17.2 C 12.74 g/m*3 17.2 C 12.9 km/h
265 01-11-2020 22:00:00 17.2 C 12.74 g/m*3 17.2 C 11.3 km/h
266 01-11-2020 22:05:00 17.2 C 12.89 g/m*3 17.2 C 12.9 km/h
267 01-11-2020 22:10:00 17.2 C 12.89 g/m*3 17.2 C 9.7 km/h
268 01-11-2020 22:15:00 17.2 C 12.89 g/m*3 17.2 C 8.1 km/h
269 01-11-2020 22:20:00 17.1 C 12.81 g/m*3 17.1 C 8.1 km/h
270 01-11-2020 22:25:00 17.1 C 12.81 g/m*3 17.1 C 6.4 km/h
271 01-11-2020 22:30:00 17.1 C 12.81 g/m*3 17.1 C 9.7 km/h
272 01-11-2020 22:35:00 17.2 C 12.89 g/m*3 17.2 C 9.7 km/h
273 01-11-2020 22:40:00 17.2 C 12.89 g/m*3 17.2 C 3.2 km/h
274 01-11-2020 22:45:00 17.2 C 12.89 g/m*3 17.2 C 8.1 km/h
275 01-11-2020 22:50:00 17.2 C 12.89 g/m*3 17.2 C 3.2 km/h
Sensor: Nr:Datum:Temp:Abs-Feuchte:Windchill:Wind:
Aussen-T/F 276 01-11-2020 22:55:00 17.2 C 12.89 g/m*3 17.2 C 6.4 km/h
277 01-11-2020 23:00:00 17.2 C 12.89 g/m*3 17.2 C 8.1 km/h
278 01-11-2020 23:05:00 17.3 C 12.96 g/m*3 17.3 C 3.2 km/h
279 01-11-2020 23:10:00 17.3 C 12.96 g/m*3 17.3 C 8.1 km/h
280 01-11-2020 23:15:00 17.2 C 12.89 g/m*3 17.2 C 3.2 km/h
281 01-11-2020 23:20:00 17.2 C 12.89 g/m*3 17.2 C 3.2 km/h
282 01-11-2020 23:25:00 17.2 C 12.89 g/m*3 17.2 C 3.2 km/h
283 01-11-2020 23:30:00 17.2 C 12.89 g/m*3 17.2 C 4.8 km/h
284 01-11-2020 23:35:00 17.3 C 12.96 g/m*3 17.3 C 4.8 km/h
285 01-11-2020 23:40:00 17.3 C 12.96 g/m*3 17.3 C 6.4 km/h
286 01-11-2020 23:45:00 17.3 C 12.96 g/m*3 17.3 C 1.6 km/h
287 01-11-2020 23:50:00 17.3 C 12.96 g/m*3 17.3 C 6.4 km/h
288 01-11-2020 23:55:00 17.3 C 12.96 g/m*3 17.3 C 3.2 km/h
289 02-11-2020 00:00:00 17.4 C 13.04 g/m*3 17.4 C 3.2 km/h
290 02-11-2020 00:05:00 17.4 C 13.04 g/m*3 17.4 C 4.8 km/h
291 02-11-2020 00:10:00 17.4 C 13.04 g/m*3 17.4 C 11.3 km/h
292 02-11-2020 00:15:00 17.4 C 13.04 g/m*3 17.4 C 3.2 km/h
293 02-11-2020 00:20:00 17.5 C 13.12 g/m*3 17.5 C 8.1 km/h
294 02-11-2020 00:25:00 17.6 C 13.2 g/m*3 17.6 C 8.1 km/h
295 02-11-2020 00:30:00 17.6 C 13.2 g/m*3 17.6 C 12.9 km/h
296 02-11-2020 00:35:00 17.7 C 13.28 g/m*3 17.7 C 12.9 km/h
297 02-11-2020 00:40:00 17.7 C 13.28 g/m*3 17.7 C 8.1 km/h
298 02-11-2020 00:45:00 17.7 C 13.28 g/m*3 17.7 C 8.1 km/h
299 02-11-2020 00:50:00 17.7 C 13.13 g/m*3 17.7 C 6.4 km/h
300 02-11-2020 00:55:00 17.7 C 13.28 g/m*3 17.7 C 4.8 km/h
Sensor: Nr:Datum:Temp:Abs-Feuchte:Windchill:Wind:
Aussen-T/F 301 02-11-2020 01:00:00 17.7 C 13.28 g/m*3 17.7 C 8.1 km/h
302 02-11-2020 01:05:00 17.8 C 13.36 g/m*3 17.8 C 6.4 km/h
303 02-11-2020 01:10:00 17.7 C 13.28 g/m*3 17.7 C 9.7 km/h
304 02-11-2020 01:15:00 17.8 C 13.36 g/m*3 17.8 C 14.5 km/h
305 02-11-2020 01:20:00 17.8 C 13.36 g/m*3 17.8 C 11.3 km/h
306 02-11-2020 01:25:00 17.8 C 13.2 g/m*3 17.8 C 9.7 km/h
307 02-11-2020 01:30:00 17.9 C 13.28 g/m*3 17.9 C 17.7 km/h
308 02-11-2020 01:35:00 18 C 13.36 g/m*3 18 C 17.7 km/h
309 02-11-2020 01:40:00 18.1 C 13.44 g/m*3 18.1 C 17.7 km/h
310 02-11-2020 01:45:00 18.1 C 13.44 g/m*3 18.1 C 16.1 km/h
311 02-11-2020 01:50:00 18.1 C 13.44 g/m*3 18.1 C 14.5 km/h
312 02-11-2020 01:55:00 18.1 C 13.44 g/m*3 18.1 C 14.5 km/h
313 02-11-2020 02:00:00 18.1 C 13.44 g/m*3 18.1 C 16.1 km/h
314 02-11-2020 02:05:00 18.1 C 13.44 g/m*3 18.1 C 12.9 km/h
315 02-11-2020 02:10:00 18.1 C 13.44 g/m*3 18.1 C 11.3 km/h
316 02-11-2020 02:15:00 18.2 C 13.52 g/m*3 18.2 C 16.1 km/h
317 02-11-2020 02:20:00 18.2 C 13.52 g/m*3 18.2 C 11.3 km/h
318 02-11-2020 02:25:00 18.2 C 13.52 g/m*3 18.2 C 16.1 km/h
319 02-11-2020 02:30:00 18.2 C 13.52 g/m*3 18.2 C 14.5 km/h
320 02-11-2020 02:35:00 18.2 C 13.37 g/m*3 18.2 C 14.5 km/h
321 02-11-2020 02:40:00 18.2 C 13.37 g/m*3 18.2 C 14.5 km/h
322 02-11-2020 02:45:00 18.2 C 13.37 g/m*3 18.2 C 14.5 km/h
323 02-11-2020 02:50:00 18.3 C 13.45 g/m*3 18.3 C 17.7 km/h
324 02-11-2020 02:55:00 18.3 C 13.45 g/m*3 18.3 C 17.7 km/h
325 02-11-2020 03:00:00 18.4 C 13.37 g/m*3 18.4 C 16.1 km/h
Sensor: Nr:Datum:Temp:Abs-Feuchte:Windchill:Wind:
Aussen-T/F 326 02-11-2020 03:05:00 18.4 C 13.37 g/m*3 18.4 C 11.3 km/h
327 02-11-2020 03:10:00 18.5 C 13.45 g/m*3 18.5 C 11.3 km/h
328 02-11-2020 03:15:00 18.5 C 13.29 g/m*3 18.5 C 16.1 km/h
329 02-11-2020 03:20:00 18.6 C 13.37 g/m*3 18.6 C 11.3 km/h
330 02-11-2020 03:25:00 18.6 C 13.37 g/m*3 18.6 C 17.7 km/h
331 02-11-2020 03:30:00 18.6 C 13.37 g/m*3 18.6 C 11.3 km/h
332 02-11-2020 03:35:00 18.7 C 13.45 g/m*3 18.7 C 8.1 km/h
333 02-11-2020 03:40:00 18.6 C 13.37 g/m*3 18.6 C 9.7 km/h
334 02-11-2020 03:45:00 18.6 C 13.37 g/m*3 18.6 C 14.5 km/h
335 02-11-2020 03:50:00 18.7 C 13.29 g/m*3 18.7 C 20.9 km/h
336 02-11-2020 03:55:00 18.7 C 13.29 g/m*3 18.7 C 9.7 km/h
337 02-11-2020 04:00:00 18.7 C 13.29 g/m*3 18.7 C 12.9 km/h
338 02-11-2020 04:05:00 18.8 C 13.37 g/m*3 18.8 C 9.7 km/h
339 02-11-2020 04:10:00 18.7 C 13.29 g/m*3 18.7 C 9.7 km/h
340 02-11-2020 04:15:00 18.7 C 13.45 g/m*3 18.7 C 11.3 km/h
341 02-11-2020 04:20:00 18.7 C 13.45 g/m*3 18.7 C 9.7 km/h
342 02-11-2020 04:25:00 18.7 C 13.45 g/m*3 18.7 C 12.9 km/h
343 02-11-2020 04:30:00 18.7 C 13.45 g/m*3 18.7 C 8.1 km/h
344 02-11-2020 04:35:00 18.7 C 13.45 g/m*3 18.7 C 11.3 km/h
345 02-11-2020 04:40:00 18.7 C 13.45 g/m*3 18.7 C 9.7 km/h
346 02-11-2020 04:45:00 18.7 C 13.45 g/m*3 18.7 C 6.4 km/h
347 02-11-2020 04:50:00 18.7 C 13.45 g/m*3 18.7 C 11.3 km/h
348 02-11-2020 04:55:00 18.6 C 13.53 g/m*3 18.6 C 6.4 km/h
349 02-11-2020 05:00:00 18.6 C 13.53 g/m*3 18.6 C 9.7 km/h
350 02-11-2020 05:05:00 18.6 C 13.69 g/m*3 18.6 C 9.7 km/h
Sensor: Nr:Datum:Temp:Abs-Feuchte:Windchill:Wind:
Aussen-T/F 351 02-11-2020 05:10:00 18.5 C 13.61 g/m*3 18.5 C 9.7 km/h
352 02-11-2020 05:15:00 18.4 C 13.53 g/m*3 18.4 C 16.1 km/h
353 02-11-2020 05:20:00 18.4 C 13.68 g/m*3 18.4 C 9.7 km/h
354 02-11-2020 05:25:00 18.3 C 13.6 g/m*3 18.3 C 9.7 km/h
355 02-11-2020 05:30:00 18.3 C 13.6 g/m*3 18.3 C 8.1 km/h
356 02-11-2020 05:35:00 18.3 C 13.6 g/m*3 18.3 C 20.9 km/h
357 02-11-2020 05:40:00 18.3 C 13.6 g/m*3 18.3 C 9.7 km/h
358 02-11-2020 05:45:00 18.3 C 13.6 g/m*3 18.3 C 6.4 km/h
359 02-11-2020 05:50:00 18.3 C 13.6 g/m*3 18.3 C 9.7 km/h
360 02-11-2020 05:55:00 18.3 C 13.6 g/m*3 18.3 C 11.3 km/h
361 02-11-2020 06:00:00 18.3 C 13.6 g/m*3 18.3 C 12.9 km/h
362 02-11-2020 06:05:00 18.3 C 13.6 g/m*3 18.3 C 11.3 km/h
363 02-11-2020 06:10:00 18.4 C 13.53 g/m*3 18.4 C 9.7 km/h
364 02-11-2020 06:15:00 18.4 C 13.53 g/m*3 18.4 C 12.9 km/h
365 02-11-2020 06:20:00 18.5 C 13.45 g/m*3 18.5 C 16.1 km/h
366 02-11-2020 06:25:00 18.6 C 13.53 g/m*3 18.6 C 17.7 km/h
367 02-11-2020 06:30:00 18.7 C 13.45 g/m*3 18.7 C 17.7 km/h
368 02-11-2020 06:35:00 18.8 C 13.37 g/m*3 18.8 C 12.9 km/h
369 02-11-2020 06:40:00 18.8 C 13.37 g/m*3 18.8 C 12.9 km/h
370 02-11-2020 06:45:00 18.8 C 13.37 g/m*3 18.8 C 12.9 km/h
371 02-11-2020 06:50:00 18.8 C 13.37 g/m*3 18.8 C 16.1 km/h
372 02-11-2020 06:55:00 18.9 C 13.28 g/m*3 18.9 C 17.7 km/h
373 02-11-2020 07:00:00 19 C 13.36 g/m*3 19 C 14.5 km/h
374 02-11-2020 07:05:00 19 C 13.36 g/m*3 19 C 20.9 km/h
375 02-11-2020 07:10:00 19 C 13.36 g/m*3 19 C 14.5 km/h
Sensor: Nr:Datum:Temp:Abs-Feuchte:Windchill:Wind:
Aussen-T/F 376 02-11-2020 07:15:00 19 C 13.2 g/m*3 19 C 19.3 km/h
377 02-11-2020 07:20:00 19 C 13.2 g/m*3 19 C 20.9 km/h
378 02-11-2020 07:25:00 19 C 13.2 g/m*3 19 C 17.7 km/h
379 02-11-2020 07:30:00 19 C 13.36 g/m*3 19 C 11.3 km/h
380 02-11-2020 07:35:00 18.9 C 13.12 g/m*3 18.9 C 16.1 km/h
381 02-11-2020 07:40:00 19 C 13.2 g/m*3 19 C 29 km/h
382 02-11-2020 07:45:00 19.1 C 13.28 g/m*3 19.1 C 19.3 km/h
383 02-11-2020 07:50:00 19.1 C 13.28 g/m*3 19.1 C 20.9 km/h
384 02-11-2020 07:55:00 19.1 C 13.11 g/m*3 19.1 C 22.5 km/h
385 02-11-2020 08:00:00 19.2 C 13.19 g/m*3 19.2 C 24.1 km/h
386 02-11-2020 08:05:00 19.2 C 13.19 g/m*3 19.2 C 19.3 km/h
387 02-11-2020 08:10:00 19.2 C 13.19 g/m*3 19.2 C 12.9 km/h
388 02-11-2020 08:15:00 19.2 C 13.19 g/m*3 19.2 C 14.5 km/h
389 02-11-2020 08:20:00 19.2 C 13.19 g/m*3 19.2 C 16.1 km/h
390 02-11-2020 08:25:00 19.2 C 13.19 g/m*3 19.2 C 20.9 km/h
391 02-11-2020 08:30:00 19.2 C 13.19 g/m*3 19.2 C 29 km/h
392 02-11-2020 08:35:00 19.2 C 13.03 g/m*3 19.2 C 25.7 km/h
393 02-11-2020 08:40:00 19.2 C 13.03 g/m*3 19.2 C 20.9 km/h
394 02-11-2020 08:45:00 19.2 C 13.03 g/m*3 19.2 C 16.1 km/h
395 02-11-2020 08:50:00 19.3 C 13.1 g/m*3 19.3 C 24.1 km/h
396 02-11-2020 08:55:00 19.3 C 13.1 g/m*3 19.3 C 19.3 km/h
397 02-11-2020 09:00:00 19.3 C 13.1 g/m*3 19.3 C 22.5 km/h
398 02-11-2020 09:05:00 19.4 C 13.18 g/m*3 19.4 C 20.9 km/h
399 02-11-2020 09:10:00 19.4 C 13.01 g/m*3 19.4 C 20.9 km/h
400 02-11-2020 09:15:00 19.4 C 13.01 g/m*3 19.4 C 20.9 km/h
Sensor: Nr:Datum:Temp:Abs-Feuchte:Windchill:Wind:
Aussen-T/F 401 02-11-2020 09:20:00 19.5 C 13.09 g/m*3 19.5 C 19.3 km/h
402 02-11-2020 09:25:00 19.5 C 13.09 g/m*3 19.5 C 16.1 km/h
403 02-11-2020 09:30:00 19.4 C 13.01 g/m*3 19.4 C 16.1 km/h
404 02-11-2020 09:35:00 19.5 C 13.09 g/m*3 19.5 C 24.1 km/h
405 02-11-2020 09:40:00 19.5 C 13.09 g/m*3 19.5 C 22.5 km/h
406 02-11-2020 09:45:00 19.5 C 12.92 g/m*3 19.5 C 20.9 km/h
407 02-11-2020 09:50:00 19.6 C 13 g/m*3 19.6 C 20.9 km/h
408 02-11-2020 09:55:00 19.6 C 13 g/m*3 19.6 C 27.4 km/h
409 02-11-2020 10:00:00 19.5 C 12.92 g/m*3 19.5 C 22.5 km/h
410 02-11-2020 10:05:00 19.5 C 12.92 g/m*3 19.5 C 17.7 km/h
411 02-11-2020 10:10:00 19.4 C 13.01 g/m*3 19.4 C 20.9 km/h
412 02-11-2020 10:15:00 19.4 C 13.01 g/m*3 19.4 C 20.9 km/h
413 02-11-2020 10:20:00 19.3 C 13.1 g/m*3 19.3 C 14.5 km/h
414 02-11-2020 10:25:00 19.3 C 13.1 g/m*3 19.3 C 11.3 km/h
415 02-11-2020 10:30:00 19.3 C 13.1 g/m*3 19.3 C 9.7 km/h
416 02-11-2020 10:35:00 19.3 C 13.1 g/m*3 19.3 C 12.9 km/h
417 02-11-2020 10:40:00 19.3 C 13.1 g/m*3 19.3 C 12.9 km/h
418 02-11-2020 10:45:00 19.3 C 13.1 g/m*3 19.3 C 8.1 km/h
419 02-11-2020 10:50:00 19.3 C 13.1 g/m*3 19.3 C 11.3 km/h
420 02-11-2020 10:55:00 19.3 C 13.1 g/m*3 19.3 C 11.3 km/h
421 02-11-2020 11:00:00 19.3 C 13.1 g/m*3 19.3 C 9.7 km/h
422 02-11-2020 11:05:00 19.4 C 13.01 g/m*3 19.4 C 8.1 km/h
423 02-11-2020 11:10:00 19.4 C 13.01 g/m*3 19.4 C 9.7 km/h
424 02-11-2020 11:15:00 19.6 C 13 g/m*3 19.6 C 9.7 km/h
425 02-11-2020 11:20:00 19.6 C 13 g/m*3 19.6 C 11.3 km/h
Sensor: Nr:Datum:Temp:Abs-Feuchte:Windchill:Wind:
Aussen-T/F 426 02-11-2020 11:25:00 19.6 C 13 g/m*3 19.6 C 16.1 km/h
427 02-11-2020 11:30:00 19.7 C 12.91 g/m*3 19.7 C 14.5 km/h
428 02-11-2020 11:35:00 19.7 C 13.08 g/m*3 19.7 C 12.9 km/h
429 02-11-2020 11:40:00 19.7 C 13.08 g/m*3 19.7 C 14.5 km/h
430 02-11-2020 11:45:00 19.7 C 13.08 g/m*3 19.7 C 12.9 km/h
431 02-11-2020 11:50:00 19.7 C 12.91 g/m*3 19.7 C 11.3 km/h
432 02-11-2020 11:55:00 19.7 C 13.08 g/m*3 19.7 C 11.3 km/h
433 02-11-2020 12:00:00 19.7 C 12.91 g/m*3 19.7 C 14.5 km/h
434 02-11-2020 12:05:00 19.8 C 12.98 g/m*3 19.8 C 17.7 km/h
435 02-11-2020 12:10:00 19.9 C 13.06 g/m*3 19.9 C 14.5 km/h
436 02-11-2020 12:15:00 20.1 C 13.04 g/m*3 20.1 C 14.5 km/h
437 02-11-2020 12:20:00 20.2 C 13.11 g/m*3 20.2 C 12.9 km/h
438 02-11-2020 12:25:00 20.2 C 12.94 g/m*3 20.2 C 11.3 km/h
439 02-11-2020 12:30:00 20.3 C 13.01 g/m*3 20.3 C 9.7 km/h
440 02-11-2020 12:35:00 20.5 C 13.17 g/m*3 20.5 C 16.1 km/h
441 02-11-2020 12:40:00 20.6 C 13.07 g/m*3 20.6 C 12.9 km/h
442 02-11-2020 12:45:00 20.6 C 13.07 g/m*3 20.6 C 19.3 km/h
443 02-11-2020 12:50:00 20.5 C 13.17 g/m*3 20.5 C 9.7 km/h
444 02-11-2020 12:55:00 20.4 C 13.09 g/m*3 20.4 C 11.3 km/h
445 02-11-2020 13:00:00 20.4 C 12.91 g/m*3 20.4 C 14.5 km/h
446 02-11-2020 13:05:00 20.4 C 12.91 g/m*3 20.4 C 14.5 km/h
447 02-11-2020 13:10:00 20.4 C 12.91 g/m*3 20.4 C 12.9 km/h
448 02-11-2020 13:15:00 20.4 C 12.91 g/m*3 20.4 C 17.7 km/h
449 02-11-2020 13:20:00 20.3 C 12.84 g/m*3 20.3 C 14.5 km/h
450 02-11-2020 13:25:00 20.4 C 12.91 g/m*3 20.4 C 24.1 km/h
Sensor: Nr:Datum:Temp:Abs-Feuchte:Windchill:Wind:
Aussen-T/F 451 02-11-2020 13:30:00 20.4 C 12.74 g/m*3 20.4 C 16.1 km/h
452 02-11-2020 13:35:00 20.4 C 12.91 g/m*3 20.4 C 11.3 km/h
453 02-11-2020 13:40:00 20.5 C 12.99 g/m*3 20.5 C 8.1 km/h
454 02-11-2020 13:45:00 20.6 C 13.07 g/m*3 20.6 C 14.5 km/h
455 02-11-2020 13:50:00 20.7 C 13.14 g/m*3 20.7 C 14.5 km/h
456 02-11-2020 13:55:00 20.7 C 12.96 g/m*3 20.7 C 16.1 km/h
457 02-11-2020 14:00:00 20.7 C 12.96 g/m*3 20.7 C 14.5 km/h
458 02-11-2020 14:05:00 20.8 C 13.04 g/m*3 20.8 C 20.9 km/h
459 02-11-2020 14:10:00 20.7 C 12.78 g/m*3 20.7 C 12.9 km/h
460 02-11-2020 14:15:00 20.7 C 12.78 g/m*3 20.7 C 14.5 km/h
461 02-11-2020 14:20:00 20.8 C 12.86 g/m*3 20.8 C 17.7 km/h
462 02-11-2020 14:25:00 20.7 C 12.78 g/m*3 20.7 C 17.7 km/h
463 02-11-2020 14:30:00 20.7 C 12.96 g/m*3 20.7 C 14.5 km/h
464 02-11-2020 14:35:00 20.7 C 12.78 g/m*3 20.7 C 20.9 km/h
465 02-11-2020 14:40:00 20.7 C 12.96 g/m*3 20.7 C 16.1 km/h
466 02-11-2020 14:45:00 20.6 C 12.89 g/m*3 20.6 C 14.5 km/h
467 02-11-2020 14:50:00 20.6 C 12.89 g/m*3 20.6 C 16.1 km/h
468 02-11-2020 14:55:00 20.7 C 12.96 g/m*3 20.7 C 11.3 km/h
469 02-11-2020 15:00:00 20.7 C 12.96 g/m*3 20.7 C 16.1 km/h
470 02-11-2020 15:05:00 20.7 C 12.96 g/m*3 20.7 C 12.9 km/h
471 02-11-2020 15:10:00 20.7 C 12.78 g/m*3 20.7 C 17.7 km/h
472 02-11-2020 15:15:00 20.8 C 12.86 g/m*3 20.8 C 19.3 km/h
473 02-11-2020 15:20:00 20.9 C 12.93 g/m*3 20.9 C 16.1 km/h
474 02-11-2020 15:25:00 21 C 12.82 g/m*3 21 C 16.1 km/h
475 02-11-2020 15:30:00 21.1 C 12.9 g/m*3 21.1 C 17.7 km/h
Sensor: Nr:Datum:Temp:Abs-Feuchte:Windchill:Wind:
Aussen-T/F 476 02-11-2020 15:35:00 21.1 C 12.9 g/m*3 21.1 C 17.7 km/h
477 02-11-2020 15:40:00 21.1 C 12.9 g/m*3 21.1 C 14.5 km/h
478 02-11-2020 15:45:00 21.1 C 12.71 g/m*3 21.1 C 17.7 km/h
479 02-11-2020 15:50:00 21 C 12.82 g/m*3 21 C 11.3 km/h
480 02-11-2020 15:55:00 21 C 12.82 g/m*3 21 C 14.5 km/h
481 02-11-2020 16:00:00 20.9 C 12.75 g/m*3 20.9 C 22.5 km/h
482 02-11-2020 16:05:00 20.9 C 12.75 g/m*3 20.9 C 14.5 km/h
483 02-11-2020 16:10:00 20.9 C 12.57 g/m*3 20.9 C 20.9 km/h
484 02-11-2020 16:15:00 20.9 C 12.75 g/m*3 20.9 C 12.9 km/h
485 02-11-2020 16:20:00 20.9 C 12.75 g/m*3 20.9 C 14.5 km/h
486 02-11-2020 16:25:00 20.8 C 12.67 g/m*3 20.8 C 22.5 km/h
487 02-11-2020 16:30:00 20.8 C 12.67 g/m*3 20.8 C 19.3 km/h
488 02-11-2020 16:35:00 20.7 C 12.78 g/m*3 20.7 C 19.3 km/h
489 02-11-2020 16:40:00 20.6 C 12.71 g/m*3 20.6 C 11.3 km/h
490 02-11-2020 16:45:00 20.4 C 12.74 g/m*3 20.4 C 22.5 km/h
491 02-11-2020 16:50:00 20.3 C 12.66 g/m*3 20.3 C 17.7 km/h
492 02-11-2020 16:55:00 20.2 C 12.59 g/m*3 20.2 C 11.3 km/h
493 02-11-2020 17:00:00 20.1 C 12.69 g/m*3 20.1 C 19.3 km/h
494 02-11-2020 17:05:00 20.1 C 12.86 g/m*3 20.1 C 4.8 km/h
495 02-11-2020 17:10:00 19.9 C 12.71 g/m*3 19.9 C 16.1 km/h
496 02-11-2020 17:15:00 19.9 C 12.71 g/m*3 19.9 C 12.9 km/h
497 02-11-2020 17:20:00 19.8 C 12.64 g/m*3 19.8 C 14.5 km/h
498 02-11-2020 17:25:00 19.8 C 12.64 g/m*3 19.8 C 16.1 km/h
499 02-11-2020 17:30:00 19.8 C 12.64 g/m*3 19.8 C 11.3 km/h
500 02-11-2020 17:35:00 19.8 C 12.81 g/m*3 19.8 C 11.3 km/h
Sensor: Nr:Datum:Temp:Abs-Feuchte:Windchill:Wind:
Aussen-T/F 501 02-11-2020 17:40:00 19.7 C 12.74 g/m*3 19.7 C 14.5 km/h
502 02-11-2020 17:45:00 19.5 C 12.59 g/m*3 19.5 C 6.4 km/h
503 02-11-2020 17:50:00 19.4 C 12.68 g/m*3 19.4 C 9.7 km/h
504 02-11-2020 17:55:00 19.2 C 12.53 g/m*3 19.2 C 12.9 km/h
505 02-11-2020 18:00:00 19.2 C 12.7 g/m*3 19.2 C 20.9 km/h
506 02-11-2020 18:05:00 19.3 C 12.61 g/m*3 19.3 C 16.1 km/h
507 02-11-2020 18:10:00 19.5 C 12.75 g/m*3 19.5 C 12.9 km/h
508 02-11-2020 18:15:00 19.7 C 12.74 g/m*3 19.7 C 16.1 km/h
509 02-11-2020 18:20:00 19.8 C 12.81 g/m*3 19.8 C 9.7 km/h
510 02-11-2020 18:25:00 19.8 C 12.81 g/m*3 19.8 C 14.5 km/h
511 02-11-2020 18:30:00 19.8 C 12.98 g/m*3 19.8 C 11.3 km/h
512 02-11-2020 18:35:00 19.8 C 12.98 g/m*3 19.8 C 6.4 km/h
513 02-11-2020 18:40:00 19.7 C 12.91 g/m*3 19.7 C 9.7 km/h
514 02-11-2020 18:45:00 19.7 C 12.91 g/m*3 19.7 C 6.4 km/h
515 02-11-2020 18:50:00 19.6 C 12.83 g/m*3 19.6 C 11.3 km/h
516 02-11-2020 18:55:00 19.6 C 12.83 g/m*3 19.6 C 12.9 km/h
517 02-11-2020 19:00:00 19.5 C 12.75 g/m*3 19.5 C 9.7 km/h
518 02-11-2020 19:05:00 19.5 C 12.75 g/m*3 19.5 C 8.1 km/h
519 02-11-2020 19:10:00 19.5 C 12.75 g/m*3 19.5 C 14.5 km/h
520 02-11-2020 19:15:00 19.5 C 12.75 g/m*3 19.5 C 14.5 km/h
521 02-11-2020 19:20:00 19.5 C 12.75 g/m*3 19.5 C 12.9 km/h
522 02-11-2020 19:25:00 19.6 C 12.83 g/m*3 19.6 C 12.9 km/h
523 02-11-2020 19:30:00 19.7 C 12.91 g/m*3 19.7 C 11.3 km/h
524 02-11-2020 19:35:00 19.8 C 12.98 g/m*3 19.8 C 17.7 km/h
525 02-11-2020 19:40:00 19.9 C 12.89 g/m*3 19.9 C 30.6 km/h
Sensor: Nr:Datum:Temp:Abs-Feuchte:Windchill:Wind:
Aussen-T/F 526 02-11-2020 19:45:00 20.1 C 13.21 g/m*3 20.1 C 30.6 km/h
527 02-11-2020 19:50:00 20 C 13.13 g/m*3 20 C 24.1 km/h
528 02-11-2020 19:55:00 19.9 C 13.23 g/m*3 19.9 C 16.1 km/h
529 02-11-2020 20:00:00 19.8 C 13.15 g/m*3 19.8 C 12.9 km/h
530 02-11-2020 20:05:00 19.8 C 13.32 g/m*3 19.8 C 12.9 km/h
531 02-11-2020 20:10:00 19.7 C 13.25 g/m*3 19.7 C 6.4 km/h
532 02-11-2020 20:15:00 19.6 C 13.17 g/m*3 19.6 C 9.7 km/h
533 02-11-2020 20:20:00 19.6 C 13.17 g/m*3 19.6 C 9.7 km/h
534 02-11-2020 20:25:00 19.6 C 13.34 g/m*3 19.6 C 9.7 km/h
535 02-11-2020 20:30:00 19.6 C 13.34 g/m*3 19.6 C 12.9 km/h
536 02-11-2020 20:35:00 19.6 C 13.34 g/m*3 19.6 C 1.6 km/h
537 02-11-2020 20:40:00 19.3 C 12.94 g/m*3 19.3 C 27.4 km/h
538 02-11-2020 20:45:00 17.6 C 11.7 g/m*3 17.6 C 25.7 km/h
539 02-11-2020 20:50:00 16.3 C 11.65 g/m*3 16.3 C 14.5 km/h
540 02-11-2020 20:55:00 15.5 C 11.37 g/m*3 15.5 C 19.3 km/h
541 02-11-2020 21:00:00 15.1 C 11.35 g/m*3 15.1 C 11.3 km/h
542 02-11-2020 21:05:00 14.8 C 11.27 g/m*3 14.8 C 0 km/h
543 02-11-2020 21:10:00 14.6 C 11.26 g/m*3 14.6 C 6.4 km/h
544 02-11-2020 21:15:00 14.4 C 11.13 g/m*3 14.4 C 8.1 km/h
545 02-11-2020 21:20:00 14.3 C 11.18 g/m*3 14.3 C 3.2 km/h
546 02-11-2020 21:25:00 14.2 C 11.11 g/m*3 14.2 C 11.3 km/h
547 02-11-2020 21:30:00 14.1 C 11.17 g/m*3 14.1 C 8.1 km/h
548 02-11-2020 21:35:00 14.1 C 11.17 g/m*3 14.1 C 1.6 km/h
549 02-11-2020 21:40:00 14 C 11.1 g/m*3 14 C 1.6 km/h
550 02-11-2020 21:45:00 13.9 C 11.03 g/m*3 13.9 C 0 km/h
Sensor: Nr:Datum:Temp:Abs-Feuchte:Windchill:Wind:
Aussen-T/F 551 02-11-2020 21:50:00 13.9 C 11.15 g/m*3 13.9 C 0 km/h
552 02-11-2020 21:55:00 13.9 C 11.15 g/m*3 13.9 C 3.2 km/h
553 02-11-2020 22:00:00 13.9 C 11.15 g/m*3 13.9 C 1.6 km/h
554 02-11-2020 22:05:00 13.8 C 11.08 g/m*3 13.8 C 3.2 km/h
555 02-11-2020 22:10:00 13.7 C 10.89 g/m*3 13.7 C 4.8 km/h
556 02-11-2020 22:15:00 13.4 C 10.69 g/m*3 13.4 C 8.1 km/h
557 02-11-2020 22:20:00 13.2 C 10.56 g/m*3 13.2 C 8.1 km/h
558 02-11-2020 22:25:00 13 C 10.43 g/m*3 13 C 8.1 km/h
559 02-11-2020 22:30:00 12.8 C 10.3 g/m*3 12.8 C 6.4 km/h
560 02-11-2020 22:35:00 12.7 C 10.24 g/m*3 12.7 C 6.4 km/h
561 02-11-2020 22:40:00 12.6 C 10.29 g/m*3 12.6 C 6.4 km/h
562 02-11-2020 22:45:00 12.5 C 10.22 g/m*3 12.5 C 4.8 km/h
563 02-11-2020 22:50:00 12.4 C 10.16 g/m*3 12.4 C 4.8 km/h
564 02-11-2020 22:55:00 12.2 C 9.93 g/m*3 12.2 C 8.1 km/h
565 02-11-2020 23:00:00 12.1 C 9.87 g/m*3 12.1 C 4.8 km/h
566 02-11-2020 23:05:00 12.1 C 9.87 g/m*3 12.1 C 4.8 km/h
567 02-11-2020 23:10:00 12 C 9.91 g/m*3 12 C 4.8 km/h
568 02-11-2020 23:15:00 12 C 9.91 g/m*3 12 C 9.7 km/h
569 02-11-2020 23:20:00 11.9 C 9.85 g/m*3 11.9 C 4.8 km/h
570 02-11-2020 23:25:00 11.9 C 9.85 g/m*3 11.9 C 4.8 km/h
571 02-11-2020 23:30:00 11.9 C 9.85 g/m*3 11.9 C 3.2 km/h
572 02-11-2020 23:35:00 11.9 C 9.96 g/m*3 11.9 C 4.8 km/h
573 02-11-2020 23:40:00 11.9 C 9.96 g/m*3 11.9 C 3.2 km/h
574 02-11-2020 23:45:00 11.9 C 9.96 g/m*3 11.9 C 3.2 km/h
575 02-11-2020 23:50:00 11.9 C 9.96 g/m*3 11.9 C 4.8 km/h
Sensor: Nr:Datum:Temp:Abs-Feuchte:Windchill:Wind:
Aussen-T/F 576 02-11-2020 23:55:00 11.8 C 9.79 g/m*3 11.8 C 4.8 km/h
577 03-11-2020 00:00:00 11.8 C 9.79 g/m*3 11.8 C 1.6 km/h
578 03-11-2020 00:05:00 11.7 C 9.73 g/m*3 11.7 C 1.6 km/h
579 03-11-2020 00:10:00 11.7 C 9.73 g/m*3 11.7 C 3.2 km/h
580 03-11-2020 00:15:00 11.6 C 9.67 g/m*3 11.6 C 8.1 km/h
581 03-11-2020 00:20:00 11.4 C 9.55 g/m*3 11.4 C 4.8 km/h
582 03-11-2020 00:25:00 11.4 C 9.55 g/m*3 11.4 C 6.4 km/h
583 03-11-2020 00:30:00 11.3 C 9.49 g/m*3 11.3 C 3.2 km/h
584 03-11-2020 00:35:00 11.3 C 9.49 g/m*3 11.3 C 3.2 km/h
585 03-11-2020 00:40:00 11.3 C 9.49 g/m*3 11.3 C 14.5 km/h
586 03-11-2020 00:45:00 11.4 C 9.34 g/m*3 11.4 C 14.5 km/h
587 03-11-2020 00:50:00 11.5 C 9.3 g/m*3 11.5 C 11.3 km/h
588 03-11-2020 00:55:00 11.4 C 9.24 g/m*3 11.4 C 4.8 km/h
589 03-11-2020 01:00:00 11.4 C 9.14 g/m*3 11.4 C 9.7 km/h
590 03-11-2020 01:05:00 11.4 C 9.03 g/m*3 11.4 C 8.1 km/h
591 03-11-2020 01:10:00 11.4 C 9.03 g/m*3 11.4 C 6.4 km/h
592 03-11-2020 01:15:00 11.4 C 9.03 g/m*3 11.4 C 11.3 km/h
593 03-11-2020 01:20:00 11.4 C 9.03 g/m*3 11.4 C 8.1 km/h
594 03-11-2020 01:25:00 11.4 C 8.93 g/m*3 11.4 C 4.8 km/h
595 03-11-2020 01:30:00 11.4 C 8.93 g/m*3 11.4 C 4.8 km/h
596 03-11-2020 01:35:00 11.4 C 8.93 g/m*3 11.4 C 4.8 km/h
597 03-11-2020 01:40:00 11.4 C 8.93 g/m*3 11.4 C 3.2 km/h
598 03-11-2020 01:45:00 11.4 C 8.93 g/m*3 11.4 C 6.4 km/h
599 03-11-2020 01:50:00 11.3 C 8.87 g/m*3 11.3 C 6.4 km/h
600 03-11-2020 01:55:00 11.3 C 8.87 g/m*3 11.3 C 4.8 km/h
Sensor: Nr:Datum:Temp:Abs-Feuchte:Windchill:Wind:
Aussen-T/F 601 03-11-2020 02:00:00 11.3 C 8.87 g/m*3 11.3 C 4.8 km/h
602 03-11-2020 02:05:00 11.3 C 8.87 g/m*3 11.3 C 4.8 km/h
603 03-11-2020 02:10:00 11.3 C 8.87 g/m*3 11.3 C 1.6 km/h
604 03-11-2020 02:15:00 11.3 C 8.87 g/m*3 11.3 C 3.2 km/h
605 03-11-2020 02:20:00 11.3 C 8.87 g/m*3 11.3 C 3.2 km/h
606 03-11-2020 02:25:00 11.2 C 8.82 g/m*3 11.2 C 1.6 km/h
607 03-11-2020 02:30:00 11.2 C 8.82 g/m*3 11.2 C 6.4 km/h
608 03-11-2020 02:35:00 11.2 C 8.72 g/m*3 11.2 C 9.7 km/h
609 03-11-2020 02:40:00 11.3 C 8.77 g/m*3 11.3 C 8.1 km/h
610 03-11-2020 02:45:00 11.3 C 8.77 g/m*3 11.3 C 6.4 km/h
611 03-11-2020 02:50:00 11.3 C 8.77 g/m*3 11.3 C 1.6 km/h
612 03-11-2020 02:55:00 11.3 C 8.87 g/m*3 11.3 C 4.8 km/h
613 03-11-2020 03:00:00 11.3 C 8.77 g/m*3 11.3 C 4.8 km/h
614 03-11-2020 03:05:00 11.3 C 8.77 g/m*3 11.3 C 9.7 km/h
615 03-11-2020 03:10:00 11.4 C 8.72 g/m*3 11.4 C 8.1 km/h
616 03-11-2020 03:15:00 11.4 C 8.72 g/m*3 11.4 C 3.2 km/h
617 03-11-2020 03:20:00 11.4 C 8.72 g/m*3 11.4 C 9.7 km/h
618 03-11-2020 03:25:00 11.5 C 8.78 g/m*3 11.5 C 9.7 km/h
619 03-11-2020 03:30:00 11.6 C 8.73 g/m*3 11.6 C 6.4 km/h
620 03-11-2020 03:35:00 11.6 C 8.73 g/m*3 11.6 C 8.1 km/h
621 03-11-2020 03:40:00 11.6 C 8.73 g/m*3 11.6 C 4.8 km/h
622 03-11-2020 03:45:00 11.6 C 8.73 g/m*3 11.6 C 3.2 km/h
623 03-11-2020 03:50:00 11.6 C 8.83 g/m*3 11.6 C 4.8 km/h
624 03-11-2020 03:55:00 11.5 C 8.78 g/m*3 11.5 C 3.2 km/h
625 03-11-2020 04:00:00 11.4 C 8.72 g/m*3 11.4 C 3.2 km/h
Sensor: Nr:Datum:Temp:Abs-Feuchte:Windchill:Wind:
Aussen-T/F 626 03-11-2020 04:05:00 11.4 C 8.72 g/m*3 11.4 C 6.4 km/h
627 03-11-2020 04:10:00 11.4 C 8.72 g/m*3 11.4 C 8.1 km/h
628 03-11-2020 04:15:00 11.3 C 8.77 g/m*3 11.3 C 11.3 km/h
629 03-11-2020 04:20:00 11.3 C 8.77 g/m*3 11.3 C 11.3 km/h
630 03-11-2020 04:25:00 11.3 C 8.77 g/m*3 11.3 C 6.4 km/h
631 03-11-2020 04:30:00 11.3 C 8.67 g/m*3 11.3 C 6.4 km/h
632 03-11-2020 04:35:00 11.3 C 8.67 g/m*3 11.3 C 6.4 km/h
633 03-11-2020 04:40:00 11.3 C 8.67 g/m*3 11.3 C 4.8 km/h
634 03-11-2020 04:45:00 11.3 C 8.67 g/m*3 11.3 C 6.4 km/h
635 03-11-2020 04:50:00 11.3 C 8.67 g/m*3 11.3 C 1.6 km/h
636 03-11-2020 04:55:00 11.2 C 8.72 g/m*3 11.2 C 1.6 km/h
637 03-11-2020 05:00:00 11.2 C 8.72 g/m*3 11.2 C 3.2 km/h
638 03-11-2020 05:05:00 11.2 C 8.62 g/m*3 11.2 C 9.7 km/h
639 03-11-2020 05:10:00 11.1 C 8.66 g/m*3 11.1 C 0 km/h
640 03-11-2020 05:15:00 11.1 C 8.66 g/m*3 11.1 C 4.8 km/h
641 03-11-2020 05:20:00 11 C 8.61 g/m*3 11 C 3.2 km/h
642 03-11-2020 05:25:00 11 C 8.61 g/m*3 11 C 1.6 km/h
643 03-11-2020 05:30:00 10.9 C 8.55 g/m*3 10.9 C 3.2 km/h
644 03-11-2020 05:35:00 10.9 C 8.55 g/m*3 10.9 C 3.2 km/h
645 03-11-2020 05:40:00 10.9 C 8.55 g/m*3 10.9 C 1.6 km/h
646 03-11-2020 05:45:00 10.9 C 8.55 g/m*3 10.9 C 3.2 km/h
647 03-11-2020 05:50:00 10.9 C 8.55 g/m*3 10.9 C 4.8 km/h
648 03-11-2020 05:55:00 10.9 C 8.45 g/m*3 10.9 C 3.2 km/h
649 03-11-2020 06:00:00 10.8 C 8.4 g/m*3 10.8 C 1.6 km/h
650 03-11-2020 06:05:00 10.8 C 8.4 g/m*3 10.8 C 3.2 km/h
Sensor: Nr:Datum:Temp:Abs-Feuchte:Windchill:Wind:
Aussen-T/F 651 03-11-2020 06:10:00 10.8 C 8.4 g/m*3 10.8 C 4.8 km/h
652 03-11-2020 06:15:00 10.8 C 8.4 g/m*3 10.8 C 1.6 km/h
653 03-11-2020 06:20:00 10.8 C 8.4 g/m*3 10.8 C 4.8 km/h
654 03-11-2020 06:25:00 10.8 C 8.5 g/m*3 10.8 C 3.2 km/h
655 03-11-2020 06:30:00 10.7 C 8.35 g/m*3 10.7 C 1.6 km/h
656 03-11-2020 06:35:00 10.7 C 8.45 g/m*3 10.7 C 4.8 km/h
657 03-11-2020 06:40:00 10.7 C 8.45 g/m*3 10.7 C 1.6 km/h
658 03-11-2020 06:45:00 10.6 C 8.39 g/m*3 10.6 C 4.8 km/h
659 03-11-2020 06:50:00 10.6 C 8.39 g/m*3 10.06 C 6.4 km/h
660 03-11-2020 06:55:00 10.5 C 8.34 g/m*3 10.5 C 3.2 km/h
661 03-11-2020 07:00:00 10.5 C 8.34 g/m*3 10.5 C 4.8 km/h
662 03-11-2020 07:05:00 10.4 C 8.29 g/m*3 10.4 C 3.2 km/h
663 03-11-2020 07:10:00 10.4 C 8.29 g/m*3 9.46 C 8.1 km/h
664 03-11-2020 07:15:00 10.3 C 8.24 g/m*3 9.72 C 6.4 km/h
665 03-11-2020 07:20:00 10.3 C 8.24 g/m*3 9.04 C 9.7 km/h
666 03-11-2020 07:25:00 10.3 C 8.24 g/m*3 9.34 C 8.1 km/h
667 03-11-2020 07:30:00 10.3 C 8.33 g/m*3 9.72 C 6.4 km/h
668 03-11-2020 07:35:00 10.2 C 8.28 g/m*3 10.2 C 4.8 km/h
669 03-11-2020 07:40:00 10.2 C 8.18 g/m*3 10.2 C 4.8 km/h
670 03-11-2020 07:45:00 10.1 C 8.23 g/m*3 10.1 C 4.8 km/h
671 03-11-2020 07:50:00 10 C 8.17 g/m*3 10 C 4.8 km/h
672 03-11-2020 07:55:00 9.9 C 8.12 g/m*3 9.25 C 6.4 km/h
673 03-11-2020 08:00:00 9.8 C 8.16 g/m*3 9.14 C 6.4 km/h
674 03-11-2020 08:05:00 9.7 C 8.11 g/m*3 9.7 C 4.8 km/h
675 03-11-2020 08:10:00 9.7 C 8.11 g/m*3 9.7 C 3.2 km/h
Sensor: Nr:Datum:Temp:Abs-Feuchte:Windchill:Wind:
Aussen-T/F 676 03-11-2020 08:15:00 9.6 C 8.15 g/m*3 9.6 C 1.6 km/h
677 03-11-2020 08:20:00 9.5 C 8.1 g/m*3 9.5 C 4.8 km/h
678 03-11-2020 08:25:00 9.4 C 8.05 g/m*3 9.4 C 3.2 km/h
679 03-11-2020 08:30:00 9.4 C 8.05 g/m*3 9.4 C 0 km/h
680 03-11-2020 08:35:00 9.4 C 8.14 g/m*3 9.4 C 1.6 km/h
681 03-11-2020 08:40:00 9.3 C 8.09 g/m*3 9.3 C 1.6 km/h
682 03-11-2020 08:45:00 9.3 C 8.09 g/m*3 9.3 C 1.6 km/h
683 03-11-2020 08:50:00 9.3 C 8.09 g/m*3 9.3 C 3.2 km/h
684 03-11-2020 08:55:00 9.2 C 8.04 g/m*3 9.2 C 1.6 km/h
685 03-11-2020 09:00:00 9.2 C 8.13 g/m*3 9.2 C 4.8 km/h
686 03-11-2020 09:05:00 9.2 C 8.13 g/m*3 9.2 C 3.2 km/h
687 03-11-2020 09:10:00 9.2 C 8.13 g/m*3 9.2 C 1.6 km/h
688 03-11-2020 09:15:00 9.2 C 8.13 g/m*3 9.2 C 0 km/h
689 03-11-2020 09:20:00 9.1 C 8.07 g/m*3 9.1 C 0 km/h
690 03-11-2020 09:25:00 9.1 C 8.16 g/m*3 9.1 C 0 km/h
691 03-11-2020 09:30:00 9.1 C 8.16 g/m*3 9.1 C 4.8 km/h
692 03-11-2020 09:35:00 9.1 C 8.16 g/m*3 9.1 C 3.2 km/h
693 03-11-2020 09:40:00 9.1 C 8.16 g/m*3 9.1 C 1.6 km/h
694 03-11-2020 09:45:00 9.1 C 8.16 g/m*3 9.1 C 1.6 km/h
695 03-11-2020 09:50:00 9.1 C 8.16 g/m*3 9.1 C 3.2 km/h
696 03-11-2020 09:55:00 9.1 C 8.16 g/m*3 9.1 C 3.2 km/h
697 03-11-2020 10:00:00 9.2 C 8.22 g/m*3 9.2 C 1.6 km/h
698 03-11-2020 10:05:00 9.2 C 8.3 g/m*3 9.2 C 1.6 km/h
699 03-11-2020 10:10:00 9.3 C 8.36 g/m*3 9.3 C 1.6 km/h
700 03-11-2020 10:15:00 9.3 C 8.27 g/m*3 9.3 C 3.2 km/h
Sensor: Nr:Datum:Temp:Abs-Feuchte:Windchill:Wind:
Aussen-T/F 701 03-11-2020 10:20:00 9.4 C 8.32 g/m*3 9.4 C 1.6 km/h
702 03-11-2020 10:25:00 9.4 C 8.32 g/m*3 9.4 C 4.8 km/h
703 03-11-2020 10:30:00 9.5 C 8.37 g/m*3 9.5 C 4.8 km/h
704 03-11-2020 10:35:00 9.6 C 8.43 g/m*3 9.6 C 4.8 km/h
705 03-11-2020 10:40:00 9.7 C 8.48 g/m*3 9.02 C 6.4 km/h
706 03-11-2020 10:45:00 9.9 C 8.5 g/m*3 8.3 C 11.3 km/h
707 03-11-2020 10:50:00 10.1 C 8.51 g/m*3 8.54 C 11.3 km/h
708 03-11-2020 10:55:00 10.2 C 8.47 g/m*3 10.2 C 3.2 km/h
709 03-11-2020 11:00:00 10.3 C 8.52 g/m*3 10.3 C 3.2 km/h
710 03-11-2020 11:05:00 10.4 C 8.58 g/m*3 10.4 C 0 km/h
711 03-11-2020 11:10:00 10.4 C 8.48 g/m*3 10.4 C 0 km/h
712 03-11-2020 11:15:00 10.6 C 8.59 g/m*3 10.6 C 1.6 km/h
713 03-11-2020 11:20:00 10.8 C 8.6 g/m*3 9.93 C 8.1 km/h
714 03-11-2020 11:25:00 10.9 C 8.45 g/m*3 8.9 C 16.1 km/h
715 03-11-2020 11:30:00 11.1 C 8.56 g/m*3 11.1 C 16.1 km/h
716 03-11-2020 11:35:00 11.2 C 8.51 g/m*3 11.2 C 6.4 km/h
717 03-11-2020 11:40:00 11.3 C 8.47 g/m*3 11.3 C 9.7 km/h
718 03-11-2020 11:45:00 11.6 C 8.63 g/m*3 11.6 C 12.9 km/h
719 03-11-2020 11:50:00 11.7 C 8.58 g/m*3 11.7 C 11.3 km/h
720 03-11-2020 11:55:00 11.8 C 8.53 g/m*3 11.8 C 12.9 km/h
721 03-11-2020 12:00:00 11.8 C 8.53 g/m*3 11.8 C 8.1 km/h
722 03-11-2020 12:05:00 11.9 C 8.58 g/m*3 11.9 C 9.7 km/h
723 03-11-2020 12:10:00 12 C 8.53 g/m*3 12 C 11.3 km/h
724 03-11-2020 12:15:00 12 C 8.42 g/m*3 12 C 14.5 km/h
725 03-11-2020 12:20:00 12 C 8.53 g/m*3 12 C 14.5 km/h
Sensor: Nr:Datum:Temp:Abs-Feuchte:Windchill:Wind:
Aussen-T/F 726 03-11-2020 12:25:00 12.1 C 8.58 g/m*3 12.1 C 11.3 km/h
727 03-11-2020 12:30:00 12.1 C 8.58 g/m*3 12.1 C 9.7 km/h
728 03-11-2020 12:35:00 12.2 C 8.52 g/m*3 12.2 C 12.9 km/h
729 03-11-2020 12:40:00 12.2 C 8.52 g/m*3 12.2 C 11.3 km/h
730 03-11-2020 12:45:00 12.2 C 8.63 g/m*3 12.2 C 9.7 km/h
731 03-11-2020 12:50:00 12.3 C 8.58 g/m*3 12.3 C 9.7 km/h
732 03-11-2020 12:55:00 12.3 C 8.47 g/m*3 12.3 C 11.3 km/h
733 03-11-2020 13:00:00 12.4 C 8.63 g/m*3 12.4 C 9.7 km/h
734 03-11-2020 13:05:00 12.5 C 8.69 g/m*3 12.5 C 9.7 km/h
735 03-11-2020 13:10:00 12.6 C 8.63 g/m*3 12.6 C 9.7 km/h
736 03-11-2020 13:15:00 12.6 C 8.41 g/m*3 12.6 C 9.7 km/h
737 03-11-2020 13:20:00 12.6 C 8.52 g/m*3 12.6 C 6.4 km/h
738 03-11-2020 13:25:00 12.6 C 8.3 g/m*3 12.6 C 9.7 km/h
739 03-11-2020 13:30:00 12.6 C 8.41 g/m*3 12.6 C 9.7 km/h
740 03-11-2020 13:35:00 12.7 C 8.46 g/m*3 12.7 C 4.8 km/h
741 03-11-2020 13:40:00 12.7 C 8.24 g/m*3 12.7 C 9.7 km/h
742 03-11-2020 13:45:00 12.7 C 8.24 g/m*3 12.7 C 9.7 km/h
743 03-11-2020 13:50:00 12.7 C 8.24 g/m*3 12.7 C 9.7 km/h
744 03-11-2020 13:55:00 12.7 C 8.24 g/m*3 12.7 C 6.4 km/h
745 03-11-2020 14:00:00 12.7 C 8.24 g/m*3 12.7 C 8.1 km/h
746 03-11-2020 14:05:00 12.6 C 8.19 g/m*3 12.6 C 8.1 km/h
747 03-11-2020 14:10:00 12.7 C 8.35 g/m*3 12.7 C 3.2 km/h
748 03-11-2020 14:15:00 12.6 C 8.19 g/m*3 12.6 C 9.7 km/h
749 03-11-2020 14:20:00 12.6 C 8.19 g/m*3 12.6 C 8.1 km/h
750 03-11-2020 14:25:00 12.6 C 8.19 g/m*3 12.6 C 1.6 km/h
Sensor: Nr:Datum:Temp:Abs-Feuchte:Windchill:Wind:
Aussen-T/F 751 03-11-2020 14:30:00 12.6 C 8.08 g/m*3 12.6 C 8.1 km/h
752 03-11-2020 14:35:00 12.6 C 8.19 g/m*3 12.6 C 6.4 km/h
753 03-11-2020 14:40:00 12.6 C 8.08 g/m*3 12.6 C 9.7 km/h
754 03-11-2020 14:45:00 12.7 C 8.13 g/m*3 12.7 C 6.4 km/h
755 03-11-2020 14:50:00 12.8 C 8.18 g/m*3 12.8 C 4.8 km/h
756 03-11-2020 14:55:00 12.8 C 8.18 g/m*3 12.8 C 6.4 km/h
757 03-11-2020 15:00:00 12.9 C 8.23 g/m*3 12.9 C 6.4 km/h
758 03-11-2020 15:05:00 12.9 C 8.23 g/m*3 12.9 C 6.4 km/h
759 03-11-2020 15:10:00 12.9 C 8.11 g/m*3 12.9 C 11.3 km/h
760 03-11-2020 15:15:00 12.9 C 8.11 g/m*3 12.9 C 6.4 km/h
761 03-11-2020 15:20:00 12.9 C 8 g/m*3 12.9 C 9.7 km/h
762 03-11-2020 15:25:00 12.9 C 8 g/m*3 12.9 C 8.1 km/h
763 03-11-2020 15:30:00 12.9 C 8 g/m*3 12.9 C 8.1 km/h
764 03-11-2020 15:35:00 12.8 C 8.06 g/m*3 12.8 C 9.7 km/h
765 03-11-2020 15:40:00 12.7 C 8.01 g/m*3 12.7 C 12.9 km/h
766 03-11-2020 15:45:00 12.6 C 7.97 g/m*3 12.6 C 9.7 km/h
767 03-11-2020 15:50:00 12.5 C 8.03 g/m*3 12.5 C 11.3 km/h
768 03-11-2020 15:55:00 12.5 C 8.14 g/m*3 12.5 C 4.8 km/h
769 03-11-2020 16:00:00 12.6 C 7.97 g/m*3 12.6 C 6.4 km/h
770 03-11-2020 16:05:00 12.6 C 7.97 g/m*3 12.6 C 8.1 km/h
771 03-11-2020 16:10:00 12.5 C 7.92 g/m*3 12.5 C 6.4 km/h
772 03-11-2020 16:15:00 12.4 C 7.87 g/m*3 12.4 C 8.1 km/h
773 03-11-2020 16:20:00 12.3 C 7.93 g/m*3 12.3 C 4.8 km/h
774 03-11-2020 16:25:00 12.3 C 7.82 g/m*3 12.3 C 4.8 km/h
775 03-11-2020 16:30:00 12.3 C 8.04 g/m*3 12.3 C 0 km/h
Sensor: Nr:Datum:Temp:Abs-Feuchte:Windchill:Wind:
Aussen-T/F 776 03-11-2020 16:35:00 12.2 C 7.88 g/m*3 12.2 C 4.8 km/h
777 03-11-2020 16:40:00 12.2 C 7.99 g/m*3 12.2 C 0 km/h
778 03-11-2020 16:45:00 12.2 C 8.09 g/m*3 12.2 C 0 km/h
779 03-11-2020 16:50:00 12.2 C 7.88 g/m*3 12.2 C 4.8 km/h
780 03-11-2020 16:55:00 12.2 C 8.09 g/m*3 12.2 C 0 km/h
781 03-11-2020 17:00:00 12.1 C 8.15 g/m*3 12.1 C 1.6 km/h
782 03-11-2020 17:05:00 12 C 7.78 g/m*3 12 C 6.4 km/h
783 03-11-2020 17:10:00 11.9 C 7.84 g/m*3 11.9 C 1.6 km/h
784 03-11-2020 17:15:00 11.9 C 8.05 g/m*3 11.9 C 4.8 km/h
785 03-11-2020 17:20:00 11.8 C 8.1 g/m*3 11.8 C 3.2 km/h
786 03-11-2020 17:25:00 11.7 C 8.26 g/m*3 11.7 C 1.6 km/h
787 03-11-2020 17:30:00 11.6 C 8.32 g/m*3 11.6 C 3.2 km/h
788 03-11-2020 17:35:00 11.4 C 8.21 g/m*3 11.4 C 4.8 km/h
789 03-11-2020 17:40:00 11.3 C 8.26 g/m*3 11.3 C 3.2 km/h
790 03-11-2020 17:45:00 11.2 C 8.31 g/m*3 11.2 C 4.8 km/h
791 03-11-2020 17:50:00 11.1 C 8.16 g/m*3 11.1 C 4.8 km/h
792 03-11-2020 17:55:00 11.1 C 7.96 g/m*3 11.1 C 9.7 km/h
793 03-11-2020 18:00:00 11.3 C 8.06 g/m*3 11.3 C 6.4 km/h
794 03-11-2020 18:05:00 11.3 C 8.36 g/m*3 11.3 C 1.6 km/h
795 03-11-2020 18:10:00 11.3 C 8.47 g/m*3 11.3 C 12.9 km/h
796 03-11-2020 18:15:00 11.1 C 8.56 g/m*3 11.1 C 11.3 km/h
797 03-11-2020 18:20:00 10.9 C 8.55 g/m*3 10.41 C 6.4 km/h
798 03-11-2020 18:25:00 10.8 C 8.6 g/m*3 10.29 C 6.4 km/h
799 03-11-2020 18:30:00 10.6 C 8.59 g/m*3 10.6 C 4.8 km/h
800 03-11-2020 18:35:00 10.5 C 8.53 g/m*3 10.5 C 3.2 km/h
Sensor: Nr:Datum:Temp:Abs-Feuchte:Windchill:Wind:
Aussen-T/F 801 03-11-2020 18:40:00 10.4 C 8.58 g/m*3 10.4 C 4.8 km/h
802 03-11-2020 18:45:00 10.3 C 8.52 g/m*3 10.3 C 4.8 km/h
803 03-11-2020 18:50:00 10.2 C 8.47 g/m*3 10.2 C 4.8 km/h
804 03-11-2020 18:55:00 9.9 C 8.31 g/m*3 9.9 C 3.2 km/h
805 03-11-2020 19:00:00 9.8 C 8.35 g/m*3 8.75 C 8.1 km/h
806 03-11-2020 19:05:00 9.6 C 8.24 g/m*3 8.52 C 8.1 km/h
807 03-11-2020 19:10:00 9.4 C 8.14 g/m*3 8.28 C 8.1 km/h
808 03-11-2020 19:15:00 9.3 C 8.09 g/m*3 8.16 C 8.1 km/h
809 03-11-2020 19:20:00 9.2 C 8.04 g/m*3 9.2 C 4.8 km/h
810 03-11-2020 19:25:00 9.1 C 8.07 g/m*3 9.1 C 1.6 km/h
811 03-11-2020 19:30:00 9 C 8.02 g/m*3 9 C 3.2 km/h
812 03-11-2020 19:35:00 8.8 C 7.92 g/m*3 8.8 C 4.8 km/h
813 03-11-2020 19:40:00 8.7 C 7.87 g/m*3 8.7 C 3.2 km/h
814 03-11-2020 19:45:00 8.6 C 7.82 g/m*3 8.6 C 1.6 km/h
815 03-11-2020 19:50:00 8.4 C 7.72 g/m*3 8.4 C 3.2 km/h
816 03-11-2020 19:55:00 8.3 C 7.75 g/m*3 8.3 C 1.6 km/h
817 03-11-2020 20:00:00 8.3 C 7.75 g/m*3 8.3 C 0 km/h
818 03-11-2020 20:05:00 8.2 C 7.7 g/m*3 8.2 C 3.2 km/h
819 03-11-2020 20:10:00 8 C 7.61 g/m*3 8 C 3.2 km/h
820 03-11-2020 20:15:00 7.9 C 7.56 g/m*3 7.9 C 3.2 km/h
821 03-11-2020 20:20:00 7.7 C 7.46 g/m*3 7.7 C 3.2 km/h
822 03-11-2020 20:25:00 7.7 C 7.46 g/m*3 7.7 C 3.2 km/h
823 03-11-2020 20:30:00 7.6 C 7.49 g/m*3 7.6 C 4.8 km/h
824 03-11-2020 20:35:00 7.5 C 7.44 g/m*3 7.5 C 3.2 km/h
825 03-11-2020 20:40:00 7.4 C 7.4 g/m*3 7.4 C 1.6 km/h
Sensor: Nr:Datum:Temp:Abs-Feuchte:Windchill:Wind:
Aussen-T/F 826 03-11-2020 20:45:00 7.4 C 7.4 g/m*3 7.4 C 1.6 km/h
827 03-11-2020 20:50:00 7.3 C 7.35 g/m*3 7.3 C 1.6 km/h
828 03-11-2020 20:55:00 7.3 C 7.35 g/m*3 7.3 C 1.6 km/h
829 03-11-2020 21:00:00 7.2 C 7.3 g/m*3 7.2 C 0 km/h
830 03-11-2020 21:05:00 7.1 C 7.25 g/m*3 7.1 C 3.2 km/h
831 03-11-2020 21:10:00 7 C 7.21 g/m*3 7 C 3.2 km/h
832 03-11-2020 21:15:00 6.9 C 7.16 g/m*3 6.9 C 1.6 km/h
833 03-11-2020 21:20:00 6.8 C 7.19 g/m*3 6.8 C 3.2 km/h
834 03-11-2020 21:25:00 6.8 C 7.19 g/m*3 6.8 C 3.2 km/h
835 03-11-2020 21:30:00 6.7 C 7.14 g/m*3 6.7 C 1.6 km/h
836 03-11-2020 21:35:00 6.7 C 7.14 g/m*3 6.7 C 3.2 km/h
837 03-11-2020 21:40:00 6.7 C 7.14 g/m*3 6.7 C 3.2 km/h
838 03-11-2020 21:45:00 6.7 C 7.14 g/m*3 6.7 C 4.8 km/h
839 03-11-2020 21:50:00 6.8 C 7.19 g/m*3 6.8 C 4.8 km/h
840 03-11-2020 21:55:00 6.8 C 7.27 g/m*3 6.8 C 0 km/h
841 03-11-2020 22:00:00 6.8 C 7.19 g/m*3 6.8 C 0 km/h
842 03-11-2020 22:05:00 6.7 C 7.14 g/m*3 6.7 C 0 km/h
843 03-11-2020 22:10:00 6.6 C 7.1 g/m*3 6.6 C 3.2 km/h
844 03-11-2020 22:15:00 6.4 C 7 g/m*3 6.4 C 1.6 km/h
845 03-11-2020 22:20:00 6.3 C 6.96 g/m*3 6.3 C 0 km/h
846 03-11-2020 22:25:00 6.2 C 6.91 g/m*3 6.2 C 0 km/h
847 03-11-2020 22:30:00 6.1 C 6.87 g/m*3 6.1 C 3.2 km/h
848 03-11-2020 22:35:00 6.1 C 6.87 g/m*3 6.1 C 0 km/h
849 03-11-2020 22:40:00 6 C 6.82 g/m*3 6 C 1.6 km/h
850 03-11-2020 22:45:00 5.9 C 6.85 g/m*3 4.63 C 6.4 km/h
Sensor: Nr:Datum:Temp:Abs-Feuchte:Windchill:Wind:
Aussen-T/F 851 03-11-2020 22:50:00 5.9 C 6.85 g/m*3 4.63 C 6.4 km/h
852 03-11-2020 22:55:00 5.9 C 6.85 g/m*3 5.9 C 4.8 km/h
853 03-11-2020 23:00:00 5.9 C 6.85 g/m*3 5.9 C 0 km/h
854 03-11-2020 23:05:00 5.9 C 6.85 g/m*3 5.9 C 0 km/h
855 03-11-2020 23:10:00 5.9 C 6.85 g/m*3 5.9 C 0 km/h
856 03-11-2020 23:15:00 5.9 C 6.85 g/m*3 5.9 C 3.2 km/h
857 03-11-2020 23:20:00 6 C 6.9 g/m*3 6 C 3.2 km/h
858 03-11-2020 23:25:00 6 C 6.9 g/m*3 6 C 3.2 km/h
859 03-11-2020 23:30:00 6 C 6.9 g/m*3 6 C 0 km/h
860 03-11-2020 23:35:00 5.9 C 6.85 g/m*3 5.9 C 0 km/h
861 03-11-2020 23:40:00 5.9 C 6.85 g/m*3 5.9 C 0 km/h
862 03-11-2020 23:45:00 5.8 C 6.81 g/m*3 5.8 C 1.6 km/h
863 03-11-2020 23:50:00 5.7 C 6.76 g/m*3 5.7 C 0 km/h
864 03-11-2020 23:55:00 5.6 C 6.72 g/m*3 5.6 C 1.6 km/h
865 04-11-2020 00:00:00 5.4 C 6.63 g/m*3 5.4 C 3.2 km/h
866 04-11-2020 00:05:00 5.3 C 6.58 g/m*3 5.3 C 0 km/h
867 04-11-2020 00:10:00 5.3 C 6.58 g/m*3 5.3 C 0 km/h
868 04-11-2020 00:15:00 5.3 C 6.58 g/m*3 5.3 C 0 km/h
869 04-11-2020 00:20:00 5.2 C 6.54 g/m*3 5.2 C 3.2 km/h
870 04-11-2020 00:25:00 5.1 C 6.5 g/m*3 5.1 C 0 km/h
871 04-11-2020 00:30:00 5.1 C 6.5 g/m*3 5.1 C 0 km/h
872 04-11-2020 00:35:00 5 C 6.46 g/m*3 5 C 0 km/h
873 04-11-2020 00:40:00 4.9 C 6.41 g/m*3 4.9 C 0 km/h
874 04-11-2020 00:45:00 4.8 C 6.37 g/m*3 4.8 C 3.2 km/h
875 04-11-2020 00:50:00 4.8 C 6.37 g/m*3 4.8 C 3.2 km/h
Sensor: Nr:Datum:Temp:Abs-Feuchte:Windchill:Wind:
Aussen-T/F 876 04-11-2020 00:55:00 4.8 C 6.37 g/m*3 4.8 C 4.8 km/h
877 04-11-2020 01:00:00 4.8 C 6.37 g/m*3 4.8 C 0 km/h
878 04-11-2020 01:05:00 4.8 C 6.37 g/m*3 4.8 C 0 km/h
879 04-11-2020 01:10:00 4.8 C 6.37 g/m*3 4.8 C 0 km/h
880 04-11-2020 01:15:00 4.9 C 6.41 g/m*3 4.9 C 1.6 km/h
881 04-11-2020 01:20:00 4.9 C 6.41 g/m*3 4.9 C 4.8 km/h
882 04-11-2020 01:25:00 5 C 6.46 g/m*3 5 C 1.6 km/h
883 04-11-2020 01:30:00 5.1 C 6.57 g/m*3 5.1 C 3.2 km/h
884 04-11-2020 01:35:00 5.1 C 6.57 g/m*3 5.1 C 3.2 km/h
885 04-11-2020 01:40:00 5.2 C 6.61 g/m*3 5.2 C 3.2 km/h
886 04-11-2020 01:45:00 5.2 C 6.61 g/m*3 5.2 C 0 km/h
887 04-11-2020 01:50:00 5.3 C 6.65 g/m*3 5.3 C 0 km/h
888 04-11-2020 01:55:00 5.3 C 6.65 g/m*3 5.3 C 0 km/h
889 04-11-2020 02:00:00 5.4 C 6.7 g/m*3 4.06 C 6.4 km/h
890 04-11-2020 02:05:00 5.4 C 6.7 g/m*3 5.4 C 4.8 km/h
891 04-11-2020 02:10:00 5.4 C 6.7 g/m*3 5.4 C 3.2 km/h
892 04-11-2020 02:15:00 5.3 C 6.58 g/m*3 5.3 C 0 km/h
893 04-11-2020 02:20:00 5.1 C 6.5 g/m*3 5.1 C 1.6 km/h
894 04-11-2020 02:25:00 4.9 C 6.41 g/m*3 4.9 C 0 km/h
895 04-11-2020 02:30:00 4.8 C 6.37 g/m*3 4.8 C 0 km/h
896 04-11-2020 02:35:00 4.7 C 6.33 g/m*3 4.7 C 1.6 km/h
897 04-11-2020 02:40:00 4.7 C 6.33 g/m*3 4.7 C 3.2 km/h
898 04-11-2020 02:45:00 4.7 C 6.33 g/m*3 4.7 C 4.8 km/h
899 04-11-2020 02:50:00 4.7 C 6.39 g/m*3 4.7 C 0 km/h
900 04-11-2020 02:55:00 4.8 C 6.44 g/m*3 4.8 C 3.2 km/h
Sensor: Nr:Datum:Temp:Abs-Feuchte:Windchill:Wind:
Aussen-T/F 901 04-11-2020 03:00:00 4.7 C 6.39 g/m*3 4.7 C 0 km/h
902 04-11-2020 03:05:00 4.6 C 6.29 g/m*3 4.6 C 0 km/h
903 04-11-2020 03:10:00 4.5 C 6.24 g/m*3 4.5 C 1.6 km/h
904 04-11-2020 03:15:00 4.4 C 6.2 g/m*3 4.4 C 1.6 km/h
905 04-11-2020 03:20:00 4.3 C 6.16 g/m*3 4.3 C 3.2 km/h
906 04-11-2020 03:25:00 4.3 C 6.16 g/m*3 4.3 C 0 km/h
907 04-11-2020 03:30:00 4.2 C 6.12 g/m*3 4.2 C 3.2 km/h
908 04-11-2020 03:35:00 4.2 C 6.19 g/m*3 4.2 C 4.8 km/h
909 04-11-2020 03:40:00 4.2 C 6.19 g/m*3 4.2 C 1.6 km/h
910 04-11-2020 03:45:00 4.2 C 6.19 g/m*3 4.2 C 0 km/h
911 04-11-2020 03:50:00 4.2 C 6.19 g/m*3 4.2 C 0 km/h
912 04-11-2020 03:55:00 4.1 C 6.08 g/m*3 4.1 C 0 km/h
913 04-11-2020 04:00:00 3.9 C 6 g/m*3 3.9 C 0 km/h
914 04-11-2020 04:05:00 3.9 C 6 g/m*3 3.9 C 1.6 km/h
915 04-11-2020 04:10:00 4.1 C 6.14 g/m*3 4.1 C 0 km/h
916 04-11-2020 04:15:00 4 C 6.1 g/m*3 4 C 0 km/h
917 04-11-2020 04:20:00 3.9 C 6.06 g/m*3 3.9 C 0 km/h
918 04-11-2020 04:25:00 3.8 C 6.02 g/m*3 3.8 C 0 km/h
919 04-11-2020 04:30:00 3.6 C 5.88 g/m*3 3.6 C 0 km/h
920 04-11-2020 04:35:00 3.6 C 5.88 g/m*3 3.6 C 0 km/h
921 04-11-2020 04:40:00 3.6 C 5.94 g/m*3 3.6 C 0 km/h
922 04-11-2020 04:45:00 3.6 C 5.94 g/m*3 3.6 C 0 km/h
923 04-11-2020 04:50:00 3.5 C 5.9 g/m*3 3.5 C 1.6 km/h
924 04-11-2020 04:55:00 3.4 C 5.86 g/m*3 3.4 C 0 km/h
925 04-11-2020 05:00:00 3.3 C 5.76 g/m*3 3.3 C 0 km/h
Sensor: Nr:Datum:Temp:Abs-Feuchte:Windchill:Wind:
Aussen-T/F 926 04-11-2020 05:05:00 3.3 C 5.76 g/m*3 3.3 C 0 km/h
927 04-11-2020 05:10:00 3.3 C 5.82 g/m*3 3.3 C 0 km/h
928 04-11-2020 05:15:00 3.3 C 5.82 g/m*3 3.3 C 0 km/h
929 04-11-2020 05:20:00 3.3 C 5.82 g/m*3 3.3 C 0 km/h
930 04-11-2020 05:25:00 3.2 C 5.79 g/m*3 3.2 C 1.6 km/h
931 04-11-2020 05:30:00 3.1 C 5.75 g/m*3 3.1 C 1.6 km/h
932 04-11-2020 05:35:00 3.1 C 5.75 g/m*3 3.1 C 0 km/h
933 04-11-2020 05:40:00 3 C 5.71 g/m*3 3 C 0 km/h
934 04-11-2020 05:45:00 3 C 5.71 g/m*3 3 C 0 km/h
935 04-11-2020 05:50:00 2.9 C 5.67 g/m*3 2.9 C 1.6 km/h
936 04-11-2020 05:55:00 2.9 C 5.67 g/m*3 2.9 C 0 km/h
937 04-11-2020 06:00:00 2.8 C 5.63 g/m*3 2.8 C 3.2 km/h
938 04-11-2020 06:05:00 2.8 C 5.63 g/m*3 2.8 C 3.2 km/h
939 04-11-2020 06:10:00 2.9 C 5.67 g/m*3 2.9 C 0 km/h
940 04-11-2020 06:15:00 2.9 C 5.67 g/m*3 2.9 C 1.6 km/h
941 04-11-2020 06:20:00 2.9 C 5.67 g/m*3 2.9 C 0 km/h
942 04-11-2020 06:25:00 2.8 C 5.63 g/m*3 2.8 C 1.6 km/h
943 04-11-2020 06:30:00 2.8 C 5.63 g/m*3 2.8 C 0 km/h
944 04-11-2020 06:35:00 2.8 C 5.63 g/m*3 2.8 C 0 km/h
945 04-11-2020 06:40:00 2.8 C 5.63 g/m*3 2.8 C 0 km/h
946 04-11-2020 06:45:00 2.7 C 5.59 g/m*3 2.7 C 1.6 km/h
947 04-11-2020 06:50:00 2.7 C 5.59 g/m*3 2.7 C 3.2 km/h
948 04-11-2020 06:55:00 2.7 C 5.59 g/m*3 2.7 C 0 km/h
949 04-11-2020 07:00:00 2.8 C 5.63 g/m*3 2.8 C 0 km/h
950 04-11-2020 07:05:00 2.9 C 5.67 g/m*3 2.9 C 0 km/h
Sensor: Nr:Datum:Temp:Abs-Feuchte:Windchill:Wind:
Aussen-T/F 951 04-11-2020 07:10:00 2.8 C 5.63 g/m*3 2.8 C 0 km/h
952 04-11-2020 07:15:00 2.7 C 5.59 g/m*3 2.7 C 0 km/h
953 04-11-2020 07:20:00 2.6 C 5.56 g/m*3 2.6 C 0 km/h
954 04-11-2020 07:25:00 2.5 C 5.52 g/m*3 2.5 C 0 km/h
955 04-11-2020 07:30:00 2.4 C 5.48 g/m*3 2.4 C 0 km/h
956 04-11-2020 07:35:00 2.4 C 5.48 g/m*3 2.4 C 0 km/h
957 04-11-2020 07:40:00 2.3 C 5.44 g/m*3 2.3 C 0 km/h
958 04-11-2020 07:45:00 2.4 C 5.48 g/m*3 2.4 C 0 km/h
959 04-11-2020 07:50:00 2.4 C 5.48 g/m*3 2.4 C 0 km/h
960 04-11-2020 07:55:00 2.3 C 5.44 g/m*3 2.3 C 0 km/h
961 04-11-2020 08:00:00 2.3 C 5.44 g/m*3 2.3 C 0 km/h
962 04-11-2020 08:05:00 2.2 C 5.41 g/m*3 2.2 C 0 km/h
963 04-11-2020 08:10:00 2.2 C 5.41 g/m*3 2.2 C 0 km/h
964 04-11-2020 08:15:00 2.3 C 5.44 g/m*3 2.3 C 0 km/h
965 04-11-2020 08:20:00 2.4 C 5.48 g/m*3 2.4 C 0 km/h
966 04-11-2020 08:25:00 2.5 C 5.52 g/m*3 2.5 C 0 km/h
967 04-11-2020 08:30:00 2.6 C 5.56 g/m*3 2.6 C 0 km/h
968 04-11-2020 08:35:00 2.6 C 5.56 g/m*3 2.6 C 0 km/h
969 04-11-2020 08:40:00 2.6 C 5.56 g/m*3 2.6 C 0 km/h
970 04-11-2020 08:45:00 2.7 C 5.59 g/m*3 2.7 C 0 km/h
971 04-11-2020 08:50:00 2.8 C 5.69 g/m*3 2.8 C 0 km/h
972 04-11-2020 08:55:00 2.9 C 5.73 g/m*3 2.9 C 0 km/h
973 04-11-2020 09:00:00 2.9 C 5.67 g/m*3 2.9 C 0 km/h
974 04-11-2020 09:05:00 3 C 5.71 g/m*3 3 C 0 km/h
975 04-11-2020 09:10:00 3.1 C 5.75 g/m*3 3.1 C 0 km/h
Sensor: Nr:Datum:Temp:Abs-Feuchte:Windchill:Wind:
Aussen-T/F 976 04-11-2020 09:15:00 3.2 C 5.85 g/m*3 3.2 C 0 km/h
977 04-11-2020 09:20:00 3.2 C 5.85 g/m*3 3.2 C 0 km/h
978 04-11-2020 09:25:00 3.2 C 5.85 g/m*3 3.2 C 0 km/h
979 04-11-2020 09:30:00 3.2 C 5.85 g/m*3 3.2 C 0 km/h
980 04-11-2020 09:35:00 3.2 C 5.85 g/m*3 3.2 C 0 km/h
981 04-11-2020 09:40:00 3.2 C 5.85 g/m*3 3.2 C 0 km/h
982 04-11-2020 09:45:00 3.1 C 5.75 g/m*3 3.1 C 0 km/h
983 04-11-2020 09:50:00 3.1 C 5.75 g/m*3 3.1 C 0 km/h
984 04-11-2020 09:55:00 3.2 C 5.85 g/m*3 3.2 C 0 km/h
985 04-11-2020 10:00:00 3.2 C 5.85 g/m*3 3.2 C 0 km/h
986 04-11-2020 10:05:00 3.2 C 5.85 g/m*3 3.2 C 0 km/h
987 04-11-2020 10:10:00 3.3 C 5.82 g/m*3 3.3 C 0 km/h
988 04-11-2020 10:15:00 3.3 C 5.82 g/m*3 3.3 C 0 km/h
989 04-11-2020 10:20:00 3.3 C 5.82 g/m*3 3.3 C 0 km/h
990 04-11-2020 10:25:00 3.4 C 5.86 g/m*3 3.4 C 0 km/h
991 04-11-2020 10:30:00 3.5 C 5.96 g/m*3 3.5 C 0 km/h
992 04-11-2020 10:35:00 3.6 C 6 g/m*3 3.6 C 0 km/h
993 04-11-2020 10:40:00 3.7 C 6.04 g/m*3 3.7 C 0 km/h
994 04-11-2020 10:45:00 3.8 C 6.09 g/m*3 3.8 C 0 km/h
995 04-11-2020 10:50:00 3.9 C 6.13 g/m*3 3.9 C 0 km/h
996 04-11-2020 10:55:00 4.1 C 6.21 g/m*3 4.1 C 0 km/h
997 04-11-2020 11:00:00 4.2 C 6.25 g/m*3 4.2 C 0 km/h
998 04-11-2020 11:05:00 4.3 C 6.29 g/m*3 4.3 C 0 km/h
999 04-11-2020 11:10:00 4.4 C 6.33 g/m*3 4.4 C 0 km/h
1000 04-11-2020 11:15:00 4.5 C 6.38 g/m*3 4.5 C 0 km/h
Sensor: Nr:Datum:Temp:Abs-Feuchte:Windchill:Wind:
Aussen-T/F 1001 04-11-2020 11:20:00 4.6 C 6.42 g/m*3 4.6 C 0 km/h
1002 04-11-2020 11:25:00 4.8 C 6.5 g/m*3 4.8 C 0 km/h
1003 04-11-2020 11:30:00 4.9 C 6.55 g/m*3 4.9 C 0 km/h
1004 04-11-2020 11:35:00 5 C 6.59 g/m*3 5 C 0 km/h
1005 04-11-2020 11:40:00 5.1 C 6.63 g/m*3 5.1 C 0 km/h
1006 04-11-2020 11:45:00 5.2 C 6.68 g/m*3 5.2 C 0 km/h
1007 04-11-2020 11:50:00 5.3 C 6.72 g/m*3 5.3 C 0 km/h
1008 04-11-2020 11:55:00 5.4 C 6.77 g/m*3 5.4 C 0 km/h
1009 04-11-2020 12:00:00 5.5 C 6.81 g/m*3 5.5 C 0 km/h
1010 04-11-2020 12:05:00 5.6 C 6.86 g/m*3 5.6 C 0 km/h
1011 04-11-2020 12:10:00 5.7 C 6.9 g/m*3 5.7 C 0 km/h
1012 04-11-2020 12:15:00 5.8 C 6.95 g/m*3 5.8 C 0 km/h
1013 04-11-2020 12:20:00 5.8 C 6.95 g/m*3 5.8 C 0 km/h
1014 04-11-2020 12:25:00 5.9 C 6.99 g/m*3 5.9 C 0 km/h
1015 04-11-2020 12:30:00 5.9 C 6.99 g/m*3 5.9 C 0 km/h
1016 04-11-2020 12:35:00 6 C 7.04 g/m*3 6 C 0 km/h
1017 04-11-2020 12:40:00 6.1 C 7.09 g/m*3 6.1 C 0 km/h
1018 04-11-2020 12:45:00 6.2 C 7.13 g/m*3 6.2 C 0 km/h
1019 04-11-2020 12:50:00 6.2 C 7.13 g/m*3 6.2 C 0 km/h
1020 04-11-2020 12:55:00 6.3 C 7.18 g/m*3 6.3 C 4.8 km/h
1021 04-11-2020 13:00:00 6.3 C 7.18 g/m*3 6.3 C 3.2 km/h
1022 04-11-2020 13:05:00 6.3 C 7.18 g/m*3 6.3 C 4.8 km/h
1023 04-11-2020 13:10:00 6.4 C 7.23 g/m*3 6.4 C 3.2 km/h
1024 04-11-2020 13:15:00 6.4 C 7.23 g/m*3 6.4 C 1.6 km/h
1025 04-11-2020 13:20:00 6.5 C 7.27 g/m*3 6.5 C 3.2 km/h
Sensor: Nr:Datum:Temp:Abs-Feuchte:Windchill:Wind:
Aussen-T/F 1026 04-11-2020 13:25:00 6.6 C 7.32 g/m*3 6.6 C 3.2 km/h
1027 04-11-2020 13:30:00 6.7 C 7.37 g/m*3 6.7 C 4.8 km/h
1028 04-11-2020 13:35:00 6.8 C 7.42 g/m*3 6.8 C 4.8 km/h
1029 04-11-2020 13:40:00 6.9 C 7.47 g/m*3 6.9 C 4.8 km/h
1030 04-11-2020 13:45:00 7 C 7.52 g/m*3 7 C 1.6 km/h
1031 04-11-2020 13:50:00 7.1 C 7.57 g/m*3 7.1 C 0 km/h
1032 04-11-2020 13:55:00 7.2 C 7.61 g/m*3 7.2 C 4.8 km/h
1033 04-11-2020 14:00:00 7.2 C 7.61 g/m*3 7.2 C 3.2 km/h
1034 04-11-2020 14:05:00 7.3 C 7.66 g/m*3 7.3 C 0 km/h
1035 04-11-2020 14:10:00 7.4 C 7.71 g/m*3 7.4 C 1.6 km/h
1036 04-11-2020 14:15:00 7.5 C 7.76 g/m*3 7.5 C 1.6 km/h
1037 04-11-2020 14:20:00 7.7 C 7.87 g/m*3 7.7 C 0 km/h
1038 04-11-2020 14:25:00 7.8 C 7.92 g/m*3 7.8 C 0 km/h
1039 04-11-2020 14:30:00 7.8 C 7.92 g/m*3 7.8 C 3.2 km/h
1040 04-11-2020 14:35:00 7.8 C 7.92 g/m*3 7.8 C 3.2 km/h
1041 04-11-2020 14:40:00 7.8 C 7.92 g/m*3 7.8 C 3.2 km/h
1042 04-11-2020 14:45:00 7.8 C 7.92 g/m*3 7.8 C 1.6 km/h
1043 04-11-2020 14:50:00 7.8 C 7.83 g/m*3 7.8 C 3.2 km/h
1044 04-11-2020 14:55:00 7.8 C 7.83 g/m*3 7.8 C 1.6 km/h
1045 04-11-2020 15:00:00 7.8 C 7.83 g/m*3 7.8 C 3.2 km/h
1046 04-11-2020 15:05:00 7.9 C 7.89 g/m*3 7.9 C 1.6 km/h
1047 04-11-2020 15:10:00 7.9 C 7.8 g/m*3 7.9 C 4.8 km/h
1048 04-11-2020 15:15:00 8.1 C 7.82 g/m*3 8.1 C 4.8 km/h
1049 04-11-2020 15:20:00 8.3 C 7.84 g/m*3 8.3 C 0 km/h
1050 04-11-2020 15:25:00 8.4 C 7.89 g/m*3 8.4 C 0 km/h
Sensor: Nr:Datum:Temp:Abs-Feuchte:Windchill:Wind:
Aussen-T/F 1051 04-11-2020 15:30:00 8.4 C 7.89 g/m*3 8.4 C 3.2 km/h
1052 04-11-2020 15:35:00 8.3 C 7.75 g/m*3 8.3 C 1.6 km/h
1053 04-11-2020 15:40:00 8.3 C 7.75 g/m*3 8.3 C 1.6 km/h
1054 04-11-2020 15:45:00 8.3 C 7.75 g/m*3 8.3 C 3.2 km/h
1055 04-11-2020 15:50:00 8.2 C 7.7 g/m*3 8.2 C 4.8 km/h
1056 04-11-2020 15:55:00 8.1 C 7.66 g/m*3 8.1 C 0 km/h
1057 04-11-2020 16:00:00 8.1 C 7.66 g/m*3 8.1 C 4.8 km/h
1058 04-11-2020 16:05:00 8 C 7.61 g/m*3 8 C 3.2 km/h
1059 04-11-2020 16:10:00 7.9 C 7.56 g/m*3 7.9 C 1.6 km/h
1060 04-11-2020 16:15:00 7.9 C 7.56 g/m*3 7.9 C 1.6 km/h
1061 04-11-2020 16:20:00 7.8 C 7.51 g/m*3 7.8 C 3.2 km/h
1062 04-11-2020 16:25:00 7.7 C 7.46 g/m*3 7.7 C 3.2 km/h
1063 04-11-2020 16:30:00 7.6 C 7.33 g/m*3 7.6 C 4.8 km/h
1064 04-11-2020 16:35:00 7.4 C 7.24 g/m*3 7.4 C 1.6 km/h
1065 04-11-2020 16:40:00 7.3 C 7.19 g/m*3 7.3 C 3.2 km/h
1066 04-11-2020 16:45:00 7.2 C 7.14 g/m*3 7.2 C 3.2 km/h
1067 04-11-2020 16:50:00 7.1 C 7.1 g/m*3 7.1 C 4.8 km/h
1068 04-11-2020 16:55:00 7 C 7.13 g/m*3 7 C 4.8 km/h
1069 04-11-2020 17:00:00 6.9 C 7.08 g/m*3 6.9 C 1.6 km/h
1070 04-11-2020 17:05:00 6.8 C 7.04 g/m*3 6.8 C 1.6 km/h
1071 04-11-2020 17:10:00 6.8 C 6.96 g/m*3 6.8 C 0 km/h
1072 04-11-2020 17:15:00 6.7 C 6.91 g/m*3 6.7 C 0 km/h
1073 04-11-2020 17:20:00 6.6 C 6.95 g/m*3 6.6 C 0 km/h
1074 04-11-2020 17:25:00 6.4 C 6.78 g/m*3 6.4 C 0 km/h
1075 04-11-2020 17:30:00 6.3 C 6.81 g/m*3 6.3 C 0 km/h
Sensor: Nr:Datum:Temp:Abs-Feuchte:Windchill:Wind:
Aussen-T/F 1076 04-11-2020 17:35:00 6.2 C 6.77 g/m*3 6.2 C 0 km/h
1077 04-11-2020 17:40:00 6.1 C 6.72 g/m*3 6.1 C 0 km/h
1078 04-11-2020 17:45:00 6 C 6.68 g/m*3 6 C 1.6 km/h
1079 04-11-2020 17:50:00 5.9 C 6.63 g/m*3 5.9 C 0 km/h
1080 04-11-2020 17:55:00 5.8 C 6.59 g/m*3 5.8 C 3.2 km/h
1081 04-11-2020 18:00:00 5.7 C 6.55 g/m*3 5.7 C 0 km/h
1082 04-11-2020 18:05:00 5.7 C 6.55 g/m*3 5.7 C 0 km/h
1083 04-11-2020 18:10:00 5.6 C 6.5 g/m*3 5.6 C 0 km/h
1084 04-11-2020 18:15:00 5.4 C 6.42 g/m*3 5.4 C 0 km/h
1085 04-11-2020 18:20:00 5.3 C 6.38 g/m*3 5.3 C 0 km/h
1086 04-11-2020 18:25:00 5.3 C 6.45 g/m*3 5.3 C 1.6 km/h
1087 04-11-2020 18:30:00 5.2 C 6.4 g/m*3 5.2 C 0 km/h
1088 04-11-2020 18:35:00 5.2 C 6.4 g/m*3 5.2 C 1.6 km/h
1089 04-11-2020 18:40:00 5.1 C 6.36 g/m*3 5.1 C 0 km/h
1090 04-11-2020 18:45:00 5.1 C 6.36 g/m*3 5.1 C 0 km/h
1091 04-11-2020 18:50:00 4.9 C 6.28 g/m*3 4.9 C 0 km/h
1092 04-11-2020 18:55:00 4.9 C 6.28 g/m*3 4.9 C 0 km/h
1093 04-11-2020 19:00:00 4.9 C 6.28 g/m*3 4.9 C 0 km/h
1094 04-11-2020 19:05:00 4.9 C 6.28 g/m*3 4.9 C 0 km/h
1095 04-11-2020 19:10:00 4.8 C 6.3 g/m*3 4.8 C 0 km/h
1096 04-11-2020 19:15:00 4.7 C 6.26 g/m*3 4.7 C 0 km/h
1097 04-11-2020 19:20:00 4.6 C 6.22 g/m*3 4.6 C 0 km/h
1098 04-11-2020 19:25:00 4.6 C 6.22 g/m*3 4.6 C 0 km/h
1099 04-11-2020 19:30:00 4.4 C 6.07 g/m*3 4.4 C 0 km/h
1100 04-11-2020 19:35:00 4.3 C 6.1 g/m*3 4.3 C 0 km/h
Sensor: Nr:Datum:Temp:Abs-Feuchte:Windchill:Wind:
Aussen-T/F 1101 04-11-2020 19:40:00 4.2 C 5.99 g/m*3 4.2 C 0 km/h
1102 04-11-2020 19:45:00 4.1 C 6.02 g/m*3 4.1 C 0 km/h
1103 04-11-2020 19:50:00 4 C 5.98 g/m*3 4 C 0 km/h
1104 04-11-2020 19:55:00 3.9 C 5.94 g/m*3 3.9 C 0 km/h
1105 04-11-2020 20:00:00 3.8 C 5.9 g/m*3 3.8 C 0 km/h
1106 04-11-2020 20:05:00 3.8 C 5.9 g/m*3 3.8 C 0 km/h
1107 04-11-2020 20:10:00 3.7 C 5.86 g/m*3 3.7 C 0 km/h
1108 04-11-2020 20:15:00 3.7 C 5.86 g/m*3 3.7 C 0 km/h
1109 04-11-2020 20:20:00 3.7 C 5.86 g/m*3 3.7 C 0 km/h
1110 04-11-2020 20:25:00 3.6 C 5.82 g/m*3 3.6 C 0 km/h
1111 04-11-2020 20:30:00 3.6 C 5.82 g/m*3 3.6 C 0 km/h
1112 04-11-2020 20:35:00 3.5 C 5.78 g/m*3 3.5 C 0 km/h
1113 04-11-2020 20:40:00 3.4 C 5.74 g/m*3 3.4 C 0 km/h
1114 04-11-2020 20:45:00 3.4 C 5.8 g/m*3 3.4 C 0 km/h
1115 04-11-2020 20:50:00 3.4 C 5.8 g/m*3 3.4 C 0 km/h
1116 04-11-2020 20:55:00 3.3 C 5.76 g/m*3 3.3 C 0 km/h
1117 04-11-2020 21:00:00 3.3 C 5.76 g/m*3 3.3 C 0 km/h
1118 04-11-2020 21:05:00 3.3 C 5.76 g/m*3 3.3 C 0 km/h
1119 04-11-2020 21:10:00 3.2 C 5.72 g/m*3 3.2 C 0 km/h
1120 04-11-2020 21:15:00 3.1 C 5.69 g/m*3 3.1 C 0 km/h
1121 04-11-2020 21:20:00 3.1 C 5.69 g/m*3 3.1 C 0 km/h
1122 04-11-2020 21:25:00 3 C 5.65 g/m*3 3 C 0 km/h
1123 04-11-2020 21:30:00 2.9 C 5.61 g/m*3 2.9 C 0 km/h
1124 04-11-2020 21:35:00 2.9 C 5.61 g/m*3 2.9 C 0 km/h
1125 04-11-2020 21:40:00 2.9 C 5.61 g/m*3 2.9 C 0 km/h
Sensor: Nr:Datum:Temp:Abs-Feuchte:Windchill:Wind:
Aussen-T/F 1126 04-11-2020 21:45:00 3 C 5.65 g/m*3 3 C 0 km/h
1127 04-11-2020 21:50:00 2.9 C 5.61 g/m*3 2.9 C 0 km/h
1128 04-11-2020 21:55:00 2.9 C 5.61 g/m*3 2.9 C 0 km/h
1129 04-11-2020 22:00:00 2.8 C 5.57 g/m*3 2.8 C 0 km/h
1130 04-11-2020 22:05:00 2.8 C 5.57 g/m*3 2.8 C 0 km/h
1131 04-11-2020 22:10:00 2.7 C 5.54 g/m*3 2.7 C 0 km/h
1132 04-11-2020 22:15:00 2.7 C 5.54 g/m*3 2.7 C 0 km/h
1133 04-11-2020 22:20:00 2.6 C 5.5 g/m*3 2.6 C 0 km/h
1134 04-11-2020 22:25:00 2.6 C 5.5 g/m*3 2.6 C 0 km/h
1135 04-11-2020 22:30:00 2.6 C 5.5 g/m*3 2.6 C 0 km/h
1136 04-11-2020 22:35:00 2.5 C 5.46 g/m*3 2.5 C 0 km/h
1137 04-11-2020 22:40:00 2.5 C 5.46 g/m*3 2.5 C 0 km/h
1138 04-11-2020 22:45:00 2.4 C 5.42 g/m*3 2.4 C 0 km/h
1139 04-11-2020 22:50:00 2.3 C 5.39 g/m*3 2.3 C 0 km/h
1140 04-11-2020 22:55:00 2.3 C 5.39 g/m*3 2.3 C 0 km/h
1141 04-11-2020 23:00:00 2.3 C 5.39 g/m*3 2.3 C 0 km/h
1142 04-11-2020 23:05:00 2.2 C 5.35 g/m*3 2.2 C 0 km/h
1143 04-11-2020 23:10:00 2.2 C 5.35 g/m*3 2.2 C 0 km/h
1144 04-11-2020 23:15:00 2.2 C 5.35 g/m*3 2.2 C 0 km/h
1145 04-11-2020 23:20:00 2.1 C 5.31 g/m*3 2.1 C 0 km/h
1146 04-11-2020 23:25:00 2.1 C 5.31 g/m*3 2.1 C 0 km/h
1147 04-11-2020 23:30:00 2.1 C 5.37 g/m*3 2.1 C 0 km/h
1148 04-11-2020 23:35:00 2.1 C 5.31 g/m*3 2.1 C 0 km/h
1149 04-11-2020 23:40:00 2.2 C 5.41 g/m*3 2.2 C 0 km/h
1150 04-11-2020 23:45:00 2.1 C 5.37 g/m*3 2.1 C 0 km/h
Sensor: Nr:Datum:Temp:Abs-Feuchte:Windchill:Wind:
Aussen-T/F 1151 04-11-2020 23:50:00 2.1 C 5.37 g/m*3 2.1 C 0 km/h
1152 04-11-2020 23:55:00 2.1 C 5.37 g/m*3 2.1 C 0 km/h
1153 05-11-2020 00:00:00 2 C 5.33 g/m*3 2 C 0 km/h
1154 05-11-2020 00:05:00 1.9 C 5.3 g/m*3 1.9 C 0 km/h
1155 05-11-2020 00:10:00 1.8 C 5.21 g/m*3 1.8 C 0 km/h
1156 05-11-2020 00:15:00 1.8 C 5.21 g/m*3 1.8 C 0 km/h
1157 05-11-2020 00:20:00 1.8 C 5.26 g/m*3 1.8 C 0 km/h
1158 05-11-2020 00:25:00 1.8 C 5.26 g/m*3 1.8 C 0 km/h
1159 05-11-2020 00:30:00 1.7 C 5.23 g/m*3 1.7 C 0 km/h
1160 05-11-2020 00:35:00 1.7 C 5.23 g/m*3 1.7 C 0 km/h
1161 05-11-2020 00:40:00 1.7 C 5.23 g/m*3 1.7 C 0 km/h
1162 05-11-2020 00:45:00 1.7 C 5.23 g/m*3 1.7 C 0 km/h
1163 05-11-2020 00:50:00 1.7 C 5.23 g/m*3 1.7 C 0 km/h
1164 05-11-2020 00:55:00 1.7 C 5.23 g/m*3 1.7 C 0 km/h
1165 05-11-2020 01:00:00 1.7 C 5.23 g/m*3 1.7 C 0 km/h
1166 05-11-2020 01:05:00 1.6 C 5.19 g/m*3 1.6 C 0 km/h
1167 05-11-2020 01:10:00 1.6 C 5.19 g/m*3 1.6 C 0 km/h
1168 05-11-2020 01:15:00 1.5 C 5.16 g/m*3 1.5 C 0 km/h
1169 05-11-2020 01:20:00 1.5 C 5.16 g/m*3 1.5 C 0 km/h
1170 05-11-2020 01:25:00 1.6 C 5.19 g/m*3 1.6 C 1.6 km/h
1171 05-11-2020 01:30:00 1.7 C 5.23 g/m*3 1.7 C 1.6 km/h
1172 05-11-2020 01:35:00 1.8 C 5.26 g/m*3 1.8 C 0 km/h
1173 05-11-2020 01:40:00 1.9 C 5.3 g/m*3 1.9 C 0 km/h
1174 05-11-2020 01:45:00 2 C 5.33 g/m*3 2 C 0 km/h
1175 05-11-2020 01:50:00 2.1 C 5.37 g/m*3 2.1 C 0 km/h
Sensor: Nr:Datum:Temp:Abs-Feuchte:Windchill:Wind:
Aussen-T/F 1176 05-11-2020 01:55:00 2.1 C 5.37 g/m*3 2.1 C 3.2 km/h
1177 05-11-2020 02:00:00 2.2 C 5.41 g/m*3 2.2 C 3.2 km/h
1178 05-11-2020 02:05:00 2.2 C 5.41 g/m*3 2.2 C 0 km/h
1179 05-11-2020 02:10:00 2.2 C 5.41 g/m*3 2.2 C 0 km/h
1180 05-11-2020 02:15:00 2.2 C 5.41 g/m*3 2.2 C 0 km/h
1181 05-11-2020 02:20:00 2.2 C 5.41 g/m*3 2.2 C 0 km/h
1182 05-11-2020 02:25:00 2.2 C 5.41 g/m*3 2.2 C 0 km/h
1183 05-11-2020 02:30:00 2.2 C 5.41 g/m*3 2.2 C 0 km/h
1184 05-11-2020 02:35:00 2.2 C 5.41 g/m*3 2.2 C 0 km/h
1185 05-11-2020 02:40:00 2.2 C 5.41 g/m*3 2.2 C 0 km/h
1186 05-11-2020 02:45:00 2.2 C 5.41 g/m*3 2.2 C 1.6 km/h
1187 05-11-2020 02:50:00 2.2 C 5.41 g/m*3 2.2 C 0 km/h
1188 05-11-2020 02:55:00 2.2 C 5.41 g/m*3 2.2 C 0 km/h
1189 05-11-2020 03:00:00 2.2 C 5.41 g/m*3 2.2 C 1.6 km/h
1190 05-11-2020 03:05:00 2.2 C 5.41 g/m*3 2.2 C 0 km/h
1191 05-11-2020 03:10:00 2.2 C 5.41 g/m*3 2.2 C 1.6 km/h
1192 05-11-2020 03:15:00 2.1 C 5.37 g/m*3 2.1 C 0 km/h
1193 05-11-2020 03:20:00 2.1 C 5.37 g/m*3 2.1 C 0 km/h
1194 05-11-2020 03:25:00 2.1 C 5.37 g/m*3 2.1 C 0 km/h
1195 05-11-2020 03:30:00 2.1 C 5.37 g/m*3 2.1 C 0 km/h
1196 05-11-2020 03:35:00 2.1 C 5.37 g/m*3 2.1 C 0 km/h
1197 05-11-2020 03:40:00 2.1 C 5.37 g/m*3 2.1 C 0 km/h
1198 05-11-2020 03:45:00 2.1 C 5.37 g/m*3 2.1 C 0 km/h
1199 05-11-2020 03:50:00 2 C 5.33 g/m*3 2 C 0 km/h
1200 05-11-2020 03:55:00 2 C 5.33 g/m*3 2 C 0 km/h
Sensor: Nr:Datum:Temp:Abs-Feuchte:Windchill:Wind:
Aussen-T/F 1201 05-11-2020 04:00:00 2 C 5.33 g/m*3 2 C 0 km/h
1202 05-11-2020 04:05:00 2 C 5.33 g/m*3 2 C 0 km/h
1203 05-11-2020 04:10:00 2 C 5.33 g/m*3 2 C 0 km/h
1204 05-11-2020 04:15:00 2.1 C 5.37 g/m*3 2.1 C 0 km/h
1205 05-11-2020 04:20:00 2 C 5.33 g/m*3 2 C 0 km/h
1206 05-11-2020 04:25:00 2.1 C 5.37 g/m*3 2.1 C 0 km/h
1207 05-11-2020 04:30:00 2.1 C 5.43 g/m*3 2.1 C 0 km/h
1208 05-11-2020 04:35:00 2.1 C 5.43 g/m*3 2.1 C 0 km/h
1209 05-11-2020 04:40:00 2.1 C 5.43 g/m*3 2.1 C 0 km/h
1210 05-11-2020 04:45:00 2.2 C 5.46 g/m*3 2.2 C 0 km/h
1211 05-11-2020 04:50:00 2.2 C 5.46 g/m*3 2.2 C 0 km/h
1212 05-11-2020 04:55:00 2.2 C 5.46 g/m*3 2.2 C 0 km/h
1213 05-11-2020 05:00:00 2.2 C 5.46 g/m*3 2.2 C 0 km/h
1214 05-11-2020 05:05:00 2.2 C 5.46 g/m*3 2.2 C 0 km/h
1215 05-11-2020 05:10:00 2.2 C 5.46 g/m*3 2.2 C 0 km/h
1216 05-11-2020 05:15:00 2.3 C 5.5 g/m*3 2.3 C 0 km/h
1217 05-11-2020 05:20:00 2.2 C 5.46 g/m*3 2.2 C 0 km/h
1218 05-11-2020 05:25:00 2.2 C 5.46 g/m*3 2.2 C 0 km/h
1219 05-11-2020 05:30:00 2.2 C 5.46 g/m*3 2.2 C 0 km/h
1220 05-11-2020 05:35:00 2.2 C 5.46 g/m*3 2.2 C 0 km/h
1221 05-11-2020 05:40:00 2.3 C 5.5 g/m*3 2.3 C 0 km/h
1222 05-11-2020 05:45:00 2.3 C 5.5 g/m*3 2.3 C 0 km/h
1223 05-11-2020 05:50:00 2.3 C 5.5 g/m*3 2.3 C 0 km/h
1224 05-11-2020 05:55:00 2.3 C 5.5 g/m*3 2.3 C 0 km/h
1225 05-11-2020 06:00:00 2.3 C 5.5 g/m*3 2.3 C 0 km/h
Sensor: Nr:Datum:Temp:Abs-Feuchte:Windchill:Wind:
Aussen-T/F 1226 05-11-2020 06:05:00 2.3 C 5.5 g/m*3 2.3 C 0 km/h
1227 05-11-2020 06:10:00 2.3 C 5.5 g/m*3 2.3 C 0 km/h
1228 05-11-2020 06:15:00 2.3 C 5.5 g/m*3 2.3 C 0 km/h
1229 05-11-2020 06:20:00 2.3 C 5.5 g/m*3 2.3 C 0 km/h
1230 05-11-2020 06:25:00 2.3 C 5.5 g/m*3 2.3 C 0 km/h
1231 05-11-2020 06:30:00 2.3 C 5.5 g/m*3 2.3 C 0 km/h
1232 05-11-2020 06:35:00 2.3 C 5.5 g/m*3 2.3 C 0 km/h
1233 05-11-2020 06:40:00 2.3 C 5.5 g/m*3 2.3 C 0 km/h
1234 05-11-2020 06:45:00 2.3 C 5.5 g/m*3 2.3 C 0 km/h
1235 05-11-2020 06:50:00 2.3 C 5.5 g/m*3 2.3 C 0 km/h
1236 05-11-2020 06:55:00 2.3 C 5.5 g/m*3 2.3 C 0 km/h
1237 05-11-2020 07:00:00 2.2 C 5.46 g/m*3 2.2 C 0 km/h
1238 05-11-2020 07:05:00 2.2 C 5.46 g/m*3 2.2 C 0 km/h
1239 05-11-2020 07:10:00 2.2 C 5.46 g/m*3 2.2 C 0 km/h
1240 05-11-2020 07:15:00 2.2 C 5.46 g/m*3 2.2 C 0 km/h
1241 05-11-2020 07:20:00 2.2 C 5.46 g/m*3 2.2 C 0 km/h
1242 05-11-2020 07:25:00 2.3 C 5.5 g/m*3 2.3 C 0 km/h
1243 05-11-2020 07:30:00 2.3 C 5.5 g/m*3 2.3 C 0 km/h
1244 05-11-2020 07:35:00 2.3 C 5.5 g/m*3 2.3 C 0 km/h
1245 05-11-2020 07:40:00 2.3 C 5.5 g/m*3 2.3 C 0 km/h
1246 05-11-2020 07:55:00 3.6 C 6 g/m*3 3.6 C 4.8 km/h
1247 05-11-2020 12:10:00 3.6 C 6 g/m*3 3.6 C 1.6 km/h
1248 05-11-2020 12:15:00 3.6 C 6 g/m*3 3.6 C 0 km/h
1249 05-11-2020 12:20:00 3.7 C 6.04 g/m*3 3.7 C 1.6 km/h
1250 05-11-2020 12:25:00 3.8 C 6.09 g/m*3 3.8 C 3.2 km/h
Sensor: Nr:Datum:Temp:Abs-Feuchte:Windchill:Wind:
Aussen-T/F 1251 05-11-2020 12:30:00 3.8 C 6.09 g/m*3 2.21 C 6.4 km/h
1252 05-11-2020 12:35:00 3.7 C 6.04 g/m*3 3.7 C 4.8 km/h
1253 05-11-2020 12:40:00 3.8 C 6.09 g/m*3 2.21 C 6.4 km/h
1254 05-11-2020 12:45:00 3.8 C 6.09 g/m*3 3.8 C 4.8 km/h
1255 05-11-2020 12:50:00 3.9 C 6.13 g/m*3 3.9 C 3.2 km/h
1256 05-11-2020 12:55:00 3.9 C 6.13 g/m*3 3.9 C 1.6 km/h
1257 05-11-2020 13:00:00 4 C 6.17 g/m*3 4 C 0 km/h
1258 05-11-2020 13:05:00 4 C 6.17 g/m*3 4 C 3.2 km/h
1259 05-11-2020 13:10:00 4 C 6.17 g/m*3 4 C 1.6 km/h
1260 05-11-2020 13:15:00 4.1 C 6.21 g/m*3 4.1 C 0 km/h
1261 05-11-2020 13:20:00 4.2 C 6.25 g/m*3 4.2 C 3.2 km/h
1262 05-11-2020 13:25:00 4.2 C 6.25 g/m*3 4.2 C 3.2 km/h
1263 05-11-2020 13:30:00 4.3 C 6.29 g/m*3 4.3 C 3.2 km/h
1264 05-11-2020 13:35:00 4.3 C 6.29 g/m*3 4.3 C 3.2 km/h
1265 05-11-2020 13:40:00 4.3 C 6.29 g/m*3 4.3 C 4.8 km/h
1266 05-11-2020 13:45:00 4.3 C 6.29 g/m*3 4.3 C 3.2 km/h
1267 05-11-2020 13:50:00 4.3 C 6.29 g/m*3 4.3 C 4.8 km/h
1268 05-11-2020 13:55:00 4.3 C 6.29 g/m*3 4.3 C 1.6 km/h
1269 05-11-2020 14:00:00 4.2 C 6.25 g/m*3 4.2 C 4.8 km/h
1270 05-11-2020 14:05:00 4.1 C 6.21 g/m*3 4.1 C 3.2 km/h
1271 05-11-2020 14:10:00 4.1 C 6.21 g/m*3 4.1 C 0 km/h
1272 05-11-2020 14:15:00 4.1 C 6.21 g/m*3 4.1 C 3.2 km/h
1273 05-11-2020 14:20:00 4.1 C 6.21 g/m*3 4.1 C 3.2 km/h
1274 05-11-2020 14:25:00 4.2 C 6.25 g/m*3 4.2 C 3.2 km/h
1275 05-11-2020 14:30:00 4.2 C 6.25 g/m*3 4.2 C 1.6 km/h
Sensor: Nr:Datum:Temp:Abs-Feuchte:Windchill:Wind:
Aussen-T/F 1276 05-11-2020 14:35:00 4.3 C 6.29 g/m*3 4.3 C 4.8 km/h
1277 05-11-2020 14:40:00 4.3 C 6.29 g/m*3 4.3 C 3.2 km/h
1278 05-11-2020 14:45:00 4.2 C 6.25 g/m*3 4.2 C 4.8 km/h
1279 05-11-2020 14:50:00 4.3 C 6.29 g/m*3 4.3 C 3.2 km/h
1280 05-11-2020 14:55:00 4.3 C 6.29 g/m*3 4.3 C 0 km/h
1281 05-11-2020 15:00:00 4.3 C 6.36 g/m*3 4.3 C 3.2 km/h
1282 05-11-2020 15:05:00 4.3 C 6.36 g/m*3 4.3 C 3.2 km/h
1283 05-11-2020 15:10:00 4.4 C 6.4 g/m*3 4.4 C 0 km/h
1284 05-11-2020 15:15:00 4.5 C 6.44 g/m*3 4.5 C 3.2 km/h
1285 05-11-2020 15:20:00 4.6 C 6.42 g/m*3 4.6 C 1.6 km/h
1286 05-11-2020 15:25:00 4.5 C 6.38 g/m*3 4.5 C 4.8 km/h
1287 05-11-2020 15:30:00 4.5 C 6.38 g/m*3 4.5 C 0 km/h
1288 05-11-2020 15:35:00 4.5 C 6.38 g/m*3 4.5 C 4.8 km/h
1289 05-11-2020 15:40:00 4.4 C 6.33 g/m*3 4.4 C 3.2 km/h
1290 05-11-2020 15:45:00 4.4 C 6.33 g/m*3 4.4 C 0 km/h
1291 05-11-2020 15:50:00 4.4 C 6.33 g/m*3 4.4 C 0 km/h
1292 05-11-2020 15:55:00 4.4 C 6.33 g/m*3 4.4 C 0 km/h
1293 05-11-2020 16:00:00 4.5 C 6.38 g/m*3 4.5 C 0 km/h
1294 05-11-2020 16:05:00 4.5 C 6.38 g/m*3 4.5 C 0 km/h
1295 05-11-2020 16:10:00 4.4 C 6.33 g/m*3 4.4 C 0 km/h
1296 05-11-2020 16:15:00 4.4 C 6.33 g/m*3 4.4 C 0 km/h
1297 05-11-2020 16:20:00 4.4 C 6.33 g/m*3 4.4 C 0 km/h
1298 05-11-2020 16:25:00 4.4 C 6.33 g/m*3 4.4 C 0 km/h
1299 05-11-2020 16:30:00 4.4 C 6.33 g/m*3 4.4 C 0 km/h
1300 05-11-2020 16:35:00 4.4 C 6.33 g/m*3 4.4 C 0 km/h
Sensor: Nr:Datum:Temp:Abs-Feuchte:Windchill:Wind:
Aussen-T/F 1301 05-11-2020 16:40:00 4.4 C 6.33 g/m*3 4.4 C 0 km/h
1302 05-11-2020 16:45:00 4.3 C 6.29 g/m*3 4.3 C 0 km/h
1303 05-11-2020 16:50:00 4.3 C 6.29 g/m*3 4.3 C 0 km/h
1304 05-11-2020 16:55:00 4.3 C 6.29 g/m*3 4.3 C 0 km/h
1305 05-11-2020 17:00:00 4.3 C 6.29 g/m*3 4.3 C 0 km/h
1306 05-11-2020 17:05:00 4.3 C 6.29 g/m*3 4.3 C 0 km/h
1307 05-11-2020 17:10:00 4.3 C 6.29 g/m*3 4.3 C 1.6 km/h
1308 05-11-2020 17:15:00 4.3 C 6.29 g/m*3 4.3 C 0 km/h
1309 05-11-2020 17:20:00 4.2 C 6.25 g/m*3 4.2 C 0 km/h
1310 05-11-2020 17:25:00 4.2 C 6.25 g/m*3 4.2 C 0 km/h
1311 05-11-2020 17:30:00 4.2 C 6.25 g/m*3 4.2 C 0 km/h
1312 05-11-2020 17:35:00 4.1 C 6.21 g/m*3 4.1 C 0 km/h
1313 05-11-2020 17:40:00 4.1 C 6.21 g/m*3 4.1 C 0 km/h
1314 05-11-2020 17:45:00 4.1 C 6.21 g/m*3 4.1 C 0 km/h
1315 05-11-2020 17:50:00 4.1 C 6.21 g/m*3 4.1 C 0 km/h
1316 05-11-2020 17:55:00 4 C 6.17 g/m*3 4 C 3.2 km/h
1317 05-11-2020 18:00:00 3.9 C 6.13 g/m*3 3.9 C 3.2 km/h
1318 05-11-2020 18:05:00 3.9 C 6.13 g/m*3 3.9 C 0 km/h
1319 05-11-2020 18:10:00 3.9 C 6.13 g/m*3 3.9 C 0 km/h
1320 05-11-2020 18:15:00 3.9 C 6.13 g/m*3 3.9 C 0 km/h
1321 05-11-2020 18:20:00 3.8 C 6.09 g/m*3 3.8 C 0 km/h
1322 05-11-2020 18:25:00 3.8 C 6.09 g/m*3 3.8 C 0 km/h
1323 05-11-2020 18:30:00 3.8 C 6.09 g/m*3 3.8 C 0 km/h
1324 05-11-2020 18:35:00 3.8 C 6.09 g/m*3 3.8 C 1.6 km/h
1325 05-11-2020 18:40:00 3.7 C 6.04 g/m*3 3.7 C 0 km/h
Sensor: Nr:Datum:Temp:Abs-Feuchte:Windchill:Wind:
Aussen-T/F 1326 05-11-2020 18:45:00 3.7 C 6.04 g/m*3 3.7 C 0 km/h
1327 05-11-2020 18:50:00 3.7 C 6.04 g/m*3 3.7 C 0 km/h
1328 05-11-2020 18:55:00 3.6 C 6 g/m*3 3.6 C 0 km/h
1329 05-11-2020 19:00:00 3.6 C 6 g/m*3 3.6 C 0 km/h
1330 05-11-2020 19:05:00 3.5 C 5.96 g/m*3 3.5 C 0 km/h
1331 05-11-2020 19:10:00 3.4 C 5.92 g/m*3 3.4 C 0 km/h
1332 05-11-2020 19:15:00 3.4 C 5.92 g/m*3 3.4 C 0 km/h
1333 05-11-2020 19:20:00 3.4 C 5.92 g/m*3 3.4 C 0 km/h
1334 05-11-2020 19:25:00 3.3 C 5.88 g/m*3 3.3 C 0 km/h
1335 05-11-2020 19:30:00 3.3 C 5.88 g/m*3 3.3 C 0 km/h
1336 05-11-2020 19:35:00 3.3 C 5.88 g/m*3 3.3 C 0 km/h
1337 05-11-2020 19:40:00 3.3 C 5.88 g/m*3 3.3 C 0 km/h
1338 05-11-2020 19:45:00 3.4 C 5.92 g/m*3 3.4 C 0 km/h
1339 05-11-2020 19:50:00 3.4 C 5.92 g/m*3 3.4 C 0 km/h
1340 05-11-2020 19:55:00 3.4 C 5.92 g/m*3 3.4 C 0 km/h
1341 05-11-2020 20:00:00 3.4 C 5.92 g/m*3 3.4 C 0 km/h
1342 05-11-2020 20:05:00 3.4 C 5.92 g/m*3 3.4 C 0 km/h
1343 05-11-2020 20:10:00 3.4 C 5.92 g/m*3 3.4 C 0 km/h
1344 05-11-2020 20:15:00 3.4 C 5.92 g/m*3 3.4 C 0 km/h
1345 05-11-2020 20:20:00 3.3 C 5.88 g/m*3 3.3 C 0 km/h
1346 05-11-2020 20:25:00 3.3 C 5.88 g/m*3 3.3 C 0 km/h
1347 05-11-2020 20:30:00 3.3 C 5.88 g/m*3 3.3 C 0 km/h
1348 05-11-2020 20:35:00 3.2 C 5.85 g/m*3 3.2 C 0 km/h
1349 05-11-2020 20:40:00 3.3 C 5.88 g/m*3 3.3 C 0 km/h
1350 05-11-2020 20:45:00 3.3 C 5.88 g/m*3 3.3 C 0 km/h
Sensor: Nr:Datum:Temp:Abs-Feuchte:Windchill:Wind:
Aussen-T/F 1351 05-11-2020 20:50:00 3.3 C 5.88 g/m*3 3.3 C 0 km/h
1352 05-11-2020 20:55:00 3.3 C 5.88 g/m*3 3.3 C 0 km/h
1353 05-11-2020 21:00:00 3.3 C 5.88 g/m*3 3.3 C 0 km/h
1354 05-11-2020 21:05:00 3.3 C 5.88 g/m*3 3.3 C 0 km/h
1355 05-11-2020 21:10:00 3.3 C 5.88 g/m*3 3.3 C 0 km/h
1356 05-11-2020 21:15:00 3.3 C 5.88 g/m*3 3.3 C 1.6 km/h
1357 05-11-2020 21:20:00 3.3 C 5.88 g/m*3 3.3 C 4.8 km/h
1358 05-11-2020 21:25:00 3.3 C 5.88 g/m*3 3.3 C 3.2 km/h
1359 05-11-2020 21:30:00 3.2 C 5.85 g/m*3 3.2 C 1.6 km/h
1360 05-11-2020 21:35:00 3.2 C 5.85 g/m*3 3.2 C 0 km/h
1361 05-11-2020 21:40:00 3.2 C 5.85 g/m*3 3.2 C 0 km/h
1362 05-11-2020 21:45:00 3.2 C 5.85 g/m*3 3.2 C 0 km/h
1363 05-11-2020 21:50:00 3.3 C 5.88 g/m*3 3.3 C 0 km/h
1364 05-11-2020 21:55:00 3.3 C 5.88 g/m*3 3.3 C 0 km/h
1365 05-11-2020 22:00:00 3.2 C 5.85 g/m*3 3.2 C 0 km/h
1366 05-11-2020 22:05:00 3.2 C 5.85 g/m*3 3.2 C 0 km/h
1367 05-11-2020 22:10:00 3.2 C 5.85 g/m*3 3.2 C 0 km/h
1368 05-11-2020 22:15:00 3.1 C 5.81 g/m*3 3.1 C 0 km/h
1369 05-11-2020 22:20:00 3.1 C 5.81 g/m*3 3.1 C 0 km/h
1370 05-11-2020 22:25:00 3.2 C 5.85 g/m*3 3.2 C 0 km/h
1371 05-11-2020 22:30:00 3.2 C 5.85 g/m*3 3.2 C 0 km/h
1372 05-11-2020 22:35:00 3.2 C 5.85 g/m*3 3.2 C 0 km/h
1373 05-11-2020 22:40:00 3.3 C 5.88 g/m*3 3.3 C 0 km/h
1374 05-11-2020 22:45:00 3.3 C 5.88 g/m*3 3.3 C 0 km/h
1375 05-11-2020 22:50:00 3.4 C 5.99 g/m*3 3.4 C 0 km/h
Sensor: Nr:Datum:Temp:Abs-Feuchte:Windchill:Wind:
Aussen-T/F 1376 05-11-2020 22:55:00 3.4 C 5.99 g/m*3 3.4 C 0 km/h
1377 05-11-2020 23:00:00 3.4 C 5.99 g/m*3 3.4 C 0 km/h
1378 05-11-2020 23:05:00 3.4 C 5.99 g/m*3 3.4 C 3.2 km/h
1379 05-11-2020 23:10:00 3.3 C 5.88 g/m*3 3.3 C 3.2 km/h
1380 05-11-2020 23:15:00 3.3 C 5.88 g/m*3 3.3 C 0 km/h
1381 05-11-2020 23:20:00 3.3 C 5.88 g/m*3 3.3 C 0 km/h
1382 05-11-2020 23:25:00 3.3 C 5.88 g/m*3 3.3 C 0 km/h
1383 05-11-2020 23:30:00 3.3 C 5.88 g/m*3 3.3 C 0 km/h
1384 05-11-2020 23:35:00 3.3 C 5.88 g/m*3 3.3 C 0 km/h
1385 05-11-2020 23:40:00 3.3 C 5.88 g/m*3 3.3 C 0 km/h
1386 05-11-2020 23:45:00 3.3 C 5.88 g/m*3 3.3 C 0 km/h
1387 05-11-2020 23:50:00 3.3 C 5.88 g/m*3 3.3 C 3.2 km/h
1388 05-11-2020 23:55:00 3.3 C 5.88 g/m*3 3.3 C 0 km/h
1389 06-11-2020 00:00:00 3.3 C 5.88 g/m*3 3.3 C 0 km/h
1390 06-11-2020 00:05:00 3.3 C 5.88 g/m*3 3.3 C 3.2 km/h
1391 06-11-2020 00:10:00 3.2 C 5.85 g/m*3 3.2 C 3.2 km/h
1392 06-11-2020 00:15:00 3.2 C 5.85 g/m*3 3.2 C 0 km/h
1393 06-11-2020 00:20:00 3.1 C 5.81 g/m*3 3.1 C 0 km/h
1394 06-11-2020 00:25:00 3.1 C 5.81 g/m*3 3.1 C 0 km/h
1395 06-11-2020 00:30:00 3.1 C 5.81 g/m*3 3.1 C 0 km/h
1396 06-11-2020 00:35:00 3 C 5.77 g/m*3 3 C 0 km/h
1397 06-11-2020 00:40:00 2.9 C 5.73 g/m*3 2.9 C 0 km/h
1398 06-11-2020 00:45:00 2.9 C 5.73 g/m*3 2.9 C 0 km/h
1399 06-11-2020 00:50:00 2.9 C 5.73 g/m*3 2.9 C 0 km/h
1400 06-11-2020 00:55:00 2.9 C 5.73 g/m*3 2.9 C 1.6 km/h
Sensor: Nr:Datum:Temp:Abs-Feuchte:Windchill:Wind:
Aussen-T/F 1401 06-11-2020 01:00:00 2.8 C 5.69 g/m*3 2.8 C 0 km/h
1402 06-11-2020 01:05:00 2.8 C 5.69 g/m*3 2.8 C 3.2 km/h
1403 06-11-2020 01:10:00 2.8 C 5.69 g/m*3 2.8 C 3.2 km/h
1404 06-11-2020 01:15:00 2.7 C 5.65 g/m*3 2.7 C 0 km/h
1405 06-11-2020 01:20:00 2.7 C 5.65 g/m*3 2.7 C 0 km/h
1406 06-11-2020 01:25:00 2.7 C 5.65 g/m*3 2.7 C 0 km/h
1407 06-11-2020 01:30:00 2.7 C 5.71 g/m*3 2.7 C 3.2 km/h
1408 06-11-2020 01:35:00 2.7 C 5.65 g/m*3 2.7 C 3.2 km/h
1409 06-11-2020 01:40:00 2.6 C 5.61 g/m*3 2.6 C 3.2 km/h
1410 06-11-2020 01:45:00 2.6 C 5.61 g/m*3 2.6 C 3.2 km/h
1411 06-11-2020 01:50:00 2.5 C 5.58 g/m*3 2.5 C 0 km/h
1412 06-11-2020 01:55:00 2.5 C 5.58 g/m*3 2.5 C 0 km/h
1413 06-11-2020 02:00:00 2.5 C 5.58 g/m*3 2.5 C 0 km/h
1414 06-11-2020 02:05:00 2.6 C 5.61 g/m*3 2.6 C 0 km/h
1415 06-11-2020 02:10:00 2.6 C 5.61 g/m*3 2.6 C 0 km/h
1416 06-11-2020 02:15:00 2.6 C 5.61 g/m*3 2.6 C 0 km/h
1417 06-11-2020 02:20:00 2.6 C 5.61 g/m*3 2.6 C 1.6 km/h
1418 06-11-2020 02:25:00 2.6 C 5.67 g/m*3 2.6 C 3.2 km/h
1419 06-11-2020 02:30:00 2.6 C 5.67 g/m*3 2.6 C 3.2 km/h
1420 06-11-2020 02:35:00 2.6 C 5.67 g/m*3 2.6 C 4.8 km/h
1421 06-11-2020 02:40:00 2.6 C 5.67 g/m*3 2.6 C 4.8 km/h
1422 06-11-2020 02:45:00 2.5 C 5.63 g/m*3 2.5 C 0 km/h
1423 06-11-2020 02:50:00 2.5 C 5.63 g/m*3 2.5 C 0 km/h
1424 06-11-2020 02:55:00 2.5 C 5.63 g/m*3 2.5 C 0 km/h
1425 06-11-2020 03:00:00 2.6 C 5.67 g/m*3 2.6 C 0 km/h
Sensor: Nr:Datum:Temp:Abs-Feuchte:Windchill:Wind:
Aussen-T/F 1426 06-11-2020 03:05:00 2.7 C 5.65 g/m*3 2.7 C 0 km/h
1427 06-11-2020 03:10:00 2.7 C 5.65 g/m*3 2.7 C 0 km/h
1428 06-11-2020 03:15:00 2.7 C 5.65 g/m*3 2.7 C 0 km/h
1429 06-11-2020 03:20:00 2.7 C 5.65 g/m*3 2.7 C 0 km/h
1430 06-11-2020 03:25:00 2.7 C 5.65 g/m*3 2.7 C 3.2 km/h
1431 06-11-2020 03:30:00 2.6 C 5.61 g/m*3 2.6 C 1.6 km/h
1432 06-11-2020 03:35:00 2.6 C 5.61 g/m*3 2.6 C 0 km/h
1433 06-11-2020 03:40:00 2.6 C 5.61 g/m*3 2.6 C 0 km/h
1434 06-11-2020 03:45:00 2.6 C 5.61 g/m*3 2.6 C 0 km/h
1435 06-11-2020 03:50:00 2.7 C 5.65 g/m*3 2.7 C 0 km/h
1436 06-11-2020 03:55:00 2.7 C 5.65 g/m*3 2.7 C 1.6 km/h
1437 06-11-2020 04:00:00 2.7 C 5.65 g/m*3 2.7 C 1.6 km/h
1438 06-11-2020 04:05:00 2.6 C 5.61 g/m*3 2.6 C 1.6 km/h
1439 06-11-2020 04:10:00 2.6 C 5.67 g/m*3 2.6 C 3.2 km/h
1440 06-11-2020 04:15:00 2.5 C 5.63 g/m*3 2.5 C 0 km/h
1441 06-11-2020 04:20:00 2.5 C 5.63 g/m*3 2.5 C 0 km/h
1442 06-11-2020 04:25:00 2.4 C 5.6 g/m*3 2.4 C 0 km/h
1443 06-11-2020 04:30:00 2.4 C 5.6 g/m*3 2.4 C 0 km/h
1444 06-11-2020 04:35:00 2.4 C 5.6 g/m*3 2.4 C 0 km/h
1445 06-11-2020 04:40:00 2.5 C 5.63 g/m*3 2.5 C 0 km/h
1446 06-11-2020 04:45:00 2.5 C 5.63 g/m*3 2.5 C 0 km/h
1447 06-11-2020 04:50:00 2.5 C 5.63 g/m*3 2.5 C 1.6 km/h
1448 06-11-2020 04:55:00 2.4 C 5.6 g/m*3 2.4 C 1.6 km/h
1449 06-11-2020 05:00:00 2.4 C 5.54 g/m*3 2.4 C 3.2 km/h
1450 06-11-2020 05:05:00 2.4 C 5.54 g/m*3 2.4 C 3.2 km/h
Sensor: Nr:Datum:Temp:Abs-Feuchte:Windchill:Wind:
Aussen-T/F 1451 06-11-2020 05:10:00 2.4 C 5.54 g/m*3 2.4 C 0 km/h
1452 06-11-2020 05:15:00 2.4 C 5.54 g/m*3 2.4 C 0 km/h
1453 06-11-2020 05:20:00 2.4 C 5.54 g/m*3 2.4 C 0 km/h
1454 06-11-2020 05:25:00 2.4 C 5.6 g/m*3 2.4 C 0 km/h
1455 06-11-2020 05:30:00 2.5 C 5.63 g/m*3 2.5 C 0 km/h
1456 06-11-2020 05:35:00 2.5 C 5.63 g/m*3 2.5 C 0 km/h
1457 06-11-2020 05:40:00 2.6 C 5.67 g/m*3 2.6 C 0 km/h
1458 06-11-2020 05:45:00 2.6 C 5.61 g/m*3 2.6 C 0 km/h
1459 06-11-2020 05:50:00 2.6 C 5.61 g/m*3 2.6 C 1.6 km/h
1460 06-11-2020 05:55:00 2.6 C 5.67 g/m*3 2.6 C 0 km/h
1461 06-11-2020 06:00:00 2.6 C 5.67 g/m*3 2.6 C 0 km/h
1462 06-11-2020 06:05:00 2.6 C 5.67 g/m*3 2.6 C 0 km/h
1463 06-11-2020 06:10:00 2.6 C 5.67 g/m*3 2.6 C 0 km/h
1464 06-11-2020 06:15:00 2.6 C 5.67 g/m*3 2.6 C 0 km/h
1465 06-11-2020 06:20:00 2.6 C 5.61 g/m*3 2.6 C 0 km/h
1466 06-11-2020 06:25:00 2.7 C 5.65 g/m*3 2.7 C 0 km/h
1467 06-11-2020 06:30:00 2.6 C 5.67 g/m*3 2.6 C 0 km/h
1468 06-11-2020 06:35:00 2.6 C 5.67 g/m*3 2.6 C 0 km/h
1469 06-11-2020 06:40:00 2.6 C 5.61 g/m*3 2.6 C 0 km/h
1470 06-11-2020 06:45:00 2.7 C 5.71 g/m*3 2.7 C 1.6 km/h
1471 06-11-2020 06:50:00 2.6 C 5.61 g/m*3 2.6 C 0 km/h
1472 06-11-2020 06:55:00 2.6 C 5.67 g/m*3 2.6 C 1.6 km/h
1473 06-11-2020 07:00:00 2.6 C 5.67 g/m*3 2.6 C 0 km/h
1474 06-11-2020 07:05:00 2.6 C 5.67 g/m*3 2.6 C 0 km/h
1475 06-11-2020 07:10:00 2.6 C 5.67 g/m*3 2.6 C 0 km/h
Sensor: Nr:Datum:Temp:Abs-Feuchte:Windchill:Wind:
Aussen-T/F 1476 06-11-2020 07:15:00 2.6 C 5.67 g/m*3 2.6 C 0 km/h
1477 06-11-2020 07:20:00 2.6 C 5.67 g/m*3 2.6 C 0 km/h
1478 06-11-2020 07:25:00 2.6 C 5.67 g/m*3 2.6 C 3.2 km/h
1479 06-11-2020 07:30:00 2.6 C 5.67 g/m*3 2.6 C 0 km/h
1480 06-11-2020 07:35:00 2.5 C 5.63 g/m*3 2.5 C 1.6 km/h
1481 06-11-2020 07:40:00 2.5 C 5.63 g/m*3 2.5 C 0 km/h
1482 06-11-2020 07:45:00 2.5 C 5.63 g/m*3 2.5 C 0 km/h
1483 06-11-2020 07:50:00 2.4 C 5.6 g/m*3 2.4 C 0 km/h
1484 06-11-2020 07:55:00 2.4 C 5.6 g/m*3 2.4 C 0 km/h
1485 06-11-2020 08:00:00 2.4 C 5.6 g/m*3 2.4 C 3.2 km/h
1486 06-11-2020 08:05:00 2.4 C 5.6 g/m*3 2.4 C 0 km/h
1487 06-11-2020 08:10:00 2.4 C 5.6 g/m*3 2.4 C 0 km/h
1488 06-11-2020 08:15:00 2.4 C 5.6 g/m*3 2.4 C 0 km/h
1489 06-11-2020 08:20:00 2.5 C 5.63 g/m*3 2.5 C 0 km/h
1490 06-11-2020 08:25:00 2.6 C 5.67 g/m*3 2.6 C 0 km/h
1491 06-11-2020 08:30:00 2.6 C 5.67 g/m*3 2.6 C 0 km/h
1492 06-11-2020 08:35:00 2.6 C 5.67 g/m*3 2.6 C 0 km/h
1493 06-11-2020 08:40:00 2.6 C 5.67 g/m*3 2.6 C 0 km/h
1494 06-11-2020 08:45:00 2.6 C 5.67 g/m*3 2.6 C 0 km/h
1495 06-11-2020 08:50:00 2.7 C 5.71 g/m*3 2.7 C 0 km/h
1496 06-11-2020 08:55:00 2.7 C 5.71 g/m*3 2.7 C 0 km/h
1497 06-11-2020 09:00:00 2.7 C 5.71 g/m*3 2.7 C 0 km/h
1498 06-11-2020 09:05:00 2.8 C 5.75 g/m*3 2.8 C 0 km/h
1499 06-11-2020 09:10:00 2.8 C 5.75 g/m*3 2.8 C 0 km/h
1500 06-11-2020 09:15:00 2.9 C 5.79 g/m*3 2.9 C 0 km/h
Sensor: Nr:Datum:Temp:Abs-Feuchte:Windchill:Wind:
Aussen-T/F 1501 06-11-2020 09:20:00 2.9 C 5.79 g/m*3 2.9 C 0 km/h
1502 06-11-2020 09:25:00 3.1 C 5.87 g/m*3 3.1 C 0 km/h
1503 06-11-2020 09:30:00 3.1 C 5.87 g/m*3 3.1 C 0 km/h
1504 06-11-2020 09:35:00 3.1 C 5.87 g/m*3 3.1 C 0 km/h
1505 06-11-2020 09:40:00 3.2 C 5.91 g/m*3 3.2 C 0 km/h
1506 06-11-2020 09:45:00 3.2 C 5.91 g/m*3 3.2 C 0 km/h
1507 06-11-2020 09:50:00 3.3 C 5.95 g/m*3 3.3 C 0 km/h
1508 06-11-2020 09:55:00 3.3 C 5.95 g/m*3 3.3 C 0 km/h
1509 06-11-2020 10:00:00 3.4 C 5.99 g/m*3 3.4 C 0 km/h
1510 06-11-2020 10:05:00 3.4 C 5.99 g/m*3 3.4 C 0 km/h
1511 06-11-2020 10:10:00 3.4 C 5.99 g/m*3 3.4 C 1.6 km/h
1512 06-11-2020 10:15:00 3.4 C 5.99 g/m*3 3.4 C 1.6 km/h
1513 06-11-2020 10:20:00 3.4 C 5.99 g/m*3 3.4 C 0 km/h
1514 06-11-2020 10:25:00 3.6 C 6.07 g/m*3 3.6 C 0 km/h
1515 06-11-2020 10:30:00 3.7 C 6.11 g/m*3 3.7 C 0 km/h
1516 06-11-2020 10:35:00 3.8 C 6.15 g/m*3 3.8 C 0 km/h
1517 06-11-2020 10:40:00 3.9 C 6.19 g/m*3 3.9 C 1.6 km/h
1518 06-11-2020 10:45:00 3.8 C 6.15 g/m*3 3.8 C 1.6 km/h
1519 06-11-2020 10:50:00 3.8 C 6.15 g/m*3 3.8 C 0 km/h
1520 06-11-2020 10:55:00 3.8 C 6.15 g/m*3 3.8 C 0 km/h
1521 06-11-2020 11:00:00 3.9 C 6.19 g/m*3 3.9 C 3.2 km/h
1522 06-11-2020 11:05:00 4 C 6.23 g/m*3 4 C 4.8 km/h
1523 06-11-2020 11:10:00 4 C 6.23 g/m*3 4 C 3.2 km/h
1524 06-11-2020 11:15:00 4.1 C 6.27 g/m*3 4.1 C 3.2 km/h
1525 06-11-2020 11:20:00 4.1 C 6.27 g/m*3 4.1 C 3.2 km/h
Sensor: Nr:Datum:Temp:Abs-Feuchte:Windchill:Wind:
Aussen-T/F 1526 06-11-2020 11:25:00 4.1 C 6.27 g/m*3 4.1 C 0 km/h
1527 06-11-2020 11:30:00 4.2 C 6.31 g/m*3 4.2 C 0 km/h
1528 06-11-2020 11:35:00 4.2 C 6.31 g/m*3 4.2 C 0 km/h
1529 06-11-2020 11:40:00 4.2 C 6.31 g/m*3 4.2 C 0 km/h
1530 06-11-2020 11:45:00 4.2 C 6.31 g/m*3 4.2 C 0 km/h
1531 06-11-2020 11:50:00 4.2 C 6.31 g/m*3 4.2 C 0 km/h
1532 06-11-2020 11:55:00 4.2 C 6.31 g/m*3 4.2 C 0 km/h
1533 06-11-2020 12:00:00 4.3 C 6.36 g/m*3 4.3 C 0 km/h
1534 06-11-2020 12:05:00 4.3 C 6.36 g/m*3 4.3 C 0 km/h
1535 06-11-2020 12:10:00 4.3 C 6.36 g/m*3 4.3 C 1.6 km/h
1536 06-11-2020 12:15:00 4.3 C 6.36 g/m*3 4.3 C 3.2 km/h
1537 06-11-2020 12:20:00 4.3 C 6.36 g/m*3 4.3 C 3.2 km/h
1538 06-11-2020 12:25:00 4.3 C 6.36 g/m*3 4.3 C 3.2 km/h
1539 06-11-2020 12:30:00 4.3 C 6.36 g/m*3 4.3 C 4.8 km/h
1540 06-11-2020 12:35:00 4.3 C 6.36 g/m*3 4.3 C 3.2 km/h
1541 06-11-2020 12:40:00 4.3 C 6.36 g/m*3 4.3 C 0 km/h
1542 06-11-2020 12:45:00 4.4 C 6.4 g/m*3 4.4 C 0 km/h
1543 06-11-2020 12:50:00 4.5 C 6.44 g/m*3 4.5 C 0 km/h
1544 06-11-2020 12:55:00 4.6 C 6.48 g/m*3 4.6 C 0 km/h
1545 06-11-2020 13:00:00 4.7 C 6.53 g/m*3 4.7 C 0 km/h
1546 06-11-2020 13:05:00 4.7 C 6.53 g/m*3 4.7 C 0 km/h
1547 06-11-2020 13:10:00 4.8 C 6.57 g/m*3 4.8 C 0 km/h
1548 06-11-2020 13:15:00 4.9 C 6.62 g/m*3 4.9 C 0 km/h
1549 06-11-2020 13:20:00 5 C 6.66 g/m*3 5 C 0 km/h
1550 06-11-2020 13:25:00 5.1 C 6.7 g/m*3 5.1 C 3.2 km/h
Sensor: Nr:Datum:Temp:Abs-Feuchte:Windchill:Wind:
Aussen-T/F 1551 06-11-2020 13:30:00 5.2 C 6.75 g/m*3 5.2 C 3.2 km/h
1552 06-11-2020 13:35:00 5.2 C 6.75 g/m*3 5.2 C 3.2 km/h
1553 06-11-2020 13:40:00 5.3 C 6.79 g/m*3 5.3 C 3.2 km/h
1554 06-11-2020 13:45:00 5.4 C 6.84 g/m*3 5.4 C 3.2 km/h
1555 06-11-2020 13:50:00 5.5 C 6.88 g/m*3 5.5 C 4.8 km/h
1556 06-11-2020 13:55:00 5.6 C 6.93 g/m*3 5.6 C 0 km/h
1557 06-11-2020 14:00:00 5.6 C 6.93 g/m*3 5.6 C 0 km/h
1558 06-11-2020 14:05:00 5.7 C 6.97 g/m*3 5.7 C 0 km/h
1559 06-11-2020 14:10:00 5.8 C 7.02 g/m*3 5.8 C 0 km/h
1560 06-11-2020 14:15:00 5.8 C 7.02 g/m*3 5.8 C 3.2 km/h
1561 06-11-2020 14:20:00 5.9 C 7.07 g/m*3 4.63 C 6.4 km/h
1562 06-11-2020 14:25:00 6.1 C 7.16 g/m*3 4.86 C 6.4 km/h
1563 06-11-2020 14:30:00 6.1 C 7.16 g/m*3 4.86 C 6.4 km/h
1564 06-11-2020 14:35:00 6.2 C 7.21 g/m*3 6.2 C 4.8 km/h
1565 06-11-2020 14:40:00 6.2 C 7.21 g/m*3 6.2 C 4.8 km/h
1566 06-11-2020 14:45:00 6.2 C 7.21 g/m*3 6.2 C 3.2 km/h
1567 06-11-2020 14:50:00 6.2 C 7.21 g/m*3 6.2 C 4.8 km/h
1568 06-11-2020 14:55:00 6.3 C 7.25 g/m*3 5.1 C 6.4 km/h
1569 06-11-2020 15:00:00 6.3 C 7.25 g/m*3 6.3 C 3.2 km/h
1570 06-11-2020 15:05:00 6.3 C 7.25 g/m*3 6.3 C 4.8 km/h
1571 06-11-2020 15:10:00 6.4 C 7.3 g/m*3 6.4 C 4.8 km/h
1572 06-11-2020 15:15:00 6.4 C 7.3 g/m*3 6.4 C 4.8 km/h
1573 06-11-2020 15:20:00 6.4 C 7.3 g/m*3 6.4 C 4.8 km/h
1574 06-11-2020 15:25:00 6.4 C 7.3 g/m*3 6.4 C 3.2 km/h
1575 06-11-2020 15:30:00 6.4 C 7.3 g/m*3 6.4 C 0 km/h
Sensor: Nr:Datum:Temp:Abs-Feuchte:Windchill:Wind:
Aussen-T/F 1576 06-11-2020 15:35:00 6.4 C 7.3 g/m*3 6.4 C 3.2 km/h
1577 06-11-2020 15:40:00 6.4 C 7.3 g/m*3 6.4 C 4.8 km/h
1578 06-11-2020 15:45:00 6.3 C 7.25 g/m*3 6.3 C 4.8 km/h
1579 06-11-2020 15:50:00 6.3 C 7.25 g/m*3 6.3 C 4.8 km/h
1580 06-11-2020 15:55:00 6.2 C 7.21 g/m*3 6.2 C 1.6 km/h
1581 06-11-2020 16:00:00 6.1 C 7.16 g/m*3 6.1 C 3.2 km/h
1582 06-11-2020 16:05:00 6.1 C 7.16 g/m*3 4.86 C 6.4 km/h
1583 06-11-2020 16:10:00 6 C 7.11 g/m*3 6 C 3.2 km/h
1584 06-11-2020 16:15:00 5.9 C 7.07 g/m*3 5.9 C 3.2 km/h
1585 06-11-2020 16:20:00 5.8 C 7.02 g/m*3 5.8 C 1.6 km/h
1586 06-11-2020 16:25:00 5.7 C 6.97 g/m*3 5.7 C 3.2 km/h
1587 06-11-2020 16:30:00 5.6 C 6.93 g/m*3 5.6 C 4.8 km/h
1588 06-11-2020 16:35:00 5.5 C 6.88 g/m*3 5.5 C 3.2 km/h
1589 06-11-2020 16:40:00 5.4 C 6.84 g/m*3 5.4 C 4.8 km/h
1590 06-11-2020 16:45:00 5.3 C 6.79 g/m*3 5.3 C 4.8 km/h
1591 06-11-2020 16:50:00 5.2 C 6.75 g/m*3 5.2 C 1.6 km/h
1592 06-11-2020 16:55:00 5.2 C 6.75 g/m*3 5.2 C 3.2 km/h
1593 06-11-2020 17:00:00 5.1 C 6.7 g/m*3 5.1 C 4.8 km/h
1594 06-11-2020 17:05:00 4.9 C 6.55 g/m*3 4.9 C 4.8 km/h
1595 06-11-2020 17:10:00 4.8 C 6.5 g/m*3 3.36 C 6.4 km/h
1596 06-11-2020 17:15:00 4.7 C 6.53 g/m*3 3.25 C 6.4 km/h
1597 06-11-2020 17:20:00 4.6 C 6.42 g/m*3 4.6 C 4.8 km/h
1598 06-11-2020 17:25:00 4.5 C 6.38 g/m*3 3.02 C 6.4 km/h
1599 06-11-2020 17:30:00 4.4 C 6.33 g/m*3 4.4 C 1.6 km/h
1600 06-11-2020 17:35:00 4.4 C 6.33 g/m*3 4.4 C 3.2 km/h
Sensor: Nr:Datum:Temp:Abs-Feuchte:Windchill:Wind:
Aussen-T/F 1601 06-11-2020 17:40:00 4.3 C 6.29 g/m*3 4.3 C 3.2 km/h
1602 06-11-2020 17:45:00 4.3 C 6.29 g/m*3 4.3 C 3.2 km/h
1603 06-11-2020 17:50:00 4.1 C 6.21 g/m*3 4.1 C 3.2 km/h
1604 06-11-2020 17:55:00 3.9 C 6.13 g/m*3 3.9 C 1.6 km/h
1605 06-11-2020 18:00:00 3.9 C 6.13 g/m*3 3.9 C 1.6 km/h
1606 06-11-2020 18:05:00 3.8 C 6.09 g/m*3 3.8 C 3.2 km/h
1607 06-11-2020 18:10:00 3.7 C 6.04 g/m*3 3.7 C 3.2 km/h
1608 06-11-2020 18:15:00 3.6 C 6 g/m*3 3.6 C 4.8 km/h
1609 06-11-2020 18:20:00 3.6 C 6 g/m*3 3.6 C 0 km/h
1610 06-11-2020 18:25:00 3.4 C 5.92 g/m*3 3.4 C 0 km/h
1611 06-11-2020 18:30:00 3.3 C 5.88 g/m*3 3.3 C 0 km/h
1612 06-11-2020 18:35:00 3.3 C 5.88 g/m*3 3.3 C 0 km/h
1613 06-11-2020 18:40:00 3.2 C 5.85 g/m*3 3.2 C 0 km/h
1614 06-11-2020 18:45:00 3.1 C 5.75 g/m*3 3.1 C 0 km/h
1615 06-11-2020 18:50:00 2.9 C 5.67 g/m*3 2.9 C 0 km/h
1616 06-11-2020 18:55:00 2.9 C 5.67 g/m*3 2.9 C 0 km/h
1617 06-11-2020 19:00:00 2.8 C 5.63 g/m*3 2.8 C 0 km/h
1618 06-11-2020 19:05:00 2.7 C 5.59 g/m*3 2.7 C 0 km/h
1619 06-11-2020 19:10:00 2.7 C 5.59 g/m*3 2.7 C 0 km/h
1620 06-11-2020 19:15:00 2.6 C 5.56 g/m*3 2.6 C 0 km/h
1621 06-11-2020 19:20:00 2.5 C 5.52 g/m*3 2.5 C 0 km/h
1622 06-11-2020 19:25:00 2.5 C 5.52 g/m*3 2.5 C 0 km/h
1623 06-11-2020 19:30:00 2.4 C 5.48 g/m*3 2.4 C 0 km/h
1624 06-11-2020 19:35:00 2.3 C 5.44 g/m*3 2.3 C 0 km/h
1625 06-11-2020 19:40:00 2.2 C 5.41 g/m*3 2.2 C 0 km/h
Sensor: Nr:Datum:Temp:Abs-Feuchte:Windchill:Wind:
Aussen-T/F 1626 06-11-2020 19:45:00 2.2 C 5.41 g/m*3 2.2 C 0 km/h
1627 06-11-2020 19:50:00 2.1 C 5.37 g/m*3 2.1 C 0 km/h
1628 06-11-2020 19:55:00 2.1 C 5.37 g/m*3 2.1 C 0 km/h
1629 06-11-2020 20:00:00 2.1 C 5.37 g/m*3 2.1 C 0 km/h
1630 06-11-2020 20:05:00 2 C 5.33 g/m*3 2 C 0 km/h
1631 06-11-2020 20:10:00 2 C 5.33 g/m*3 2 C 0 km/h
1632 06-11-2020 20:15:00 1.9 C 5.3 g/m*3 1.9 C 0 km/h
1633 06-11-2020 20:20:00 1.9 C 5.3 g/m*3 1.9 C 0 km/h
1634 06-11-2020 20:25:00 1.9 C 5.3 g/m*3 1.9 C 0 km/h
1635 06-11-2020 20:30:00 1.9 C 5.3 g/m*3 1.9 C 0 km/h
1636 06-11-2020 20:35:00 1.9 C 5.3 g/m*3 1.9 C 0 km/h
1637 06-11-2020 20:40:00 1.8 C 5.26 g/m*3 1.8 C 0 km/h
1638 06-11-2020 20:45:00 1.8 C 5.26 g/m*3 1.8 C 0 km/h
1639 06-11-2020 20:50:00 1.7 C 5.23 g/m*3 1.7 C 0 km/h
1640 06-11-2020 20:55:00 1.6 C 5.19 g/m*3 1.6 C 0 km/h
1641 06-11-2020 21:00:00 1.6 C 5.19 g/m*3 1.6 C 0 km/h
1642 06-11-2020 21:05:00 1.6 C 5.19 g/m*3 1.6 C 0 km/h
1643 06-11-2020 21:10:00 1.5 C 5.16 g/m*3 1.5 C 0 km/h
1644 06-11-2020 21:15:00 1.5 C 5.16 g/m*3 1.5 C 0 km/h
1645 06-11-2020 21:20:00 1.4 C 5.12 g/m*3 1.4 C 0 km/h
1646 06-11-2020 21:25:00 1.4 C 5.12 g/m*3 1.4 C 0 km/h
1647 06-11-2020 21:30:00 1.4 C 5.12 g/m*3 1.4 C 0 km/h
1648 06-11-2020 21:35:00 1.4 C 5.12 g/m*3 1.4 C 0 km/h
1649 06-11-2020 21:40:00 1.5 C 5.16 g/m*3 1.5 C 0 km/h
1650 06-11-2020 21:45:00 1.5 C 5.16 g/m*3 1.5 C 0 km/h
Sensor: Nr:Datum:Temp:Abs-Feuchte:Windchill:Wind:
Aussen-T/F 1651 06-11-2020 21:50:00 1.4 C 5.12 g/m*3 1.4 C 0 km/h
1652 06-11-2020 21:55:00 1.3 C 5.09 g/m*3 1.3 C 0 km/h
1653 06-11-2020 22:00:00 1.3 C 5.09 g/m*3 1.3 C 0 km/h
1654 06-11-2020 22:05:00 1.3 C 5.09 g/m*3 1.3 C 0 km/h
1655 06-11-2020 22:10:00 1.3 C 5.09 g/m*3 1.3 C 0 km/h
1656 06-11-2020 22:15:00 1.3 C 5.09 g/m*3 1.3 C 0 km/h
1657 06-11-2020 22:20:00 1.3 C 5.09 g/m*3 1.3 C 0 km/h
1658 06-11-2020 22:25:00 1.3 C 5.09 g/m*3 1.3 C 0 km/h
1659 06-11-2020 22:30:00 1.3 C 5.09 g/m*3 1.3 C 0 km/h
1660 06-11-2020 22:35:00 1.2 C 5.05 g/m*3 1.2 C 0 km/h
1661 06-11-2020 22:40:00 1.2 C 5.05 g/m*3 1.2 C 0 km/h
1662 06-11-2020 22:45:00 1.2 C 5.05 g/m*3 1.2 C 0 km/h
1663 06-11-2020 22:50:00 1.1 C 5.02 g/m*3 1.1 C 0 km/h
1664 06-11-2020 22:55:00 1.1 C 5.02 g/m*3 1.1 C 0 km/h
1665 06-11-2020 23:00:00 1.1 C 5.02 g/m*3 1.1 C 0 km/h
1666 06-11-2020 23:05:00 1.1 C 5.02 g/m*3 1.1 C 0 km/h
1667 06-11-2020 23:10:00 1 C 4.98 g/m*3 1 C 0 km/h
1668 06-11-2020 23:15:00 1 C 4.98 g/m*3 1 C 0 km/h
1669 06-11-2020 23:20:00 0.9 C 4.95 g/m*3 0.9 C 0 km/h
1670 06-11-2020 23:25:00 0.8 C 4.91 g/m*3 0.8 C 0 km/h
1671 06-11-2020 23:30:00 0.8 C 4.91 g/m*3 0.8 C 0 km/h
1672 06-11-2020 23:35:00 0.8 C 4.91 g/m*3 0.8 C 0 km/h
1673 06-11-2020 23:40:00 0.8 C 4.91 g/m*3 0.8 C 0 km/h
1674 06-11-2020 23:45:00 0.8 C 4.91 g/m*3 0.8 C 0 km/h
1675 06-11-2020 23:50:00 0.8 C 4.91 g/m*3 0.8 C 0 km/h
Sensor: Nr:Datum:Temp:Abs-Feuchte:Windchill:Wind:
Aussen-T/F 1676 06-11-2020 23:55:00 0.8 C 4.91 g/m*3 0.8 C 0 km/h
1677 07-11-2020 00:00:00 0.8 C 4.91 g/m*3 0.8 C 0 km/h
1678 07-11-2020 00:05:00 0.8 C 4.91 g/m*3 0.8 C 0 km/h
1679 07-11-2020 00:10:00 0.8 C 4.91 g/m*3 0.8 C 0 km/h
1680 07-11-2020 00:15:00 0.8 C 4.91 g/m*3 0.8 C 0 km/h
1681 07-11-2020 00:20:00 0.8 C 4.91 g/m*3 0.8 C 0 km/h
1682 07-11-2020 00:25:00 0.8 C 4.91 g/m*3 0.8 C 0 km/h
1683 07-11-2020 00:30:00 0.8 C 4.91 g/m*3 0.8 C 0 km/h
1684 07-11-2020 00:35:00 0.8 C 4.91 g/m*3 0.8 C 0 km/h
1685 07-11-2020 00:40:00 0.8 C 4.91 g/m*3 0.8 C 0 km/h
1686 07-11-2020 00:45:00 0.8 C 4.91 g/m*3 0.8 C 0 km/h
1687 07-11-2020 00:50:00 0.8 C 4.91 g/m*3 0.8 C 0 km/h
1688 07-11-2020 00:55:00 0.7 C 4.88 g/m*3 0.7 C 0 km/h
1689 07-11-2020 01:00:00 0.7 C 4.88 g/m*3 0.7 C 0 km/h
1690 07-11-2020 01:05:00 0.7 C 4.88 g/m*3 0.7 C 0 km/h
1691 07-11-2020 01:10:00 0.6 C 4.85 g/m*3 0.6 C 0 km/h
1692 07-11-2020 01:15:00 0.6 C 4.85 g/m*3 0.6 C 0 km/h
1693 07-11-2020 01:20:00 0.6 C 4.85 g/m*3 0.6 C 0 km/h
1694 07-11-2020 01:25:00 0.6 C 4.85 g/m*3 0.6 C 0 km/h
1695 07-11-2020 01:30:00 0.7 C 4.93 g/m*3 0.7 C 0 km/h
1696 07-11-2020 01:35:00 0.7 C 4.93 g/m*3 0.7 C 0 km/h
1697 07-11-2020 01:40:00 0.7 C 4.93 g/m*3 0.7 C 0 km/h
1698 07-11-2020 01:45:00 0.6 C 4.9 g/m*3 0.6 C 0 km/h
1699 07-11-2020 01:50:00 0.6 C 4.9 g/m*3 0.6 C 0 km/h
1700 07-11-2020 01:55:00 0.6 C 4.9 g/m*3 0.6 C 0 km/h
Sensor: Nr:Datum:Temp:Abs-Feuchte:Windchill:Wind:
Aussen-T/F 1701 07-11-2020 02:00:00 0.6 C 4.9 g/m*3 0.6 C 0 km/h
1702 07-11-2020 02:05:00 0.5 C 4.86 g/m*3 0.5 C 0 km/h
1703 07-11-2020 02:10:00 0.5 C 4.81 g/m*3 0.5 C 0 km/h
1704 07-11-2020 02:15:00 0.4 C 4.78 g/m*3 0.4 C 0 km/h
1705 07-11-2020 02:20:00 0.5 C 4.81 g/m*3 0.5 C 0 km/h
1706 07-11-2020 02:25:00 0.5 C 4.81 g/m*3 0.5 C 0 km/h
1707 07-11-2020 02:30:00 0.5 C 4.86 g/m*3 0.5 C 0 km/h
1708 07-11-2020 02:35:00 0.6 C 4.9 g/m*3 0.6 C 0 km/h
1709 07-11-2020 02:40:00 0.5 C 4.86 g/m*3 0.5 C 0 km/h
1710 07-11-2020 02:45:00 0.5 C 4.86 g/m*3 0.5 C 0 km/h
1711 07-11-2020 02:50:00 0.5 C 4.86 g/m*3 0.5 C 0 km/h
1712 07-11-2020 02:55:00 0.5 C 4.86 g/m*3 0.5 C 0 km/h
1713 07-11-2020 03:00:00 0.5 C 4.86 g/m*3 0.5 C 0 km/h
1714 07-11-2020 03:05:00 0.6 C 4.9 g/m*3 0.6 C 0 km/h
1715 07-11-2020 03:10:00 0.6 C 4.9 g/m*3 0.6 C 0 km/h
1716 07-11-2020 03:15:00 0.5 C 4.86 g/m*3 0.5 C 0 km/h
1717 07-11-2020 03:20:00 0.4 C 4.83 g/m*3 0.4 C 0 km/h
1718 07-11-2020 03:25:00 0.3 C 4.8 g/m*3 0.3 C 0 km/h
1719 07-11-2020 03:30:00 0.3 C 4.8 g/m*3 0.3 C 0 km/h
1720 07-11-2020 03:35:00 0.3 C 4.8 g/m*3 0.3 C 0 km/h
1721 07-11-2020 03:40:00 0.3 C 4.8 g/m*3 0.3 C 0 km/h
1722 07-11-2020 03:45:00 0.3 C 4.8 g/m*3 0.3 C 0 km/h
1723 07-11-2020 03:50:00 0.3 C 4.8 g/m*3 0.3 C 0 km/h
1724 07-11-2020 03:55:00 0.3 C 4.8 g/m*3 0.3 C 0 km/h
1725 07-11-2020 04:00:00 0.4 C 4.83 g/m*3 0.4 C 0 km/h
Sensor: Nr:Datum:Temp:Abs-Feuchte:Windchill:Wind:
Aussen-T/F 1726 07-11-2020 04:05:00 0.4 C 4.83 g/m*3 0.4 C 0 km/h
1727 07-11-2020 04:10:00 0.3 C 4.8 g/m*3 0.3 C 0 km/h
1728 07-11-2020 04:15:00 0.3 C 4.8 g/m*3 0.3 C 0 km/h
1729 07-11-2020 04:20:00 0.4 C 4.83 g/m*3 0.4 C 0 km/h
1730 07-11-2020 04:25:00 0.4 C 4.83 g/m*3 0.4 C 0 km/h
1731 07-11-2020 04:30:00 0.4 C 4.83 g/m*3 0.4 C 0 km/h
1732 07-11-2020 04:35:00 0.4 C 4.83 g/m*3 0.4 C 0 km/h
1733 07-11-2020 04:40:00 0.3 C 4.8 g/m*3 0.3 C 0 km/h
1734 07-11-2020 04:45:00 0.3 C 4.8 g/m*3 0.3 C 0 km/h
1735 07-11-2020 04:50:00 0.4 C 4.83 g/m*3 0.4 C 0 km/h
1736 07-11-2020 04:55:00 0.4 C 4.83 g/m*3 0.4 C 0 km/h
1737 07-11-2020 05:00:00 0.3 C 4.8 g/m*3 0.3 C 0 km/h
1738 07-11-2020 05:05:00 0.3 C 4.8 g/m*3 0.3 C 0 km/h
1739 07-11-2020 05:10:00 0.3 C 4.8 g/m*3 0.3 C 0 km/h
1740 07-11-2020 05:15:00 0.3 C 4.8 g/m*3 0.3 C 0 km/h
1741 07-11-2020 05:20:00 0.3 C 4.8 g/m*3 0.3 C 0 km/h
1742 07-11-2020 05:25:00 0.3 C 4.8 g/m*3 0.3 C 0 km/h
1743 07-11-2020 05:30:00 0.3 C 4.8 g/m*3 0.3 C 0 km/h
1744 07-11-2020 05:35:00 0.3 C 4.8 g/m*3 0.3 C 0 km/h
1745 07-11-2020 05:40:00 0.3 C 4.8 g/m*3 0.3 C 0 km/h
1746 07-11-2020 05:45:00 0.3 C 4.8 g/m*3 0.3 C 0 km/h
1747 07-11-2020 05:50:00 0.3 C 4.8 g/m*3 0.3 C 0 km/h
1748 07-11-2020 05:55:00 0.3 C 4.8 g/m*3 0.3 C 0 km/h
1749 07-11-2020 06:00:00 0.3 C 4.8 g/m*3 0.3 C 0 km/h
1750 07-11-2020 06:05:00 0.3 C 4.8 g/m*3 0.3 C 0 km/h
Sensor: Nr:Datum:Temp:Abs-Feuchte:Windchill:Wind:
Aussen-T/F 1751 07-11-2020 06:10:00 0.3 C 4.8 g/m*3 0.3 C 0 km/h
1752 07-11-2020 06:15:00 0.3 C 4.8 g/m*3 0.3 C 0 km/h
1753 07-11-2020 06:20:00 0.3 C 4.8 g/m*3 0.3 C 0 km/h
1754 07-11-2020 06:25:00 0.3 C 4.8 g/m*3 0.3 C 0 km/h
1755 07-11-2020 06:30:00 0.3 C 4.8 g/m*3 0.3 C 0 km/h
1756 07-11-2020 06:35:00 0.3 C 4.8 g/m*3 0.3 C 0 km/h
1757 07-11-2020 06:40:00 0.3 C 4.8 g/m*3 0.3 C 0 km/h
1758 07-11-2020 06:45:00 0.3 C 4.8 g/m*3 0.3 C 0 km/h
1759 07-11-2020 06:50:00 0.3 C 4.8 g/m*3 0.3 C 0 km/h
1760 07-11-2020 06:55:00 0.3 C 4.8 g/m*3 0.3 C 0 km/h
1761 07-11-2020 07:00:00 0.3 C 4.8 g/m*3 0.3 C 0 km/h
1762 07-11-2020 07:05:00 0.3 C 4.8 g/m*3 0.3 C 0 km/h
1763 07-11-2020 07:10:00 0.3 C 4.8 g/m*3 0.3 C 0 km/h
1764 07-11-2020 07:15:00 0.3 C 4.8 g/m*3 0.3 C 0 km/h
1765 07-11-2020 07:20:00 0.3 C 4.8 g/m*3 0.3 C 0 km/h
1766 07-11-2020 07:25:00 0.3 C 4.8 g/m*3 0.3 C 0 km/h
1767 07-11-2020 07:30:00 0.3 C 4.8 g/m*3 0.3 C 0 km/h
1768 07-11-2020 07:35:00 0.3 C 4.8 g/m*3 0.3 C 0 km/h
1769 07-11-2020 07:40:00 0.3 C 4.8 g/m*3 0.3 C 0 km/h
1770 07-11-2020 07:45:00 0.3 C 4.8 g/m*3 0.3 C 0 km/h
1771 07-11-2020 07:50:00 0.3 C 4.8 g/m*3 0.3 C 0 km/h
1772 07-11-2020 07:55:00 0.4 C 4.83 g/m*3 0.4 C 0 km/h
1773 07-11-2020 08:00:00 0.4 C 4.83 g/m*3 0.4 C 0 km/h
1774 07-11-2020 08:05:00 0.5 C 4.86 g/m*3 0.5 C 0 km/h
1775 07-11-2020 08:10:00 0.5 C 4.86 g/m*3 0.5 C 0 km/h
Sensor: Nr:Datum:Temp:Abs-Feuchte:Windchill:Wind:
Aussen-T/F 1776 07-11-2020 08:15:00 0.6 C 4.9 g/m*3 0.6 C 0 km/h
1777 07-11-2020 08:20:00 0.6 C 4.9 g/m*3 0.6 C 0 km/h
1778 07-11-2020 08:25:00 0.7 C 4.93 g/m*3 0.7 C 0 km/h
1779 07-11-2020 08:30:00 0.7 C 4.93 g/m*3 0.7 C 0 km/h
1780 07-11-2020 08:35:00 0.8 C 4.97 g/m*3 0.8 C 0 km/h
1781 07-11-2020 08:40:00 0.8 C 4.97 g/m*3 0.8 C 0 km/h
1782 07-11-2020 08:45:00 0.9 C 5 g/m*3 0.9 C 0 km/h
1783 07-11-2020 08:50:00 1 C 5.03 g/m*3 1 C 0 km/h
1784 07-11-2020 08:55:00 1.1 C 5.07 g/m*3 1.1 C 0 km/h
1785 07-11-2020 09:00:00 1.2 C 5.1 g/m*3 1.2 C 0 km/h
1786 07-11-2020 09:05:00 1.3 C 5.14 g/m*3 1.3 C 0 km/h
1787 07-11-2020 09:10:00 1.3 C 5.14 g/m*3 1.3 C 0 km/h
1788 07-11-2020 09:50:00 1.6 C 5.25 g/m*3 1.6 C 0 km/h
1789 07-11-2020 09:55:00 2 C 5.39 g/m*3 2 C 0 km/h
1790 07-11-2020 10:00:00 2.1 C 5.43 g/m*3 2.1 C 0 km/h
1791 07-11-2020 10:05:00 2.2 C 5.52 g/m*3 2.2 C 0 km/h
1792 07-11-2020 10:10:00 2.3 C 5.5 g/m*3 2.3 C 0 km/h
1793 07-11-2020 10:15:00 2.4 C 5.54 g/m*3 2.4 C 0 km/h
1794 07-11-2020 10:20:00 2.5 C 5.63 g/m*3 2.5 C 0 km/h
1795 07-11-2020 10:25:00 2.7 C 5.71 g/m*3 2.7 C 0 km/h
1796 07-11-2020 10:30:00 2.8 C 5.75 g/m*3 2.8 C 0 km/h
1797 07-11-2020 10:35:00 2.9 C 5.79 g/m*3 2.9 C 0 km/h
1798 07-11-2020 10:40:00 3.1 C 5.87 g/m*3 3.1 C 0 km/h
1799 07-11-2020 10:45:00 3.2 C 5.91 g/m*3 3.2 C 0 km/h
1800 07-11-2020 10:50:00 3.4 C 5.99 g/m*3 3.4 C 3.2 km/h
Sensor: Nr:Datum:Temp:Abs-Feuchte:Windchill:Wind:
Aussen-T/F 1801 07-11-2020 10:55:00 3.7 C 6.11 g/m*3 3.7 C 0 km/h
1802 07-11-2020 11:00:00 3.9 C 6.19 g/m*3 3.9 C 0 km/h
1803 07-11-2020 11:05:00 4.1 C 6.27 g/m*3 4.1 C 0 km/h
1804 07-11-2020 11:10:00 4.3 C 6.36 g/m*3 4.3 C 0 km/h
1805 07-11-2020 11:15:00 4.4 C 6.4 g/m*3 4.4 C 0 km/h
1806 07-11-2020 11:20:00 4.7 C 6.53 g/m*3 4.7 C 0 km/h
1807 07-11-2020 11:25:00 4.8 C 6.57 g/m*3 4.8 C 4.8 km/h
1808 07-11-2020 11:30:00 5 C 6.66 g/m*3 5 C 0 km/h
1809 07-11-2020 11:35:00 5.2 C 6.75 g/m*3 5.2 C 0 km/h
1810 07-11-2020 11:40:00 5.3 C 6.79 g/m*3 5.3 C 3.2 km/h
1811 07-11-2020 11:45:00 5.4 C 6.84 g/m*3 5.4 C 1.6 km/h
1812 07-11-2020 11:50:00 5.6 C 6.93 g/m*3 5.6 C 4.8 km/h
1813 07-11-2020 11:55:00 5.8 C 7.02 g/m*3 5.8 C 4.8 km/h
1814 07-11-2020 12:00:00 5.9 C 7.07 g/m*3 5.9 C 1.6 km/h
1815 07-11-2020 12:05:00 6.1 C 7.16 g/m*3 6.1 C 3.2 km/h
1816 07-11-2020 12:10:00 6.2 C 7.21 g/m*3 6.2 C 3.2 km/h
1817 07-11-2020 12:15:00 6.3 C 7.25 g/m*3 6.3 C 3.2 km/h
1818 07-11-2020 12:20:00 6.4 C 7.3 g/m*3 6.4 C 4.8 km/h
1819 07-11-2020 12:25:00 6.6 C 7.4 g/m*3 6.6 C 4.8 km/h
1820 07-11-2020 12:30:00 6.7 C 7.45 g/m*3 6.7 C 3.2 km/h
1821 07-11-2020 12:35:00 6.8 C 7.5 g/m*3 6.8 C 4.8 km/h
1822 07-11-2020 12:40:00 6.9 C 7.54 g/m*3 6.9 C 4.8 km/h
1823 07-11-2020 12:45:00 6.9 C 7.54 g/m*3 6.9 C 3.2 km/h
1824 07-11-2020 12:50:00 7.1 C 7.64 g/m*3 7.1 C 3.2 km/h
1825 07-11-2020 12:55:00 7.2 C 7.69 g/m*3 7.2 C 4.8 km/h
Sensor: Nr:Datum:Temp:Abs-Feuchte:Windchill:Wind:
Aussen-T/F 1826 07-11-2020 13:00:00 7.3 C 7.74 g/m*3 7.3 C 4.8 km/h
1827 07-11-2020 13:05:00 7.4 C 7.79 g/m*3 7.4 C 4.8 km/h
1828 07-11-2020 13:10:00 7.5 C 7.84 g/m*3 7.5 C 3.2 km/h
1829 07-11-2020 13:15:00 7.6 C 7.9 g/m*3 7.6 C 0 km/h
1830 07-11-2020 13:20:00 7.7 C 7.95 g/m*3 7.7 C 0 km/h
1831 07-11-2020 13:25:00 7.8 C 8 g/m*3 7.8 C 4.8 km/h
1832 07-11-2020 13:30:00 7.9 C 8.05 g/m*3 7.9 C 4.8 km/h
1833 07-11-2020 13:35:00 7.9 C 8.05 g/m*3 7.9 C 4.8 km/h
1834 07-11-2020 13:40:00 8.1 C 8.15 g/m*3 8.1 C 3.2 km/h
1835 07-11-2020 13:45:00 8.1 C 8.15 g/m*3 8.1 C 4.8 km/h
1836 07-11-2020 13:50:00 8.2 C 8.21 g/m*3 8.2 C 4.8 km/h
1837 07-11-2020 13:55:00 8.3 C 8.26 g/m*3 8.3 C 3.2 km/h
1838 07-11-2020 14:00:00 8.4 C 8.31 g/m*3 8.4 C 4.8 km/h
1839 07-11-2020 14:05:00 8.6 C 8.42 g/m*3 8.6 C 3.2 km/h
1840 07-11-2020 14:10:00 8.6 C 8.42 g/m*3 8.6 C 3.2 km/h
1841 07-11-2020 14:15:00 8.7 C 8.48 g/m*3 8.7 C 4.8 km/h
1842 07-11-2020 14:20:00 8.8 C 8.53 g/m*3 8.8 C 4.8 km/h
1843 07-11-2020 14:25:00 8.8 C 8.53 g/m*3 8.8 C 4.8 km/h
1844 07-11-2020 14:30:00 8.9 C 8.58 g/m*3 8.9 C 3.2 km/h
1845 07-11-2020 14:35:00 9 C 8.64 g/m*3 9 C 4.8 km/h
1846 07-11-2020 14:40:00 9.1 C 8.7 g/m*3 8.33 C 6.4 km/h
1847 07-11-2020 14:45:00 9.2 C 8.75 g/m*3 8.45 C 6.4 km/h
1848 07-11-2020 14:50:00 9.3 C 8.81 g/m*3 9.3 C 4.8 km/h
1849 07-11-2020 14:55:00 9.3 C 8.81 g/m*3 8.56 C 6.4 km/h
1850 07-11-2020 15:00:00 9.4 C 8.77 g/m*3 9.4 C 4.8 km/h
Sensor: Nr:Datum:Temp:Abs-Feuchte:Windchill:Wind:
Aussen-T/F 1851 07-11-2020 15:05:00 9.5 C 8.83 g/m*3 9.5 C 4.8 km/h
1852 07-11-2020 15:10:00 9.5 C 8.83 g/m*3 9.5 C 4.8 km/h
1853 07-11-2020 15:15:00 9.6 C 8.89 g/m*3 8.91 C 6.4 km/h
1854 07-11-2020 15:20:00 9.7 C 8.94 g/m*3 9.7 C 4.8 km/h
1855 07-11-2020 15:25:00 9.7 C 8.94 g/m*3 9.7 C 3.2 km/h
1856 07-11-2020 15:30:00 9.8 C 8.91 g/m*3 9.8 C 0 km/h
1857 07-11-2020 15:35:00 9.8 C 8.91 g/m*3 9.8 C 4.8 km/h
1858 07-11-2020 15:40:00 9.8 C 8.91 g/m*3 9.8 C 3.2 km/h
1859 07-11-2020 15:45:00 9.8 C 8.91 g/m*3 9.8 C 3.2 km/h
1860 07-11-2020 15:50:00 9.8 C 8.81 g/m*3 9.8 C 4.8 km/h
1861 07-11-2020 15:55:00 9.8 C 8.81 g/m*3 9.8 C 3.2 km/h
1862 07-11-2020 16:00:00 9.8 C 8.81 g/m*3 9.8 C 0 km/h
1863 07-11-2020 16:05:00 9.7 C 8.67 g/m*3 9.7 C 1.6 km/h
1864 07-11-2020 16:10:00 9.7 C 8.67 g/m*3 9.02 C 6.4 km/h
1865 07-11-2020 16:15:00 9.7 C 8.57 g/m*3 9.02 C 6.4 km/h
1866 07-11-2020 16:20:00 9.6 C 8.52 g/m*3 9.6 C 1.6 km/h
1867 07-11-2020 16:25:00 9.6 C 8.52 g/m*3 9.6 C 1.6 km/h
1868 07-11-2020 16:30:00 9.6 C 8.43 g/m*3 9.6 C 1.6 km/h
1869 07-11-2020 16:35:00 9.5 C 8.37 g/m*3 9.5 C 0 km/h
1870 07-11-2020 16:40:00 9.3 C 8.18 g/m*3 9.3 C 1.6 km/h
1871 07-11-2020 16:45:00 9.2 C 8.13 g/m*3 9.2 C 4.8 km/h
1872 07-11-2020 16:50:00 9.1 C 8.07 g/m*3 9.1 C 0 km/h
1873 07-11-2020 16:55:00 8.9 C 7.97 g/m*3 8.9 C 0 km/h
1874 07-11-2020 17:00:00 8.7 C 7.87 g/m*3 8.7 C 3.2 km/h
1875 07-11-2020 17:05:00 8.6 C 7.82 g/m*3 8.6 C 3.2 km/h
Sensor: Nr:Datum:Temp:Abs-Feuchte:Windchill:Wind:
Aussen-T/F 1876 07-11-2020 17:10:00 8.4 C 7.72 g/m*3 8.4 C 0 km/h
1877 07-11-2020 17:15:00 8.3 C 7.67 g/m*3 8.3 C 0 km/h
1878 07-11-2020 17:20:00 8.2 C 7.62 g/m*3 8.2 C 1.6 km/h
1879 07-11-2020 17:25:00 8.1 C 7.66 g/m*3 8.1 C 0 km/h
1880 07-11-2020 17:30:00 8 C 7.61 g/m*3 8 C 4.8 km/h
1881 07-11-2020 17:35:00 7.9 C 7.56 g/m*3 7.9 C 1.6 km/h
1882 07-11-2020 17:40:00 7.8 C 7.51 g/m*3 7.8 C 0 km/h
1883 07-11-2020 17:45:00 7.7 C 7.46 g/m*3 7.7 C 3.2 km/h
1884 07-11-2020 17:50:00 7.7 C 7.46 g/m*3 7.7 C 3.2 km/h
1885 07-11-2020 17:55:00 7.7 C 7.46 g/m*3 7.7 C 4.8 km/h
1886 07-11-2020 18:00:00 7.6 C 7.41 g/m*3 7.6 C 3.2 km/h
1887 07-11-2020 18:05:00 7.6 C 7.49 g/m*3 7.6 C 4.8 km/h
1888 07-11-2020 18:10:00 7.6 C 7.49 g/m*3 6.6 C 6.4 km/h
1889 07-11-2020 18:15:00 7.5 C 7.44 g/m*3 7.5 C 4.8 km/h
1890 07-11-2020 18:20:00 7.5 C 7.44 g/m*3 7.5 C 3.2 km/h
1891 07-11-2020 18:25:00 7.4 C 7.4 g/m*3 7.4 C 3.2 km/h
1892 07-11-2020 18:30:00 7.4 C 7.4 g/m*3 7.4 C 4.8 km/h
1893 07-11-2020 18:35:00 7.4 C 7.4 g/m*3 7.4 C 4.8 km/h
1894 07-11-2020 18:40:00 7.3 C 7.35 g/m*3 7.3 C 3.2 km/h
1895 07-11-2020 18:45:00 7.3 C 7.35 g/m*3 7.3 C 4.8 km/h
1896 07-11-2020 18:50:00 7.2 C 7.3 g/m*3 7.2 C 3.2 km/h
1897 07-11-2020 18:55:00 7.2 C 7.3 g/m*3 7.2 C 3.2 km/h
1898 07-11-2020 19:00:00 7.1 C 7.25 g/m*3 7.1 C 0 km/h
1899 07-11-2020 19:05:00 7 C 7.21 g/m*3 7 C 0 km/h
1900 07-11-2020 19:10:00 6.9 C 7.16 g/m*3 6.9 C 4.8 km/h
Sensor: Nr:Datum:Temp:Abs-Feuchte:Windchill:Wind:
Aussen-T/F 1901 07-11-2020 19:15:00 6.8 C 7.11 g/m*3 6.8 C 4.8 km/h
1902 07-11-2020 19:20:00 6.8 C 7.11 g/m*3 6.8 C 4.8 km/h
1903 07-11-2020 19:25:00 6.8 C 7.11 g/m*3 6.8 C 4.8 km/h
1904 07-11-2020 19:30:00 6.8 C 7.11 g/m*3 6.8 C 0 km/h
1905 07-11-2020 19:35:00 6.8 C 7.11 g/m*3 6.8 C 0 km/h
1906 07-11-2020 19:40:00 6.7 C 7.07 g/m*3 6.7 C 0 km/h
1907 07-11-2020 19:45:00 6.7 C 7.07 g/m*3 6.7 C 0 km/h
1908 07-11-2020 19:50:00 6.7 C 7.07 g/m*3 6.7 C 0 km/h
1909 07-11-2020 19:55:00 6.6 C 7.1 g/m*3 6.6 C 0 km/h
1910 07-11-2020 20:00:00 6.6 C 7.1 g/m*3 6.6 C 0 km/h
1911 07-11-2020 20:05:00 6.6 C 7.1 g/m*3 6.6 C 0 km/h
1912 07-11-2020 20:10:00 6.6 C 7.02 g/m*3 6.6 C 0 km/h
1913 07-11-2020 20:15:00 6.4 C 6.93 g/m*3 6.4 C 0 km/h
1914 07-11-2020 20:20:00 6.4 C 6.93 g/m*3 6.4 C 0 km/h
1915 07-11-2020 20:25:00 6.3 C 6.88 g/m*3 6.3 C 0 km/h
1916 07-11-2020 20:30:00 6.3 C 6.88 g/m*3 6.3 C 0 km/h
1917 07-11-2020 20:35:00 6.2 C 6.91 g/m*3 6.2 C 0 km/h
1918 07-11-2020 20:40:00 6.2 C 6.84 g/m*3 6.2 C 0 km/h
1919 07-11-2020 20:45:00 6.1 C 6.79 g/m*3 6.1 C 0 km/h
1920 07-11-2020 20:50:00 6 C 6.82 g/m*3 6 C 0 km/h
1921 07-11-2020 20:55:00 5.9 C 6.78 g/m*3 5.9 C 0 km/h
1922 07-11-2020 21:00:00 5.9 C 6.78 g/m*3 5.9 C 0 km/h
1923 07-11-2020 21:05:00 5.8 C 6.73 g/m*3 5.8 C 0 km/h
1924 07-11-2020 21:10:00 5.7 C 6.69 g/m*3 5.7 C 0 km/h
1925 07-11-2020 21:15:00 5.7 C 6.69 g/m*3 5.7 C 0 km/h
Sensor: Nr:Datum:Temp:Abs-Feuchte:Windchill:Wind:
Aussen-T/F 1926 07-11-2020 21:20:00 5.6 C 6.65 g/m*3 5.6 C 0 km/h
1927 07-11-2020 21:25:00 5.6 C 6.65 g/m*3 5.6 C 0 km/h
1928 07-11-2020 21:30:00 5.6 C 6.65 g/m*3 5.6 C 0 km/h
1929 07-11-2020 21:35:00 5.6 C 6.65 g/m*3 5.6 C 0 km/h
1930 07-11-2020 21:40:00 5.6 C 6.65 g/m*3 5.6 C 0 km/h
1931 07-11-2020 21:45:00 5.4 C 6.56 g/m*3 5.4 C 0 km/h
1932 07-11-2020 21:50:00 5.4 C 6.56 g/m*3 5.4 C 0 km/h
1933 07-11-2020 21:55:00 5.3 C 6.52 g/m*3 5.3 C 0 km/h
1934 07-11-2020 22:00:00 5.3 C 6.52 g/m*3 5.3 C 0 km/h
1935 07-11-2020 22:05:00 5.2 C 6.47 g/m*3 5.2 C 0 km/h
1936 07-11-2020 22:10:00 5.2 C 6.47 g/m*3 5.2 C 0 km/h
1937 07-11-2020 22:15:00 5.1 C 6.43 g/m*3 5.1 C 0 km/h
1938 07-11-2020 22:20:00 5.1 C 6.43 g/m*3 5.1 C 0 km/h
1939 07-11-2020 22:25:00 5 C 6.46 g/m*3 5 C 0 km/h
1940 07-11-2020 22:30:00 4.9 C 6.41 g/m*3 4.9 C 0 km/h
1941 07-11-2020 22:35:00 4.8 C 6.37 g/m*3 4.8 C 0 km/h
1942 07-11-2020 22:40:00 4.7 C 6.26 g/m*3 4.7 C 0 km/h
1943 07-11-2020 22:45:00 4.7 C 6.33 g/m*3 4.7 C 0 km/h
1944 07-11-2020 22:50:00 4.6 C 6.29 g/m*3 4.6 C 0 km/h
1945 07-11-2020 22:55:00 4.5 C 6.24 g/m*3 4.5 C 0 km/h
1946 07-11-2020 23:00:00 4.4 C 6.2 g/m*3 4.4 C 0 km/h
1947 07-11-2020 23:05:00 4.3 C 6.16 g/m*3 4.3 C 0 km/h
1948 07-11-2020 23:10:00 4.3 C 6.16 g/m*3 4.3 C 0 km/h
1949 07-11-2020 23:15:00 4.3 C 6.16 g/m*3 4.3 C 0 km/h
1950 07-11-2020 23:20:00 4.3 C 6.16 g/m*3 4.3 C 0 km/h
Sensor: Nr:Datum:Temp:Abs-Feuchte:Windchill:Wind:
Aussen-T/F 1951 07-11-2020 23:25:00 4.2 C 6.12 g/m*3 4.2 C 0 km/h
1952 07-11-2020 23:30:00 4.2 C 6.12 g/m*3 4.2 C 0 km/h
1953 07-11-2020 23:35:00 4.2 C 6.12 g/m*3 4.2 C 0 km/h
1954 07-11-2020 23:40:00 4.2 C 6.12 g/m*3 4.2 C 0 km/h
1955 07-11-2020 23:45:00 4.1 C 6.08 g/m*3 4.1 C 0 km/h
1956 07-11-2020 23:50:00 4.1 C 6.08 g/m*3 4.1 C 0 km/h
1957 07-11-2020 23:55:00 4.1 C 6.08 g/m*3 4.1 C 0 km/h
1958 08-11-2020 00:00:00 4.1 C 6.14 g/m*3 4.1 C 0 km/h
1959 08-11-2020 00:05:00 4.1 C 6.14 g/m*3 4.1 C 0 km/h
1960 08-11-2020 00:10:00 4.1 C 6.14 g/m*3 4.1 C 0 km/h
1961 08-11-2020 00:15:00 4 C 6.04 g/m*3 4 C 0 km/h
1962 08-11-2020 00:20:00 4 C 6.04 g/m*3 4 C 0 km/h
1963 08-11-2020 00:25:00 3.9 C 6 g/m*3 3.9 C 0 km/h
1964 08-11-2020 00:30:00 3.9 C 6.06 g/m*3 3.9 C 0 km/h
1965 08-11-2020 00:35:00 3.9 C 6.06 g/m*3 3.9 C 0 km/h
1966 08-11-2020 00:40:00 3.9 C 6.06 g/m*3 3.9 C 0 km/h
1967 08-11-2020 00:45:00 3.9 C 6.06 g/m*3 3.9 C 0 km/h
1968 08-11-2020 00:50:00 3.8 C 6.02 g/m*3 3.8 C 0 km/h
1969 08-11-2020 00:55:00 3.8 C 6.02 g/m*3 3.8 C 0 km/h
1970 08-11-2020 01:00:00 3.8 C 6.02 g/m*3 3.8 C 0 km/h
1971 08-11-2020 01:05:00 3.7 C 5.98 g/m*3 3.7 C 0 km/h
1972 08-11-2020 01:10:00 3.7 C 5.98 g/m*3 3.7 C 0 km/h
1973 08-11-2020 01:15:00 3.6 C 5.94 g/m*3 3.6 C 0 km/h
1974 08-11-2020 01:20:00 3.6 C 5.94 g/m*3 3.6 C 0 km/h
1975 08-11-2020 01:25:00 3.4 C 5.8 g/m*3 3.4 C 0 km/h
Sensor: Nr:Datum:Temp:Abs-Feuchte:Windchill:Wind:
Aussen-T/F 1976 08-11-2020 01:30:00 3.4 C 5.8 g/m*3 3.4 C 0 km/h
1977 08-11-2020 01:35:00 3.3 C 5.82 g/m*3 3.3 C 0 km/h
1978 08-11-2020 01:40:00 3.3 C 5.82 g/m*3 3.3 C 0 km/h
1979 08-11-2020 01:45:00 3.3 C 5.82 g/m*3 3.3 C 0 km/h
1980 08-11-2020 01:50:00 3.2 C 5.79 g/m*3 3.2 C 0 km/h
1981 08-11-2020 01:55:00 3.2 C 5.79 g/m*3 3.2 C 0 km/h
1982 08-11-2020 02:00:00 3.2 C 5.79 g/m*3 3.2 C 0 km/h
1983 08-11-2020 02:05:00 3.2 C 5.79 g/m*3 3.2 C 0 km/h
1984 08-11-2020 02:10:00 3.2 C 5.79 g/m*3 3.2 C 0 km/h
1985 08-11-2020 02:15:00 3.3 C 5.82 g/m*3 3.3 C 0 km/h
1986 08-11-2020 02:20:00 3.3 C 5.82 g/m*3 3.3 C 0 km/h
1987 08-11-2020 02:25:00 3.3 C 5.82 g/m*3 3.3 C 0 km/h
1988 08-11-2020 02:30:00 3.3 C 5.82 g/m*3 3.3 C 0 km/h
1989 08-11-2020 02:35:00 3.3 C 5.82 g/m*3 3.3 C 0 km/h
1990 08-11-2020 02:40:00 3.2 C 5.79 g/m*3 3.2 C 0 km/h
1991 08-11-2020 02:45:00 3.1 C 5.75 g/m*3 3.1 C 0 km/h
1992 08-11-2020 02:50:00 3.1 C 5.75 g/m*3 3.1 C 0 km/h
1993 08-11-2020 02:55:00 3 C 5.71 g/m*3 3 C 0 km/h
1994 08-11-2020 03:00:00 2.9 C 5.67 g/m*3 2.9 C 0 km/h
1995 08-11-2020 03:05:00 2.9 C 5.67 g/m*3 2.9 C 0 km/h
1996 08-11-2020 03:10:00 2.8 C 5.63 g/m*3 2.8 C 0 km/h
1997 08-11-2020 03:15:00 2.8 C 5.63 g/m*3 2.8 C 0 km/h
1998 08-11-2020 03:20:00 2.8 C 5.63 g/m*3 2.8 C 0 km/h
1999 08-11-2020 03:25:00 2.8 C 5.63 g/m*3 2.8 C 0 km/h
2000 08-11-2020 03:30:00 2.8 C 5.63 g/m*3 2.8 C 0 km/h
Sensor: Nr:Datum:Temp:Abs-Feuchte:Windchill:Wind:
Aussen-T/F 2001 08-11-2020 03:35:00 2.9 C 5.67 g/m*3 2.9 C 0 km/h
2002 08-11-2020 03:40:00 2.9 C 5.67 g/m*3 2.9 C 0 km/h
2003 08-11-2020 03:45:00 2.9 C 5.67 g/m*3 2.9 C 0 km/h
2004 08-11-2020 03:50:00 2.8 C 5.63 g/m*3 2.8 C 0 km/h
2005 08-11-2020 03:55:00 2.8 C 5.63 g/m*3 2.8 C 0 km/h
2006 08-11-2020 04:00:00 2.8 C 5.63 g/m*3 2.8 C 0 km/h
2007 08-11-2020 04:05:00 2.8 C 5.63 g/m*3 2.8 C 0 km/h
2008 08-11-2020 04:10:00 2.8 C 5.63 g/m*3 2.8 C 0 km/h
2009 08-11-2020 04:15:00 2.9 C 5.73 g/m*3 2.9 C 0 km/h
2010 08-11-2020 04:20:00 2.8 C 5.63 g/m*3 2.8 C 0 km/h
2011 08-11-2020 04:25:00 2.7 C 5.59 g/m*3 2.7 C 0 km/h
2012 08-11-2020 04:30:00 2.6 C 5.56 g/m*3 2.6 C 0 km/h
2013 08-11-2020 04:35:00 2.5 C 5.52 g/m*3 2.5 C 0 km/h
2014 08-11-2020 04:40:00 2.4 C 5.48 g/m*3 2.4 C 0 km/h
2015 08-11-2020 04:45:00 2.4 C 5.48 g/m*3 2.4 C 0 km/h
2016 08-11-2020 04:50:00 2.4 C 5.48 g/m*3 2.4 C 0 km/h
2017 08-11-2020 04:55:00 2.4 C 5.48 g/m*3 2.4 C 0 km/h
2018 08-11-2020 05:00:00 2.5 C 5.58 g/m*3 2.5 C 0 km/h
2019 08-11-2020 05:05:00 2.6 C 5.61 g/m*3 2.6 C 0 km/h
2020 08-11-2020 05:10:00 2.7 C 5.65 g/m*3 2.7 C 0 km/h
2021 08-11-2020 05:15:00 2.7 C 5.65 g/m*3 2.7 C 0 km/h
2022 08-11-2020 05:20:00 2.7 C 5.65 g/m*3 2.7 C 0 km/h
2023 08-11-2020 05:25:00 2.7 C 5.65 g/m*3 2.7 C 0 km/h
2024 08-11-2020 05:30:00 2.7 C 5.65 g/m*3 2.7 C 0 km/h
2025 08-11-2020 05:35:00 2.7 C 5.59 g/m*3 2.7 C 0 km/h
Sensor: Nr:Datum:Temp:Abs-Feuchte:Windchill:Wind:
Aussen-T/F 2026 08-11-2020 05:40:00 2.6 C 5.56 g/m*3 2.6 C 0 km/h
2027 08-11-2020 05:45:00 2.5 C 5.58 g/m*3 2.5 C 0 km/h
2028 08-11-2020 05:50:00 2.4 C 5.48 g/m*3 2.4 C 0 km/h
2029 08-11-2020 05:55:00 2.3 C 5.44 g/m*3 2.3 C 0 km/h
2030 08-11-2020 06:00:00 2.3 C 5.44 g/m*3 2.3 C 0 km/h
2031 08-11-2020 06:05:00 2.3 C 5.44 g/m*3 2.3 C 0 km/h
2032 08-11-2020 06:10:00 2.3 C 5.44 g/m*3 2.3 C 0 km/h
2033 08-11-2020 06:15:00 2.3 C 5.44 g/m*3 2.3 C 0 km/h
2034 08-11-2020 06:20:00 2.4 C 5.54 g/m*3 2.4 C 0 km/h
2035 08-11-2020 06:25:00 2.5 C 5.58 g/m*3 2.5 C 0 km/h
2036 08-11-2020 06:30:00 2.6 C 5.61 g/m*3 2.6 C 0 km/h
2037 08-11-2020 06:35:00 2.7 C 5.65 g/m*3 2.7 C 0 km/h
2038 08-11-2020 06:40:00 2.7 C 5.65 g/m*3 2.7 C 0 km/h
2039 08-11-2020 06:45:00 2.7 C 5.65 g/m*3 2.7 C 0 km/h
2040 08-11-2020 06:50:00 2.7 C 5.65 g/m*3 2.7 C 0 km/h
2041 08-11-2020 06:55:00 2.7 C 5.65 g/m*3 2.7 C 0 km/h
2042 08-11-2020 07:00:00 2.7 C 5.65 g/m*3 2.7 C 0 km/h
2043 08-11-2020 07:05:00 2.6 C 5.61 g/m*3 2.6 C 0 km/h
2044 08-11-2020 07:10:00 2.5 C 5.58 g/m*3 2.5 C 0 km/h
2045 08-11-2020 07:15:00 2.5 C 5.58 g/m*3 2.5 C 0 km/h
2046 08-11-2020 07:20:00 2.6 C 5.61 g/m*3 2.6 C 0 km/h
2047 08-11-2020 07:25:00 2.5 C 5.58 g/m*3 2.5 C 0 km/h
2048 08-11-2020 07:30:00 2.4 C 5.54 g/m*3 2.4 C 0 km/h
2049 08-11-2020 07:35:00 2.4 C 5.54 g/m*3 2.4 C 0 km/h
2050 08-11-2020 07:40:00 2.3 C 5.5 g/m*3 2.3 C 0 km/h
Sensor: Nr:Datum:Temp:Abs-Feuchte:Windchill:Wind:
Aussen-T/F 2051 08-11-2020 07:45:00 2.2 C 5.46 g/m*3 2.2 C 0 km/h
2052 08-11-2020 07:50:00 2.2 C 5.46 g/m*3 2.2 C 0 km/h
2053 08-11-2020 07:55:00 2.2 C 5.46 g/m*3 2.2 C 0 km/h
2054 08-11-2020 08:00:00 2.2 C 5.46 g/m*3 2.2 C 0 km/h
2055 08-11-2020 08:05:00 2.2 C 5.46 g/m*3 2.2 C 0 km/h
2056 08-11-2020 08:10:00 2.3 C 5.5 g/m*3 2.3 C 0 km/h
2057 08-11-2020 08:15:00 2.5 C 5.58 g/m*3 2.5 C 0 km/h
2058 08-11-2020 08:20:00 2.7 C 5.65 g/m*3 2.7 C 0 km/h
2059 08-11-2020 08:25:00 2.8 C 5.69 g/m*3 2.8 C 0 km/h
2060 08-11-2020 08:30:00 2.9 C 5.73 g/m*3 2.9 C 0 km/h
2061 08-11-2020 08:35:00 3 C 5.77 g/m*3 3 C 0 km/h
2062 08-11-2020 08:40:00 3.1 C 5.81 g/m*3 3.1 C 0 km/h
2063 08-11-2020 08:45:00 3.1 C 5.81 g/m*3 3.1 C 0 km/h
2064 08-11-2020 08:50:00 3.2 C 5.85 g/m*3 3.2 C 0 km/h
2065 08-11-2020 08:55:00 3.3 C 5.88 g/m*3 3.3 C 0 km/h
2066 08-11-2020 09:00:00 3.3 C 5.88 g/m*3 3.3 C 0 km/h
2067 08-11-2020 09:05:00 3.4 C 5.92 g/m*3 3.4 C 0 km/h
2068 08-11-2020 09:10:00 3.5 C 5.96 g/m*3 3.5 C 0 km/h
2069 08-11-2020 09:15:00 3.7 C 6.04 g/m*3 3.7 C 0 km/h
2070 08-11-2020 09:20:00 3.8 C 6.09 g/m*3 3.8 C 0 km/h
2071 08-11-2020 09:25:00 3.9 C 6.13 g/m*3 3.9 C 0 km/h
2072 08-11-2020 09:30:00 4 C 6.17 g/m*3 4 C 0 km/h
2073 08-11-2020 09:35:00 4.1 C 6.21 g/m*3 4.1 C 0 km/h
2074 08-11-2020 09:40:00 4.2 C 6.25 g/m*3 4.2 C 0 km/h
2075 08-11-2020 09:45:00 4.3 C 6.36 g/m*3 4.3 C 0 km/h
Sensor: Nr:Datum:Temp:Abs-Feuchte:Windchill:Wind:
Aussen-T/F 2076 08-11-2020 09:50:00 4.4 C 6.4 g/m*3 4.4 C 0 km/h
2077 08-11-2020 09:55:00 4.6 C 6.42 g/m*3 4.6 C 0 km/h
2078 08-11-2020 10:00:00 4.7 C 6.53 g/m*3 4.7 C 0 km/h
2079 08-11-2020 10:05:00 4.8 C 6.57 g/m*3 4.8 C 0 km/h
2080 08-11-2020 10:10:00 4.9 C 6.55 g/m*3 4.9 C 0 km/h
2081 08-11-2020 10:15:00 5 C 6.66 g/m*3 5 C 0 km/h
2082 08-11-2020 10:20:00 5.1 C 6.7 g/m*3 5.1 C 0 km/h
2083 08-11-2020 10:25:00 5.2 C 6.68 g/m*3 5.2 C 0 km/h
2084 08-11-2020 10:30:00 5.3 C 6.79 g/m*3 5.3 C 0 km/h
2085 08-11-2020 10:35:00 5.5 C 6.88 g/m*3 5.5 C 0 km/h
2086 08-11-2020 10:40:00 5.6 C 6.93 g/m*3 5.6 C 0 km/h
2087 08-11-2020 10:45:00 5.7 C 6.97 g/m*3 5.7 C 0 km/h
2088 08-11-2020 10:50:00 5.9 C 7.07 g/m*3 5.9 C 0 km/h
2089 08-11-2020 10:55:00 6.1 C 7.16 g/m*3 6.1 C 0 km/h
2090 08-11-2020 11:00:00 6.2 C 7.21 g/m*3 6.2 C 0 km/h
2091 08-11-2020 11:05:00 6.3 C 7.25 g/m*3 6.3 C 0 km/h
2092 08-11-2020 11:10:00 6.6 C 7.4 g/m*3 6.6 C 0 km/h
2093 08-11-2020 11:15:00 6.7 C 7.45 g/m*3 6.7 C 0 km/h
2094 08-11-2020 11:20:00 6.8 C 7.5 g/m*3 6.8 C 0 km/h
2095 08-11-2020 11:25:00 6.9 C 7.54 g/m*3 6.9 C 0 km/h
2096 08-11-2020 11:30:00 7.1 C 7.64 g/m*3 7.1 C 0 km/h
2097 08-11-2020 11:35:00 7.2 C 7.69 g/m*3 7.2 C 0 km/h
2098 08-11-2020 11:40:00 7.3 C 7.74 g/m*3 7.3 C 0 km/h
2099 08-11-2020 11:45:00 7.5 C 7.84 g/m*3 7.5 C 0 km/h
2100 08-11-2020 11:50:00 7.7 C 7.95 g/m*3 7.7 C 0 km/h
Sensor: Nr:Datum:Temp:Abs-Feuchte:Windchill:Wind:
Aussen-T/F 2101 08-11-2020 11:55:00 7.8 C 7.92 g/m*3 7.8 C 0 km/h
2102 08-11-2020 12:00:00 7.9 C 8.05 g/m*3 7.9 C 0 km/h
2103 08-11-2020 12:05:00 8.1 C 8.07 g/m*3 8.1 C 0 km/h
2104 08-11-2020 12:10:00 8.3 C 8.26 g/m*3 8.3 C 0 km/h
2105 08-11-2020 12:15:00 8.5 C 8.28 g/m*3 8.5 C 0 km/h
2106 08-11-2020 12:20:00 8.7 C 8.48 g/m*3 8.7 C 0 km/h
2107 08-11-2020 12:25:00 8.8 C 8.44 g/m*3 8.8 C 0 km/h
2108 08-11-2020 12:30:00 8.9 C 8.5 g/m*3 8.9 C 0 km/h
2109 08-11-2020 12:35:00 9.1 C 8.61 g/m*3 9.1 C 0 km/h
2110 08-11-2020 12:40:00 9.2 C 8.66 g/m*3 9.2 C 0 km/h
2111 08-11-2020 12:45:00 9.3 C 8.72 g/m*3 9.3 C 0 km/h
2112 08-11-2020 12:50:00 9.4 C 8.77 g/m*3 9.4 C 0 km/h
2113 08-11-2020 12:55:00 9.5 C 8.74 g/m*3 9.5 C 0 km/h
2114 08-11-2020 13:00:00 9.6 C 8.79 g/m*3 9.6 C 0 km/h
2115 08-11-2020 13:05:00 9.8 C 8.91 g/m*3 9.8 C 0 km/h
2116 08-11-2020 13:10:00 9.9 C 8.96 g/m*3 9.9 C 0 km/h
2117 08-11-2020 13:15:00 10.1 C 9.08 g/m*3 10.1 C 0 km/h
2118 08-11-2020 13:20:00 10.2 C 9.14 g/m*3 10.2 C 0 km/h
2119 08-11-2020 13:25:00 10.3 C 9.19 g/m*3 10.3 C 0 km/h
2120 08-11-2020 13:30:00 10.3 C 9.1 g/m*3 10.3 C 0 km/h
2121 08-11-2020 13:35:00 10.4 C 9.06 g/m*3 10.4 C 0 km/h
2122 08-11-2020 13:40:00 10.5 C 9.12 g/m*3 10.5 C 0 km/h
2123 08-11-2020 13:45:00 10.7 C 9.13 g/m*3 10.7 C 0 km/h
2124 08-11-2020 13:50:00 10.8 C 9.19 g/m*3 10.8 C 0 km/h
2125 08-11-2020 13:55:00 10.9 C 9.15 g/m*3 10.9 C 0 km/h
Sensor: Nr:Datum:Temp:Abs-Feuchte:Windchill:Wind:
Aussen-T/F 2126 08-11-2020 14:00:00 11.1 C 9.37 g/m*3 11.1 C 0 km/h
2127 08-11-2020 14:05:00 11.2 C 9.33 g/m*3 11.2 C 0 km/h
2128 08-11-2020 14:10:00 11.4 C 9.44 g/m*3 11.4 C 0 km/h
2129 08-11-2020 14:15:00 11.6 C 9.46 g/m*3 11.6 C 0 km/h
2130 08-11-2020 14:20:00 11.8 C 9.58 g/m*3 11.8 C 0 km/h
2131 08-11-2020 14:25:00 11.9 C 9.53 g/m*3 11.9 C 0 km/h
2132 08-11-2020 14:30:00 12 C 9.48 g/m*3 12 C 0 km/h
2133 08-11-2020 14:35:00 12.2 C 9.5 g/m*3 12.2 C 0 km/h
2134 08-11-2020 14:40:00 12.2 C 9.39 g/m*3 12.2 C 0 km/h
2135 08-11-2020 14:45:00 12.3 C 9.56 g/m*3 12.3 C 0 km/h
2136 08-11-2020 14:50:00 12.4 C 9.62 g/m*3 12.4 C 0 km/h
2137 08-11-2020 14:55:00 12.5 C 9.78 g/m*3 12.5 C 0 km/h
2138 08-11-2020 15:00:00 12.6 C 9.85 g/m*3 12.6 C 0 km/h
2139 08-11-2020 15:05:00 12.7 C 9.8 g/m*3 12.7 C 0 km/h
2140 08-11-2020 15:10:00 12.7 C 9.8 g/m*3 12.7 C 0 km/h
2141 08-11-2020 15:15:00 12.7 C 9.8 g/m*3 12.7 C 0 km/h
2142 08-11-2020 15:20:00 12.7 C 9.68 g/m*3 12.7 C 0 km/h
2143 08-11-2020 15:25:00 12.7 C 9.8 g/m*3 12.7 C 0 km/h
2144 08-11-2020 15:30:00 12.8 C 9.86 g/m*3 12.8 C 0 km/h
2145 08-11-2020 15:35:00 12.8 C 9.74 g/m*3 12.8 C 0 km/h
2146 08-11-2020 15:40:00 12.8 C 9.63 g/m*3 12.8 C 0 km/h
2147 08-11-2020 15:45:00 12.8 C 9.74 g/m*3 12.8 C 0 km/h
2148 08-11-2020 15:50:00 12.8 C 9.74 g/m*3 12.8 C 0 km/h
2149 08-11-2020 15:55:00 12.7 C 9.68 g/m*3 12.7 C 0 km/h
2150 08-11-2020 16:00:00 12.7 C 9.68 g/m*3 12.7 C 0 km/h
Sensor: Nr:Datum:Temp:Abs-Feuchte:Windchill:Wind:
Aussen-T/F 2151 08-11-2020 16:05:00 12.6 C 9.62 g/m*3 12.6 C 0 km/h
2152 08-11-2020 16:10:00 12.4 C 9.62 g/m*3 12.4 C 0 km/h
2153 08-11-2020 16:15:00 12.3 C 9.56 g/m*3 12.3 C 0 km/h
2154 08-11-2020 16:20:00 12.3 C 9.56 g/m*3 12.3 C 0 km/h
2155 08-11-2020 16:25:00 12.2 C 9.6 g/m*3 12.2 C 0 km/h
2156 08-11-2020 16:30:00 12.1 C 9.54 g/m*3 12.1 C 0 km/h
2157 08-11-2020 16:35:00 12 C 9.48 g/m*3 12 C 0 km/h
2158 08-11-2020 16:40:00 11.9 C 9.43 g/m*3 11.9 C 0 km/h
2159 08-11-2020 16:45:00 11.8 C 9.37 g/m*3 11.8 C 0 km/h
2160 08-11-2020 16:50:00 11.6 C 9.25 g/m*3 11.6 C 0 km/h
2161 08-11-2020 16:55:00 11.5 C 9.3 g/m*3 11.5 C 0 km/h
2162 08-11-2020 17:00:00 11.4 C 9.24 g/m*3 11.4 C 0 km/h
2163 08-11-2020 17:05:00 11.3 C 9.18 g/m*3 11.3 C 0 km/h
2164 08-11-2020 17:10:00 11.2 C 9.12 g/m*3 11.2 C 0 km/h
2165 08-11-2020 17:15:00 11.2 C 9.22 g/m*3 11.2 C 0 km/h
2166 08-11-2020 17:20:00 11.1 C 9.17 g/m*3 11.1 C 0 km/h
2167 08-11-2020 17:25:00 11.1 C 9.17 g/m*3 11.1 C 0 km/h
2168 08-11-2020 17:30:00 11 C 9.11 g/m*3 11 C 0 km/h
2169 08-11-2020 17:35:00 10.9 C 9.15 g/m*3 10.9 C 0 km/h
2170 08-11-2020 17:40:00 10.9 C 9.15 g/m*3 10.9 C 0 km/h
2171 08-11-2020 17:45:00 10.9 C 9.15 g/m*3 10.9 C 0 km/h
2172 08-11-2020 17:50:00 10.8 C 9.09 g/m*3 10.8 C 0 km/h
2173 08-11-2020 17:55:00 10.8 C 9.09 g/m*3 10.8 C 0 km/h
2174 08-11-2020 18:00:00 10.8 C 9.09 g/m*3 10.8 C 0 km/h
2175 08-11-2020 18:05:00 10.7 C 9.04 g/m*3 10.7 C 0 km/h
Sensor: Nr:Datum:Temp:Abs-Feuchte:Windchill:Wind:
Aussen-T/F 2176 08-11-2020 18:10:00 10.7 C 9.13 g/m*3 10.7 C 0 km/h
2177 08-11-2020 18:15:00 10.7 C 9.13 g/m*3 10.7 C 0 km/h
2178 08-11-2020 18:20:00 10.7 C 9.13 g/m*3 10.7 C 0 km/h
2179 08-11-2020 18:25:00 10.7 C 9.13 g/m*3 10.7 C 0 km/h
2180 08-11-2020 18:30:00 10.7 C 9.13 g/m*3 10.7 C 0 km/h
2181 08-11-2020 18:35:00 10.7 C 9.13 g/m*3 10.7 C 0 km/h
2182 08-11-2020 18:40:00 10.7 C 9.13 g/m*3 10.7 C 0 km/h
2183 08-11-2020 18:45:00 10.6 C 9.08 g/m*3 10.6 C 0 km/h
2184 08-11-2020 18:50:00 10.6 C 9.08 g/m*3 10.6 C 0 km/h
2185 08-11-2020 18:55:00 10.6 C 9.08 g/m*3 10.6 C 0 km/h
2186 08-11-2020 19:00:00 10.6 C 9.08 g/m*3 10.6 C 0 km/h
2187 08-11-2020 19:05:00 10.6 C 9.17 g/m*3 10.6 C 0 km/h
2188 08-11-2020 19:10:00 10.6 C 9.17 g/m*3 10.6 C 0 km/h
2189 08-11-2020 19:15:00 10.6 C 9.17 g/m*3 10.6 C 0 km/h
2190 08-11-2020 19:20:00 10.6 C 9.17 g/m*3 10.6 C 0 km/h
2191 08-11-2020 19:25:00 10.6 C 9.17 g/m*3 10.6 C 0 km/h
2192 08-11-2020 19:30:00 10.6 C 9.17 g/m*3 10.6 C 0 km/h
2193 08-11-2020 19:35:00 10.6 C 9.17 g/m*3 10.6 C 0 km/h
2194 08-11-2020 19:40:00 10.6 C 9.17 g/m*3 10.6 C 0 km/h
2195 08-11-2020 19:45:00 10.5 C 9.12 g/m*3 10.5 C 0 km/h
2196 08-11-2020 19:50:00 10.5 C 9.12 g/m*3 10.5 C 0 km/h
2197 08-11-2020 19:55:00 10.4 C 9.16 g/m*3 10.4 C 0 km/h
2198 08-11-2020 20:00:00 10.4 C 9.16 g/m*3 10.4 C 0 km/h
2199 08-11-2020 20:05:00 10.4 C 9.16 g/m*3 10.4 C 0 km/h
2200 08-11-2020 20:10:00 10.4 C 9.16 g/m*3 10.4 C 0 km/h
Sensor: Nr:Datum:Temp:Abs-Feuchte:Windchill:Wind:
Aussen-T/F 2201 08-11-2020 20:15:00 10.4 C 9.16 g/m*3 10.4 C 0 km/h
2202 08-11-2020 20:20:00 10.3 C 9.1 g/m*3 10.3 C 0 km/h
2203 08-11-2020 20:25:00 10.3 C 9.1 g/m*3 10.3 C 0 km/h
2204 08-11-2020 20:30:00 10.2 C 8.95 g/m*3 10.2 C 0 km/h
2205 08-11-2020 20:35:00 10.2 C 8.95 g/m*3 10.2 C 0 km/h
2206 08-11-2020 20:40:00 10.1 C 8.89 g/m*3 10.1 C 0 km/h
2207 08-11-2020 20:45:00 10.1 C 8.98 g/m*3 10.1 C 0 km/h
2208 08-11-2020 20:50:00 10.1 C 8.98 g/m*3 10.1 C 0 km/h
2209 08-11-2020 20:55:00 10.1 C 8.98 g/m*3 10.1 C 0 km/h
2210 08-11-2020 21:00:00 10.1 C 8.98 g/m*3 10.1 C 0 km/h
2211 08-11-2020 21:05:00 10.1 C 8.98 g/m*3 10.1 C 0 km/h
2212 08-11-2020 21:10:00 10.1 C 8.98 g/m*3 10.1 C 0 km/h
2213 08-11-2020 21:15:00 10.1 C 8.98 g/m*3 10.1 C 0 km/h
2214 08-11-2020 21:20:00 10.1 C 8.98 g/m*3 10.1 C 0 km/h
2215 08-11-2020 21:25:00 10 C 8.93 g/m*3 10 C 0 km/h
2216 08-11-2020 21:30:00 10 C 8.93 g/m*3 10 C 0 km/h
2217 08-11-2020 21:35:00 9.9 C 8.87 g/m*3 9.9 C 0 km/h
2218 08-11-2020 21:40:00 9.9 C 8.87 g/m*3 9.9 C 0 km/h
2219 08-11-2020 21:45:00 9.8 C 8.81 g/m*3 9.8 C 0 km/h
2220 08-11-2020 21:50:00 9.8 C 8.81 g/m*3 9.8 C 0 km/h
2221 08-11-2020 21:55:00 9.8 C 8.81 g/m*3 9.8 C 0 km/h
2222 08-11-2020 22:00:00 9.7 C 8.76 g/m*3 9.7 C 0 km/h
2223 08-11-2020 22:05:00 9.7 C 8.76 g/m*3 9.7 C 0 km/h
2224 08-11-2020 22:10:00 9.7 C 8.76 g/m*3 9.7 C 0 km/h
2225 08-11-2020 22:15:00 9.7 C 8.76 g/m*3 9.7 C 0 km/h
Sensor: Nr:Datum:Temp:Abs-Feuchte:Windchill:Wind:
Aussen-T/F 2226 08-11-2020 22:20:00 9.7 C 8.76 g/m*3 9.7 C 0 km/h
2227 08-11-2020 22:25:00 9.6 C 8.7 g/m*3 9.6 C 0 km/h
2228 08-11-2020 22:30:00 9.6 C 8.7 g/m*3 9.6 C 0 km/h
2229 08-11-2020 22:35:00 9.6 C 8.7 g/m*3 9.6 C 0 km/h
2230 08-11-2020 22:40:00 9.6 C 8.7 g/m*3 9.6 C 0 km/h
2231 08-11-2020 22:45:00 9.6 C 8.7 g/m*3 9.6 C 0 km/h
2232 08-11-2020 22:50:00 9.5 C 8.65 g/m*3 9.5 C 0 km/h
2233 08-11-2020 22:55:00 9.4 C 8.59 g/m*3 9.4 C 0 km/h
2234 08-11-2020 23:00:00 9.4 C 8.59 g/m*3 9.4 C 0 km/h
2235 08-11-2020 23:05:00 9.4 C 8.59 g/m*3 9.4 C 0 km/h
2236 08-11-2020 23:10:00 9.4 C 8.59 g/m*3 9.4 C 0 km/h
2237 08-11-2020 23:15:00 9.4 C 8.59 g/m*3 9.4 C 0 km/h
2238 08-11-2020 23:20:00 9.4 C 8.59 g/m*3 9.4 C 0 km/h
2239 08-11-2020 23:25:00 9.4 C 8.59 g/m*3 9.4 C 0 km/h
2240 08-11-2020 23:30:00 9.4 C 8.59 g/m*3 9.4 C 0 km/h
2241 08-11-2020 23:35:00 9.4 C 8.59 g/m*3 9.4 C 0 km/h
2242 08-11-2020 23:40:00 9.4 C 8.59 g/m*3 9.4 C 0 km/h
2243 08-11-2020 23:45:00 9.4 C 8.59 g/m*3 9.4 C 0 km/h
2244 08-11-2020 23:50:00 9.4 C 8.68 g/m*3 9.4 C 0 km/h
2245 08-11-2020 23:55:00 9.5 C 8.74 g/m*3 9.5 C 0 km/h
2246 09-11-2020 00:00:00 9.6 C 8.79 g/m*3 9.6 C 0 km/h
2247 09-11-2020 00:05:00 9.6 C 8.79 g/m*3 9.6 C 0 km/h
2248 09-11-2020 00:10:00 9.6 C 8.79 g/m*3 9.6 C 0 km/h
2249 09-11-2020 00:15:00 9.5 C 8.74 g/m*3 9.5 C 0 km/h
2250 09-11-2020 00:20:00 9.5 C 8.74 g/m*3 9.5 C 0 km/h
Sensor: Nr:Datum:Temp:Abs-Feuchte:Windchill:Wind:
Aussen-T/F 2251 09-11-2020 00:25:00 9.5 C 8.74 g/m*3 9.5 C 0 km/h
2252 09-11-2020 00:30:00 9.4 C 8.68 g/m*3 9.4 C 0 km/h
2253 09-11-2020 00:35:00 9.4 C 8.68 g/m*3 9.4 C 0 km/h
2254 09-11-2020 00:40:00 9.4 C 8.68 g/m*3 9.4 C 0 km/h
2255 09-11-2020 00:45:00 9.3 C 8.63 g/m*3 9.3 C 0 km/h
2256 09-11-2020 00:50:00 9.3 C 8.63 g/m*3 9.3 C 0 km/h
2257 09-11-2020 00:55:00 9.3 C 8.63 g/m*3 9.3 C 0 km/h
2258 09-11-2020 01:00:00 9.4 C 8.68 g/m*3 9.4 C 0 km/h
2259 09-11-2020 01:05:00 9.4 C 8.68 g/m*3 9.4 C 0 km/h
2260 09-11-2020 01:10:00 9.4 C 8.68 g/m*3 9.4 C 0 km/h
2261 09-11-2020 01:15:00 9.4 C 8.68 g/m*3 9.4 C 0 km/h
2262 09-11-2020 01:20:00 9.4 C 8.68 g/m*3 9.4 C 0 km/h
2263 09-11-2020 01:25:00 9.4 C 8.68 g/m*3 9.4 C 0 km/h
2264 09-11-2020 01:30:00 9.4 C 8.68 g/m*3 9.4 C 0 km/h
2265 09-11-2020 01:35:00 9.4 C 8.68 g/m*3 9.4 C 0 km/h
2266 09-11-2020 01:40:00 9.4 C 8.68 g/m*3 9.4 C 0 km/h
2267 09-11-2020 01:45:00 9.4 C 8.68 g/m*3 9.4 C 0 km/h
2268 09-11-2020 01:50:00 9.4 C 8.68 g/m*3 9.4 C 0 km/h
2269 09-11-2020 01:55:00 9.4 C 8.68 g/m*3 9.4 C 0 km/h
2270 09-11-2020 02:00:00 9.4 C 8.68 g/m*3 9.4 C 0 km/h
2271 09-11-2020 02:05:00 9.4 C 8.68 g/m*3 9.4 C 0 km/h
2272 09-11-2020 02:10:00 9.4 C 8.68 g/m*3 9.4 C 0 km/h
2273 09-11-2020 02:15:00 9.4 C 8.68 g/m*3 9.4 C 0 km/h
2274 09-11-2020 02:20:00 9.4 C 8.68 g/m*3 9.4 C 0 km/h
2275 09-11-2020 02:25:00 9.4 C 8.68 g/m*3 9.4 C 0 km/h
Sensor: Nr:Datum:Temp:Abs-Feuchte:Windchill:Wind:
Aussen-T/F 2276 09-11-2020 02:30:00 9.4 C 8.68 g/m*3 9.4 C 0 km/h
2277 09-11-2020 02:35:00 9.3 C 8.63 g/m*3 9.3 C 0 km/h
2278 09-11-2020 02:40:00 9.3 C 8.63 g/m*3 9.3 C 0 km/h
2279 09-11-2020 02:45:00 9.3 C 8.63 g/m*3 9.3 C 0 km/h
2280 09-11-2020 02:50:00 9.3 C 8.63 g/m*3 9.3 C 0 km/h
2281 09-11-2020 02:55:00 9.3 C 8.63 g/m*3 9.3 C 0 km/h
2282 09-11-2020 03:00:00 9.4 C 8.68 g/m*3 9.4 C 0 km/h
2283 09-11-2020 03:05:00 9.4 C 8.68 g/m*3 9.4 C 0 km/h
2284 09-11-2020 03:10:00 9.4 C 8.68 g/m*3 9.4 C 0 km/h
2285 09-11-2020 03:15:00 9.3 C 8.63 g/m*3 9.3 C 0 km/h
2286 09-11-2020 03:20:00 9.3 C 8.63 g/m*3 9.3 C 0 km/h
2287 09-11-2020 03:25:00 9.3 C 8.63 g/m*3 8.56 C 6.4 km/h
2288 09-11-2020 03:30:00 9.3 C 8.63 g/m*3 8.16 C 8.1 km/h
2289 09-11-2020 03:35:00 9.3 C 8.72 g/m*3 9.3 C 1.6 km/h
2290 09-11-2020 03:40:00 9.3 C 8.63 g/m*3 9.3 C 0 km/h
2291 09-11-2020 03:45:00 9.3 C 8.63 g/m*3 9.3 C 0 km/h
2292 09-11-2020 03:50:00 9.3 C 8.63 g/m*3 9.3 C 0 km/h
2293 09-11-2020 03:55:00 9.3 C 8.63 g/m*3 9.3 C 0 km/h
2294 09-11-2020 04:00:00 9.3 C 8.63 g/m*3 9.3 C 0 km/h
2295 09-11-2020 04:05:00 9.3 C 8.72 g/m*3 9.3 C 0 km/h
2296 09-11-2020 04:10:00 9.3 C 8.72 g/m*3 9.3 C 0 km/h
2297 09-11-2020 04:15:00 9.3 C 8.72 g/m*3 9.3 C 0 km/h
2298 09-11-2020 04:20:00 9.3 C 8.72 g/m*3 9.3 C 0 km/h
2299 09-11-2020 04:25:00 9.3 C 8.72 g/m*3 9.3 C 0 km/h
2300 09-11-2020 04:30:00 9.3 C 8.63 g/m*3 9.3 C 0 km/h
Sensor: Nr:Datum:Temp:Abs-Feuchte:Windchill:Wind:
Aussen-T/F 2301 09-11-2020 04:35:00 9.2 C 8.57 g/m*3 9.2 C 0 km/h
2302 09-11-2020 04:40:00 9.1 C 8.52 g/m*3 9.1 C 0 km/h
2303 09-11-2020 04:45:00 9.1 C 8.52 g/m*3 9.1 C 0 km/h
2304 09-11-2020 04:50:00 8.9 C 8.41 g/m*3 8.9 C 0 km/h
2305 09-11-2020 04:55:00 8.9 C 8.41 g/m*3 8.9 C 0 km/h
2306 09-11-2020 05:00:00 8.8 C 8.36 g/m*3 8.8 C 0 km/h
2307 09-11-2020 05:05:00 8.7 C 8.3 g/m*3 8.7 C 0 km/h
2308 09-11-2020 05:10:00 8.6 C 8.25 g/m*3 8.6 C 0 km/h
2309 09-11-2020 05:15:00 8.4 C 8.14 g/m*3 8.4 C 0 km/h
2310 09-11-2020 05:20:00 8.3 C 8.09 g/m*3 8.3 C 0 km/h
2311 09-11-2020 05:25:00 8.2 C 8.04 g/m*3 8.2 C 0 km/h
2312 09-11-2020 05:30:00 8.3 C 8.09 g/m*3 8.3 C 0 km/h
2313 09-11-2020 05:35:00 8.3 C 8.09 g/m*3 8.3 C 0 km/h
2314 09-11-2020 05:40:00 8.3 C 8.18 g/m*3 8.3 C 0 km/h
2315 09-11-2020 05:45:00 8.3 C 8.18 g/m*3 8.3 C 0 km/h
2316 09-11-2020 05:50:00 8.4 C 8.23 g/m*3 8.4 C 0 km/h
2317 09-11-2020 05:55:00 8.5 C 8.28 g/m*3 8.5 C 0 km/h
2318 09-11-2020 06:00:00 8.6 C 8.34 g/m*3 8.6 C 0 km/h
2319 09-11-2020 06:05:00 8.5 C 8.28 g/m*3 8.5 C 0 km/h
2320 09-11-2020 06:10:00 8.4 C 8.23 g/m*3 8.4 C 0 km/h
2321 09-11-2020 06:15:00 8.4 C 8.23 g/m*3 8.4 C 0 km/h
2322 09-11-2020 06:20:00 8.4 C 8.23 g/m*3 8.4 C 0 km/h
2323 09-11-2020 06:25:00 8.3 C 8.18 g/m*3 8.3 C 0 km/h
2324 09-11-2020 06:30:00 8.3 C 8.09 g/m*3 8.3 C 0 km/h
2325 09-11-2020 06:35:00 8.2 C 8.04 g/m*3 8.2 C 0 km/h
Sensor: Nr:Datum:Temp:Abs-Feuchte:Windchill:Wind:
Aussen-T/F 2326 09-11-2020 06:40:00 8.1 C 7.99 g/m*3 8.1 C 0 km/h
2327 09-11-2020 06:45:00 8.1 C 8.07 g/m*3 8.1 C 0 km/h
2328 09-11-2020 06:50:00 8.1 C 8.07 g/m*3 8.1 C 0 km/h
2329 09-11-2020 06:55:00 8.2 C 8.12 g/m*3 8.2 C 0 km/h
2330 09-11-2020 07:00:00 8.2 C 8.12 g/m*3 8.2 C 0 km/h
2331 09-11-2020 07:05:00 8.2 C 8.12 g/m*3 8.2 C 0 km/h
2332 09-11-2020 07:10:00 8.2 C 8.12 g/m*3 8.2 C 0 km/h
2333 09-11-2020 07:15:00 8.2 C 8.12 g/m*3 8.2 C 0 km/h
2334 09-11-2020 07:20:00 8.2 C 8.12 g/m*3 8.2 C 0 km/h
2335 09-11-2020 07:25:00 8.2 C 8.12 g/m*3 8.2 C 0 km/h
2336 09-11-2020 07:30:00 8.2 C 8.12 g/m*3 8.2 C 0 km/h
2337 09-11-2020 07:35:00 8.1 C 8.07 g/m*3 8.1 C 0 km/h
2338 09-11-2020 07:40:00 7.9 C 7.97 g/m*3 7.9 C 0 km/h
2339 09-11-2020 07:45:00 7.8 C 7.83 g/m*3 7.8 C 0 km/h
2340 09-11-2020 07:50:00 7.8 C 7.92 g/m*3 7.8 C 0 km/h
2341 09-11-2020 07:55:00 7.9 C 7.97 g/m*3 7.9 C 0 km/h
2342 09-11-2020 08:00:00 7.9 C 7.97 g/m*3 7.9 C 0 km/h
2343 09-11-2020 08:05:00 8 C 8.02 g/m*3 8 C 0 km/h
2344 09-11-2020 08:10:00 8.1 C 8.07 g/m*3 8.1 C 0 km/h
2345 09-11-2020 08:15:00 8.2 C 8.12 g/m*3 8.2 C 0 km/h
2346 09-11-2020 08:20:00 8.3 C 8.18 g/m*3 8.3 C 0 km/h
2347 09-11-2020 08:25:00 8.3 C 8.18 g/m*3 8.3 C 0 km/h
2348 09-11-2020 08:30:00 8.4 C 8.23 g/m*3 8.4 C 0 km/h
2349 09-11-2020 08:35:00 8.5 C 8.28 g/m*3 8.5 C 0 km/h
2350 09-11-2020 08:40:00 8.5 C 8.28 g/m*3 8.5 C 0 km/h
Sensor: Nr:Datum:Temp:Abs-Feuchte:Windchill:Wind:
Aussen-T/F 2351 09-11-2020 08:45:00 8.6 C 8.34 g/m*3 8.6 C 0 km/h
2352 09-11-2020 08:50:00 8.7 C 8.39 g/m*3 8.7 C 0 km/h
2353 09-11-2020 08:55:00 8.7 C 8.39 g/m*3 8.7 C 0 km/h
2354 09-11-2020 09:00:00 8.8 C 8.44 g/m*3 8.8 C 0 km/h
2355 09-11-2020 09:05:00 8.8 C 8.44 g/m*3 8.8 C 0 km/h
2356 09-11-2020 09:10:00 8.8 C 8.44 g/m*3 8.8 C 0 km/h
2357 09-11-2020 09:15:00 8.8 C 8.44 g/m*3 8.8 C 0 km/h
2358 09-11-2020 09:20:00 8.8 C 8.44 g/m*3 8.8 C 0 km/h
2359 09-11-2020 09:25:00 8.8 C 8.44 g/m*3 8.8 C 0 km/h
2360 09-11-2020 09:30:00 8.9 C 8.5 g/m*3 8.9 C 0 km/h
2361 09-11-2020 09:35:00 9 C 8.55 g/m*3 9 C 0 km/h
2362 09-11-2020 09:40:00 9.1 C 8.61 g/m*3 9.1 C 0 km/h
2363 09-11-2020 09:45:00 9.2 C 8.66 g/m*3 9.2 C 0 km/h
2364 09-11-2020 09:50:00 9.3 C 8.72 g/m*3 9.3 C 0 km/h
2365 09-11-2020 09:55:00 9.3 C 8.72 g/m*3 9.3 C 0 km/h
2366 09-11-2020 10:00:00 9.4 C 8.77 g/m*3 9.4 C 0 km/h
2367 09-11-2020 10:05:00 9.4 C 8.77 g/m*3 9.4 C 0 km/h
2368 09-11-2020 10:10:00 9.4 C 8.77 g/m*3 9.4 C 0 km/h
2369 09-11-2020 10:15:00 9.5 C 8.83 g/m*3 9.5 C 0 km/h
2370 09-11-2020 10:20:00 9.6 C 8.89 g/m*3 9.6 C 0 km/h
2371 09-11-2020 10:25:00 9.6 C 8.89 g/m*3 9.6 C 0 km/h
2372 09-11-2020 10:30:00 9.7 C 8.94 g/m*3 9.7 C 0 km/h
2373 09-11-2020 10:35:00 9.8 C 9 g/m*3 9.8 C 0 km/h
2374 09-11-2020 10:40:00 9.9 C 9.15 g/m*3 9.9 C 0 km/h
2375 09-11-2020 10:45:00 10.1 C 9.17 g/m*3 10.1 C 0 km/h
Sensor: Nr:Datum:Temp:Abs-Feuchte:Windchill:Wind:
Aussen-T/F 2376 09-11-2020 10:50:00 10.3 C 9.39 g/m*3 10.3 C 0 km/h
2377 09-11-2020 10:55:00 10.5 C 9.5 g/m*3 10.5 C 0 km/h
2378 09-11-2020 11:00:00 10.6 C 9.57 g/m*3 10.6 C 0 km/h
2379 09-11-2020 11:05:00 10.6 C 9.57 g/m*3 10.6 C 0 km/h
2380 09-11-2020 11:10:00 10.7 C 9.63 g/m*3 10.7 C 0 km/h
2381 09-11-2020 11:15:00 10.8 C 9.69 g/m*3 10.8 C 0 km/h
2382 09-11-2020 11:20:00 10.9 C 9.75 g/m*3 10.9 C 0 km/h
2383 09-11-2020 11:25:00 11 C 9.81 g/m*3 11 C 0 km/h
2384 09-11-2020 11:30:00 11.1 C 9.87 g/m*3 11.1 C 0 km/h
2385 09-11-2020 11:35:00 11.2 C 9.93 g/m*3 11.2 C 0 km/h
2386 09-11-2020 11:40:00 11.2 C 9.93 g/m*3 11.2 C 0 km/h
2387 09-11-2020 11:45:00 11.3 C 10 g/m*3 11.3 C 0 km/h
2388 09-11-2020 11:50:00 11.3 C 10 g/m*3 11.3 C 0 km/h
2389 09-11-2020 11:55:00 11.4 C 10.06 g/m*3 11.4 C 0 km/h
2390 09-11-2020 12:00:00 11.4 C 10.06 g/m*3 11.4 C 0 km/h
2391 09-11-2020 12:05:00 11.4 C 10.06 g/m*3 11.4 C 0 km/h
2392 09-11-2020 12:10:00 11.5 C 10.02 g/m*3 11.5 C 0 km/h
2393 09-11-2020 12:15:00 11.5 C 10.02 g/m*3 11.5 C 0 km/h
2394 09-11-2020 12:20:00 11.6 C 10.08 g/m*3 11.6 C 0 km/h
2395 09-11-2020 12:25:00 11.6 C 10.19 g/m*3 11.6 C 0 km/h
2396 09-11-2020 12:30:00 11.7 C 10.25 g/m*3 11.7 C 0 km/h
2397 09-11-2020 12:35:00 11.8 C 10.31 g/m*3 11.8 C 0 km/h
2398 09-11-2020 12:40:00 11.9 C 10.38 g/m*3 11.9 C 0 km/h
2399 09-11-2020 12:45:00 12.2 C 10.58 g/m*3 12.2 C 0 km/h
2400 09-11-2020 12:50:00 12.4 C 10.71 g/m*3 12.4 C 0 km/h
Sensor: Nr:Datum:Temp:Abs-Feuchte:Windchill:Wind:
Aussen-T/F 2401 09-11-2020 12:55:00 12.6 C 10.84 g/m*3 12.6 C 0 km/h
2402 09-11-2020 13:00:00 12.7 C 10.91 g/m*3 12.7 C 0 km/h
2403 09-11-2020 13:05:00 12.8 C 10.98 g/m*3 12.8 C 0 km/h
2404 09-11-2020 13:10:00 12.8 C 10.98 g/m*3 12.8 C 0 km/h
2405 09-11-2020 13:15:00 12.9 C 11.05 g/m*3 12.9 C 0 km/h
2406 09-11-2020 13:20:00 13.1 C 11.18 g/m*3 13.1 C 0 km/h
2407 09-11-2020 13:25:00 13.1 C 11.18 g/m*3 13.1 C 0 km/h
2408 09-11-2020 13:30:00 13.2 C 11.14 g/m*3 13.2 C 0 km/h
2409 09-11-2020 13:35:00 13.1 C 11.07 g/m*3 13.1 C 0 km/h
2410 09-11-2020 13:40:00 13.2 C 11.14 g/m*3 13.2 C 0 km/h
2411 09-11-2020 13:45:00 13.3 C 11.09 g/m*3 13.3 C 0 km/h
2412 09-11-2020 13:50:00 13.4 C 11.16 g/m*3 13.4 C 0 km/h
2413 09-11-2020 13:55:00 13.4 C 10.93 g/m*3 13.4 C 0 km/h
2414 09-11-2020 14:00:00 13.6 C 11.06 g/m*3 13.6 C 0 km/h
2415 09-11-2020 14:05:00 13.6 C 10.95 g/m*3 13.6 C 3.2 km/h
2416 09-11-2020 14:10:00 13.6 C 10.83 g/m*3 13.6 C 3.2 km/h
2417 09-11-2020 14:15:00 13.7 C 10.89 g/m*3 13.7 C 0 km/h
2418 09-11-2020 14:20:00 13.7 C 10.89 g/m*3 13.7 C 0 km/h
2419 09-11-2020 14:25:00 13.8 C 10.96 g/m*3 13.8 C 0 km/h
2420 09-11-2020 14:30:00 13.8 C 10.96 g/m*3 13.8 C 0 km/h
2421 09-11-2020 14:35:00 13.7 C 10.89 g/m*3 13.7 C 0 km/h
2422 09-11-2020 14:40:00 13.7 C 10.89 g/m*3 13.7 C 0 km/h
2423 09-11-2020 14:45:00 13.7 C 11.01 g/m*3 13.7 C 0 km/h
2424 09-11-2020 14:50:00 13.6 C 10.95 g/m*3 13.6 C 0 km/h
2425 09-11-2020 14:55:00 13.6 C 10.95 g/m*3 13.6 C 0 km/h
Sensor: Nr:Datum:Temp:Abs-Feuchte:Windchill:Wind:
Aussen-T/F 2426 09-11-2020 15:00:00 13.6 C 10.95 g/m*3 13.6 C 0 km/h
2427 09-11-2020 15:05:00 13.5 C 10.88 g/m*3 13.5 C 1.6 km/h
2428 09-11-2020 15:10:00 13.4 C 10.81 g/m*3 13.4 C 0 km/h
2429 09-11-2020 15:15:00 13.3 C 10.74 g/m*3 13.3 C 1.6 km/h
2430 09-11-2020 15:20:00 13.3 C 10.74 g/m*3 13.3 C 0 km/h
2431 09-11-2020 15:25:00 13.2 C 10.68 g/m*3 13.2 C 0 km/h
2432 09-11-2020 15:30:00 13.2 C 10.68 g/m*3 13.2 C 0 km/h
2433 09-11-2020 15:35:00 13.1 C 10.61 g/m*3 13.1 C 0 km/h
2434 09-11-2020 15:40:00 13.1 C 10.61 g/m*3 13.1 C 0 km/h
2435 09-11-2020 15:45:00 13 C 10.55 g/m*3 13 C 0 km/h
2436 09-11-2020 15:50:00 13 C 10.55 g/m*3 13 C 0 km/h
2437 09-11-2020 15:55:00 12.9 C 10.48 g/m*3 12.9 C 0 km/h
2438 09-11-2020 16:00:00 12.8 C 10.42 g/m*3 12.8 C 0 km/h
2439 09-11-2020 16:05:00 12.8 C 10.42 g/m*3 12.8 C 0 km/h
2440 09-11-2020 16:10:00 12.7 C 10.35 g/m*3 12.7 C 0 km/h
2441 09-11-2020 16:15:00 12.7 C 10.46 g/m*3 12.7 C 0 km/h
2442 09-11-2020 16:20:00 12.6 C 10.29 g/m*3 12.6 C 0 km/h
2443 09-11-2020 16:25:00 12.5 C 10.33 g/m*3 12.5 C 0 km/h
2444 09-11-2020 16:30:00 12.4 C 10.27 g/m*3 12.4 C 0 km/h
2445 09-11-2020 16:35:00 12.4 C 10.27 g/m*3 12.4 C 0 km/h
2446 09-11-2020 16:40:00 12.3 C 10.21 g/m*3 12.3 C 0 km/h
2447 09-11-2020 16:45:00 12.2 C 10.14 g/m*3 12.2 C 0 km/h
2448 09-11-2020 16:50:00 12.2 C 10.14 g/m*3 12.2 C 0 km/h
2449 09-11-2020 16:55:00 12.2 C 10.14 g/m*3 12.2 C 3.2 km/h
2450 09-11-2020 17:00:00 12.1 C 10.08 g/m*3 12.1 C 1.6 km/h
Sensor: Nr:Datum:Temp:Abs-Feuchte:Windchill:Wind:
Aussen-T/F 2451 09-11-2020 17:05:00 11.9 C 9.96 g/m*3 11.9 C 1.6 km/h
2452 09-11-2020 17:10:00 11.8 C 9.89 g/m*3 11.8 C 3.2 km/h
2453 09-11-2020 17:15:00 11.7 C 9.83 g/m*3 11.7 C 3.2 km/h
2454 09-11-2020 17:20:00 11.6 C 9.77 g/m*3 11.6 C 3.2 km/h
2455 09-11-2020 17:25:00 11.6 C 9.77 g/m*3 11.6 C 3.2 km/h
2456 09-11-2020 17:30:00 11.4 C 9.65 g/m*3 11.4 C 3.2 km/h
2457 09-11-2020 17:35:00 11.4 C 9.65 g/m*3 11.4 C 3.2 km/h
2458 09-11-2020 17:40:00 11.3 C 9.59 g/m*3 11.3 C 1.6 km/h
2459 09-11-2020 17:45:00 11.2 C 9.53 g/m*3 11.2 C 3.2 km/h
2460 09-11-2020 17:50:00 11.1 C 9.57 g/m*3 11.1 C 3.2 km/h
2461 09-11-2020 17:55:00 11.1 C 9.57 g/m*3 11.1 C 3.2 km/h
2462 09-11-2020 18:00:00 11 C 9.51 g/m*3 11 C 0 km/h
2463 09-11-2020 18:05:00 10.8 C 9.29 g/m*3 10.8 C 3.2 km/h
2464 09-11-2020 18:10:00 10.7 C 9.33 g/m*3 10.7 C 0 km/h
2465 09-11-2020 18:15:00 10.6 C 9.27 g/m*3 10.6 C 0 km/h
2466 09-11-2020 18:20:00 10.4 C 9.16 g/m*3 10.4 C 0 km/h
2467 09-11-2020 18:25:00 10.4 C 9.16 g/m*3 10.4 C 3.2 km/h
2468 09-11-2020 18:30:00 10.4 C 9.16 g/m*3 10.4 C 3.2 km/h
2469 09-11-2020 18:35:00 10.4 C 9.16 g/m*3 10.4 C 0 km/h
2470 09-11-2020 18:40:00 10.3 C 9.1 g/m*3 10.3 C 0 km/h
2471 09-11-2020 18:45:00 10.3 C 9.1 g/m*3 10.3 C 0 km/h
2472 09-11-2020 18:50:00 10.2 C 9.04 g/m*3 10.2 C 0 km/h
2473 09-11-2020 18:55:00 10.1 C 8.98 g/m*3 10.1 C 0 km/h
2474 09-11-2020 19:00:00 10 C 8.93 g/m*3 10 C 0 km/h
2475 09-11-2020 19:05:00 9.9 C 8.87 g/m*3 9.9 C 0 km/h
Sensor: Nr:Datum:Temp:Abs-Feuchte:Windchill:Wind:
Aussen-T/F 2476 09-11-2020 19:10:00 9.8 C 8.81 g/m*3 9.8 C 0 km/h
2477 09-11-2020 19:15:00 9.8 C 8.81 g/m*3 9.8 C 0 km/h
2478 09-11-2020 19:20:00 9.7 C 8.85 g/m*3 9.7 C 0 km/h
2479 09-11-2020 19:25:00 9.7 C 8.76 g/m*3 9.7 C 0 km/h
2480 09-11-2020 19:30:00 9.6 C 8.7 g/m*3 9.6 C 0 km/h
2481 09-11-2020 19:35:00 9.6 C 8.79 g/m*3 9.6 C 0 km/h
2482 09-11-2020 19:40:00 9.6 C 8.79 g/m*3 9.6 C 0 km/h
2483 09-11-2020 19:45:00 9.5 C 8.74 g/m*3 9.5 C 0 km/h
2484 09-11-2020 19:50:00 9.4 C 8.68 g/m*3 9.4 C 0 km/h
2485 09-11-2020 19:55:00 9.4 C 8.68 g/m*3 9.4 C 0 km/h
2486 09-11-2020 20:00:00 9.3 C 8.63 g/m*3 9.3 C 0 km/h
2487 09-11-2020 20:05:00 9.3 C 8.63 g/m*3 9.3 C 0 km/h
2488 09-11-2020 20:10:00 9.3 C 8.63 g/m*3 9.3 C 0 km/h
2489 09-11-2020 20:15:00 9.3 C 8.63 g/m*3 9.3 C 0 km/h
2490 09-11-2020 20:20:00 9.2 C 8.57 g/m*3 9.2 C 0 km/h
2491 09-11-2020 20:25:00 9.1 C 8.52 g/m*3 9.1 C 1.6 km/h
2492 09-11-2020 20:30:00 9.1 C 8.52 g/m*3 9.1 C 3.2 km/h
2493 09-11-2020 20:35:00 9 C 8.46 g/m*3 9 C 0 km/h
2494 09-11-2020 20:40:00 8.9 C 8.41 g/m*3 8.9 C 0 km/h
2495 09-11-2020 20:45:00 8.9 C 8.41 g/m*3 8.9 C 0 km/h
2496 09-11-2020 20:50:00 8.8 C 8.36 g/m*3 8.8 C 0 km/h
2497 09-11-2020 20:55:00 8.8 C 8.36 g/m*3 8.8 C 0 km/h
2498 09-11-2020 21:00:00 8.7 C 8.3 g/m*3 8.7 C 0 km/h
2499 09-11-2020 21:05:00 8.6 C 8.25 g/m*3 8.6 C 0 km/h
2500 09-11-2020 21:10:00 8.5 C 8.2 g/m*3 8.5 C 0 km/h
Sensor: Nr:Datum:Temp:Abs-Feuchte:Windchill:Wind:
Aussen-T/F 2501 09-11-2020 21:15:00 8.4 C 8.14 g/m*3 8.4 C 0 km/h
2502 09-11-2020 21:20:00 8.3 C 8.09 g/m*3 8.3 C 0 km/h
2503 09-11-2020 21:25:00 8.2 C 8.04 g/m*3 8.2 C 0 km/h
2504 09-11-2020 21:30:00 8.1 C 7.99 g/m*3 8.1 C 0 km/h
2505 09-11-2020 21:35:00 8 C 7.94 g/m*3 8 C 0 km/h
2506 09-11-2020 21:40:00 7.9 C 7.89 g/m*3 7.9 C 0 km/h
2507 09-11-2020 21:45:00 7.8 C 7.83 g/m*3 7.8 C 0 km/h
2508 09-11-2020 21:50:00 7.8 C 7.83 g/m*3 7.8 C 0 km/h
2509 09-11-2020 21:55:00 7.7 C 7.78 g/m*3 7.7 C 0 km/h
2510 09-11-2020 22:00:00 7.6 C 7.73 g/m*3 7.6 C 0 km/h
2511 09-11-2020 22:05:00 7.5 C 7.68 g/m*3 7.5 C 0 km/h
2512 09-11-2020 22:10:00 7.4 C 7.63 g/m*3 7.4 C 0 km/h
2513 09-11-2020 22:15:00 7.3 C 7.58 g/m*3 7.3 C 0 km/h
2514 09-11-2020 22:20:00 7.3 C 7.58 g/m*3 7.3 C 0 km/h
2515 09-11-2020 22:25:00 7.2 C 7.54 g/m*3 7.2 C 0 km/h
2516 09-11-2020 22:30:00 7.2 C 7.54 g/m*3 7.2 C 0 km/h
2517 09-11-2020 22:35:00 7.1 C 7.49 g/m*3 7.1 C 0 km/h
2518 09-11-2020 22:40:00 7 C 7.44 g/m*3 7 C 0 km/h
2519 09-11-2020 22:45:00 7.1 C 7.49 g/m*3 7.1 C 0 km/h
2520 09-11-2020 22:50:00 7 C 7.44 g/m*3 7 C 0 km/h
2521 09-11-2020 22:55:00 7 C 7.44 g/m*3 7 C 0 km/h
2522 09-11-2020 23:00:00 6.9 C 7.39 g/m*3 6.9 C 0 km/h
2523 09-11-2020 23:05:00 6.9 C 7.39 g/m*3 6.9 C 0 km/h
2524 09-11-2020 23:10:00 6.8 C 7.34 g/m*3 6.8 C 0 km/h
2525 09-11-2020 23:15:00 6.7 C 7.29 g/m*3 6.7 C 0 km/h
Sensor: Nr:Datum:Temp:Abs-Feuchte:Windchill:Wind:
Aussen-T/F 2526 09-11-2020 23:20:00 6.7 C 7.29 g/m*3 6.7 C 0 km/h
2527 09-11-2020 23:25:00 6.7 C 7.29 g/m*3 6.7 C 0 km/h
2528 09-11-2020 23:30:00 6.7 C 7.29 g/m*3 6.7 C 0 km/h
2529 09-11-2020 23:35:00 6.7 C 7.29 g/m*3 6.7 C 0 km/h
2530 09-11-2020 23:40:00 6.6 C 7.25 g/m*3 6.6 C 0 km/h
2531 09-11-2020 23:45:00 6.4 C 7.15 g/m*3 6.4 C 0 km/h
2532 09-11-2020 23:50:00 6.3 C 7.11 g/m*3 6.3 C 0 km/h
2533 09-11-2020 23:55:00 6.2 C 7.06 g/m*3 6.2 C 0 km/h
2534 10-11-2020 00:00:00 6.2 C 7.06 g/m*3 6.2 C 0 km/h
2535 10-11-2020 00:05:00 6.2 C 7.06 g/m*3 6.2 C 0 km/h
2536 10-11-2020 00:10:00 6.2 C 7.06 g/m*3 6.2 C 0 km/h
2537 10-11-2020 00:15:00 6.2 C 7.06 g/m*3 6.2 C 0 km/h
2538 10-11-2020 00:20:00 6.1 C 7.01 g/m*3 6.1 C 0 km/h
2539 10-11-2020 00:25:00 6.1 C 7.01 g/m*3 6.1 C 0 km/h
2540 10-11-2020 00:30:00 6 C 6.97 g/m*3 6 C 0 km/h
2541 10-11-2020 00:35:00 6 C 6.97 g/m*3 6 C 0 km/h
2542 10-11-2020 00:40:00 6.1 C 7.09 g/m*3 6.1 C 0 km/h
2543 10-11-2020 00:45:00 6.1 C 7.09 g/m*3 6.1 C 0 km/h
2544 10-11-2020 00:50:00 6.1 C 7.09 g/m*3 6.1 C 0 km/h
2545 10-11-2020 00:55:00 6.1 C 7.09 g/m*3 6.1 C 0 km/h
2546 10-11-2020 01:00:00 6.1 C 7.09 g/m*3 6.1 C 0 km/h
2547 10-11-2020 01:05:00 6.2 C 7.13 g/m*3 6.2 C 0 km/h
2548 10-11-2020 01:10:00 6.2 C 7.13 g/m*3 6.2 C 0 km/h
2549 10-11-2020 01:15:00 6.2 C 7.13 g/m*3 6.2 C 0 km/h
2550 10-11-2020 01:20:00 6.2 C 7.13 g/m*3 6.2 C 0 km/h
Sensor: Nr:Datum:Temp:Abs-Feuchte:Windchill:Wind:
Aussen-T/F 2551 10-11-2020 01:25:00 6.2 C 7.13 g/m*3 6.2 C 0 km/h
2552 10-11-2020 01:30:00 6.2 C 7.13 g/m*3 6.2 C 0 km/h
2553 10-11-2020 01:35:00 6.2 C 7.13 g/m*3 6.2 C 0 km/h
2554 10-11-2020 01:40:00 6.2 C 7.13 g/m*3 6.2 C 0 km/h
2555 10-11-2020 01:45:00 6.2 C 7.13 g/m*3 6.2 C 0 km/h
2556 10-11-2020 01:50:00 6.1 C 7.09 g/m*3 6.1 C 0 km/h
2557 10-11-2020 01:55:00 6.1 C 7.09 g/m*3 6.1 C 0 km/h
2558 10-11-2020 02:00:00 6.1 C 7.09 g/m*3 6.1 C 0 km/h
2559 10-11-2020 02:05:00 6 C 7.04 g/m*3 6 C 0 km/h
2560 10-11-2020 02:10:00 6 C 7.04 g/m*3 6 C 0 km/h
2561 10-11-2020 02:15:00 6 C 7.04 g/m*3 6 C 0 km/h
2562 10-11-2020 02:20:00 6 C 7.04 g/m*3 6 C 0 km/h
2563 10-11-2020 02:25:00 6.1 C 7.09 g/m*3 6.1 C 0 km/h
2564 10-11-2020 02:30:00 6.1 C 7.09 g/m*3 6.1 C 0 km/h
2565 10-11-2020 02:35:00 6.1 C 7.09 g/m*3 6.1 C 0 km/h
2566 10-11-2020 02:40:00 6.1 C 7.09 g/m*3 6.1 C 0 km/h
2567 10-11-2020 02:45:00 6.1 C 7.09 g/m*3 6.1 C 0 km/h
2568 10-11-2020 02:50:00 6.1 C 7.09 g/m*3 6.1 C 0 km/h
2569 10-11-2020 02:55:00 6.1 C 7.09 g/m*3 6.1 C 0 km/h
2570 10-11-2020 03:00:00 6.1 C 7.09 g/m*3 6.1 C 0 km/h
2571 10-11-2020 03:05:00 6.1 C 7.09 g/m*3 6.1 C 0 km/h
2572 10-11-2020 03:10:00 6.1 C 7.09 g/m*3 6.1 C 0 km/h
2573 10-11-2020 03:15:00 6.1 C 7.09 g/m*3 6.1 C 0 km/h
2574 10-11-2020 03:20:00 6.1 C 7.09 g/m*3 6.1 C 0 km/h
2575 10-11-2020 03:25:00 6.1 C 7.09 g/m*3 6.1 C 0 km/h
Sensor: Nr:Datum:Temp:Abs-Feuchte:Windchill:Wind:
Aussen-T/F 2576 10-11-2020 03:30:00 6.1 C 7.09 g/m*3 6.1 C 0 km/h
2577 10-11-2020 03:35:00 6.1 C 7.09 g/m*3 6.1 C 0 km/h
2578 10-11-2020 03:40:00 6.1 C 7.09 g/m*3 6.1 C 0 km/h
2579 10-11-2020 03:45:00 6.1 C 7.09 g/m*3 6.1 C 0 km/h
2580 10-11-2020 03:50:00 6.1 C 7.09 g/m*3 6.1 C 0 km/h
2581 10-11-2020 03:55:00 6.1 C 7.09 g/m*3 6.1 C 0 km/h
2582 10-11-2020 04:00:00 6.1 C 7.09 g/m*3 6.1 C 0 km/h
2583 10-11-2020 04:05:00 6.1 C 7.09 g/m*3 6.1 C 0 km/h
2584 10-11-2020 04:10:00 6.1 C 7.09 g/m*3 6.1 C 0 km/h
2585 10-11-2020 04:15:00 6 C 7.04 g/m*3 6 C 0 km/h
2586 10-11-2020 04:20:00 6 C 7.04 g/m*3 6 C 0 km/h
2587 10-11-2020 04:25:00 6 C 7.04 g/m*3 6 C 0 km/h
2588 10-11-2020 04:30:00 6 C 7.04 g/m*3 6 C 0 km/h
2589 10-11-2020 04:35:00 6 C 7.04 g/m*3 6 C 0 km/h
2590 10-11-2020 04:40:00 6 C 7.04 g/m*3 6 C 0 km/h
2591 10-11-2020 04:45:00 6 C 7.04 g/m*3 6 C 0 km/h
2592 10-11-2020 04:50:00 5.9 C 6.99 g/m*3 5.9 C 0 km/h
2593 10-11-2020 04:55:00 5.9 C 6.99 g/m*3 5.9 C 0 km/h
2594 10-11-2020 05:00:00 5.9 C 6.99 g/m*3 5.9 C 0 km/h
2595 10-11-2020 05:05:00 5.8 C 6.95 g/m*3 5.8 C 0 km/h
2596 10-11-2020 05:10:00 5.8 C 6.95 g/m*3 5.8 C 0 km/h
2597 10-11-2020 05:15:00 5.8 C 6.95 g/m*3 5.8 C 0 km/h
2598 10-11-2020 05:20:00 5.7 C 6.9 g/m*3 5.7 C 0 km/h
2599 10-11-2020 05:25:00 5.7 C 6.9 g/m*3 5.7 C 0 km/h
2600 10-11-2020 05:30:00 5.7 C 6.9 g/m*3 5.7 C 0 km/h
Sensor: Nr:Datum:Temp:Abs-Feuchte:Windchill:Wind:
Aussen-T/F 2601 10-11-2020 05:35:00 5.7 C 6.9 g/m*3 5.7 C 0 km/h
2602 10-11-2020 05:40:00 5.7 C 6.9 g/m*3 5.7 C 0 km/h
2603 10-11-2020 05:45:00 5.7 C 6.9 g/m*3 5.7 C 0 km/h
2604 10-11-2020 05:50:00 5.7 C 6.9 g/m*3 5.7 C 0 km/h
2605 10-11-2020 05:55:00 5.7 C 6.9 g/m*3 5.7 C 0 km/h
2606 10-11-2020 06:00:00 5.7 C 6.9 g/m*3 5.7 C 0 km/h
2607 10-11-2020 06:05:00 5.7 C 6.9 g/m*3 5.7 C 0 km/h
2608 10-11-2020 06:10:00 5.8 C 6.95 g/m*3 5.8 C 0 km/h
2609 10-11-2020 06:15:00 5.8 C 6.95 g/m*3 5.8 C 0 km/h
2610 10-11-2020 06:20:00 5.7 C 6.9 g/m*3 5.7 C 0 km/h
2611 10-11-2020 06:25:00 5.7 C 6.9 g/m*3 5.7 C 0 km/h
2612 10-11-2020 06:30:00 5.7 C 6.9 g/m*3 5.7 C 0 km/h
2613 10-11-2020 06:35:00 5.7 C 6.9 g/m*3 5.7 C 0 km/h
2614 10-11-2020 06:40:00 5.7 C 6.9 g/m*3 5.7 C 0 km/h
2615 10-11-2020 06:45:00 5.7 C 6.9 g/m*3 5.7 C 0 km/h
2616 10-11-2020 06:50:00 5.7 C 6.9 g/m*3 5.7 C 0 km/h
2617 10-11-2020 06:55:00 5.7 C 6.9 g/m*3 5.7 C 0 km/h
2618 10-11-2020 07:00:00 5.7 C 6.9 g/m*3 5.7 C 0 km/h
2619 10-11-2020 07:05:00 5.7 C 6.9 g/m*3 5.7 C 0 km/h
2620 10-11-2020 07:10:00 5.7 C 6.9 g/m*3 5.7 C 0 km/h
2621 10-11-2020 07:15:00 5.7 C 6.9 g/m*3 5.7 C 0 km/h
2622 10-11-2020 07:20:00 5.7 C 6.9 g/m*3 5.7 C 0 km/h
2623 10-11-2020 07:25:00 5.7 C 6.9 g/m*3 5.7 C 0 km/h
2624 10-11-2020 07:30:00 5.7 C 6.9 g/m*3 5.7 C 0 km/h
2625 10-11-2020 07:35:00 5.7 C 6.9 g/m*3 5.7 C 0 km/h
Sensor: Nr:Datum:Temp:Abs-Feuchte:Windchill:Wind:
Aussen-T/F 2626 10-11-2020 07:40:00 5.7 C 6.9 g/m*3 5.7 C 0 km/h
2627 10-11-2020 07:45:00 5.7 C 6.9 g/m*3 5.7 C 0 km/h
2628 10-11-2020 07:50:00 5.7 C 6.9 g/m*3 5.7 C 0 km/h
2629 10-11-2020 07:55:00 5.7 C 6.9 g/m*3 5.7 C 0 km/h
2630 10-11-2020 08:00:00 5.7 C 6.9 g/m*3 5.7 C 0 km/h
2631 10-11-2020 08:05:00 5.7 C 6.9 g/m*3 5.7 C 1.6 km/h
2632 10-11-2020 08:10:00 5.7 C 6.9 g/m*3 5.7 C 0 km/h
2633 10-11-2020 08:15:00 5.7 C 6.9 g/m*3 5.7 C 0 km/h
2634 10-11-2020 08:20:00 5.7 C 6.9 g/m*3 5.7 C 0 km/h
2635 10-11-2020 08:25:00 5.7 C 6.9 g/m*3 5.7 C 0 km/h
2636 10-11-2020 08:30:00 5.7 C 6.9 g/m*3 5.7 C 0 km/h
2637 10-11-2020 08:35:00 5.7 C 6.9 g/m*3 5.7 C 0 km/h
2638 10-11-2020 08:40:00 5.7 C 6.9 g/m*3 5.7 C 0 km/h
2639 10-11-2020 08:45:00 5.8 C 6.95 g/m*3 5.8 C 0 km/h
2640 10-11-2020 08:50:00 5.7 C 6.9 g/m*3 5.7 C 0 km/h
2641 10-11-2020 08:55:00 5.7 C 6.9 g/m*3 5.7 C 0 km/h
2642 10-11-2020 09:00:00 5.8 C 6.95 g/m*3 5.8 C 0 km/h
2643 10-11-2020 09:05:00 5.9 C 6.99 g/m*3 5.9 C 0 km/h
2644 10-11-2020 09:10:00 5.9 C 6.99 g/m*3 5.9 C 1.6 km/h
2645 10-11-2020 09:15:00 5.9 C 7.07 g/m*3 5.9 C 0 km/h
2646 10-11-2020 09:20:00 5.9 C 7.07 g/m*3 5.9 C 0 km/h
2647 10-11-2020 09:25:00 5.9 C 7.07 g/m*3 5.9 C 0 km/h
2648 10-11-2020 09:30:00 5.9 C 7.07 g/m*3 5.9 C 0 km/h
2649 10-11-2020 09:35:00 6 C 7.11 g/m*3 6 C 0 km/h
2650 10-11-2020 09:40:00 6.1 C 7.16 g/m*3 6.1 C 0 km/h
Sensor: Nr:Datum:Temp:Abs-Feuchte:Windchill:Wind:
Aussen-T/F 2651 10-11-2020 09:45:00 6.1 C 7.16 g/m*3 6.1 C 0 km/h
2652 10-11-2020 09:50:00 6.2 C 7.21 g/m*3 6.2 C 0 km/h
2653 10-11-2020 09:55:00 6.2 C 7.13 g/m*3 6.2 C 0 km/h
2654 10-11-2020 10:00:00 6.2 C 7.13 g/m*3 6.2 C 0 km/h
2655 10-11-2020 10:05:00 6.3 C 7.18 g/m*3 6.3 C 0 km/h
2656 10-11-2020 10:10:00 6.4 C 7.3 g/m*3 6.4 C 0 km/h
2657 10-11-2020 10:15:00 6.4 C 7.3 g/m*3 6.4 C 0 km/h
2658 10-11-2020 10:20:00 6.3 C 7.25 g/m*3 6.3 C 0 km/h
2659 10-11-2020 10:25:00 6.3 C 7.25 g/m*3 6.3 C 0 km/h
2660 10-11-2020 10:30:00 6.4 C 7.3 g/m*3 6.4 C 0 km/h
2661 10-11-2020 10:35:00 6.6 C 7.4 g/m*3 6.6 C 0 km/h
2662 10-11-2020 10:40:00 6.6 C 7.4 g/m*3 6.6 C 0 km/h
2663 10-11-2020 10:45:00 6.7 C 7.45 g/m*3 6.7 C 0 km/h
2664 10-11-2020 10:50:00 6.8 C 7.5 g/m*3 6.8 C 0 km/h
2665 10-11-2020 10:55:00 6.9 C 7.54 g/m*3 6.9 C 0 km/h
2666 10-11-2020 11:00:00 7.1 C 7.64 g/m*3 7.1 C 0 km/h
2667 10-11-2020 11:05:00 7.2 C 7.69 g/m*3 7.2 C 0 km/h
2668 10-11-2020 11:10:00 7.3 C 7.74 g/m*3 7.3 C 0 km/h
2669 10-11-2020 11:15:00 7.3 C 7.74 g/m*3 7.3 C 0 km/h
2670 10-11-2020 11:20:00 7.3 C 7.74 g/m*3 7.3 C 0 km/h
2671 10-11-2020 11:25:00 7.4 C 7.79 g/m*3 7.4 C 0 km/h
2672 10-11-2020 11:30:00 7.5 C 7.84 g/m*3 7.5 C 0 km/h
2673 10-11-2020 11:35:00 7.6 C 7.9 g/m*3 7.6 C 0 km/h
2674 10-11-2020 11:40:00 7.7 C 7.95 g/m*3 7.7 C 0 km/h
2675 10-11-2020 11:45:00 7.8 C 8 g/m*3 7.8 C 0 km/h
Sensor: Nr:Datum:Temp:Abs-Feuchte:Windchill:Wind:
Aussen-T/F 2676 10-11-2020 11:50:00 7.8 C 8 g/m*3 7.8 C 0 km/h
2677 10-11-2020 11:55:00 7.9 C 8.05 g/m*3 7.9 C 0 km/h
2678 10-11-2020 12:00:00 7.9 C 8.05 g/m*3 7.9 C 0 km/h
2679 10-11-2020 12:05:00 8 C 8.1 g/m*3 8 C 0 km/h
2680 10-11-2020 12:10:00 8.1 C 8.15 g/m*3 8.1 C 0 km/h
2681 10-11-2020 12:15:00 8.1 C 8.15 g/m*3 8.1 C 0 km/h
2682 10-11-2020 12:20:00 8.1 C 8.15 g/m*3 8.1 C 0 km/h
2683 10-11-2020 12:25:00 8.1 C 8.15 g/m*3 8.1 C 0 km/h
2684 10-11-2020 12:30:00 8.2 C 8.21 g/m*3 8.2 C 0 km/h
2685 10-11-2020 12:35:00 8.2 C 8.21 g/m*3 8.2 C 0 km/h
2686 10-11-2020 12:40:00 8.2 C 8.21 g/m*3 8.2 C 0 km/h
2687 10-11-2020 12:45:00 8.2 C 8.21 g/m*3 8.2 C 0 km/h
2688 10-11-2020 12:50:00 8.1 C 8.15 g/m*3 8.1 C 0 km/h
2689 10-11-2020 12:55:00 8.1 C 8.15 g/m*3 8.1 C 0 km/h
2690 10-11-2020 13:00:00 8.1 C 8.15 g/m*3 8.1 C 0 km/h
2691 10-11-2020 13:05:00 8.1 C 8.15 g/m*3 8.1 C 0 km/h
2692 10-11-2020 13:10:00 8.2 C 8.21 g/m*3 8.2 C 1.6 km/h
2693 10-11-2020 13:15:00 8.2 C 8.21 g/m*3 8.2 C 0 km/h
2694 10-11-2020 13:20:00 8.3 C 8.26 g/m*3 8.3 C 0 km/h
2695 10-11-2020 13:25:00 8.4 C 8.31 g/m*3 8.4 C 0 km/h
2696 10-11-2020 13:30:00 8.6 C 8.42 g/m*3 8.6 C 0 km/h
2697 10-11-2020 13:35:00 8.8 C 8.53 g/m*3 8.8 C 0 km/h
2698 10-11-2020 13:40:00 9.1 C 8.7 g/m*3 9.1 C 0 km/h
2699 10-11-2020 13:45:00 9.3 C 8.81 g/m*3 9.3 C 0 km/h
2700 10-11-2020 13:50:00 9.3 C 8.81 g/m*3 9.3 C 0 km/h
Sensor: Nr:Datum:Temp:Abs-Feuchte:Windchill:Wind:
Aussen-T/F 2701 10-11-2020 13:55:00 9.4 C 8.86 g/m*3 9.4 C 0 km/h
2702 10-11-2020 14:00:00 9.6 C 8.98 g/m*3 9.6 C 0 km/h
2703 10-11-2020 14:05:00 9.7 C 9.03 g/m*3 9.7 C 0 km/h
2704 10-11-2020 14:10:00 9.8 C 9.09 g/m*3 9.8 C 0 km/h
2705 10-11-2020 14:15:00 9.9 C 9.15 g/m*3 9.9 C 0 km/h
2706 10-11-2020 14:20:00 9.8 C 9.09 g/m*3 9.8 C 0 km/h
2707 10-11-2020 14:25:00 9.8 C 9.09 g/m*3 9.8 C 0 km/h
2708 10-11-2020 14:30:00 9.8 C 9.09 g/m*3 9.8 C 0 km/h
2709 10-11-2020 14:35:00 9.8 C 9.09 g/m*3 9.8 C 0 km/h
2710 10-11-2020 14:40:00 9.8 C 9.09 g/m*3 9.8 C 0 km/h
2711 10-11-2020 14:45:00 9.8 C 9.09 g/m*3 9.8 C 0 km/h
2712 10-11-2020 14:50:00 9.8 C 9.09 g/m*3 9.8 C 0 km/h
2713 10-11-2020 14:55:00 9.8 C 9.09 g/m*3 9.8 C 0 km/h
2714 10-11-2020 15:00:00 9.9 C 9.15 g/m*3 9.9 C 0 km/h
2715 10-11-2020 15:05:00 10 C 9.11 g/m*3 10 C 0 km/h
2716 10-11-2020 15:10:00 10.1 C 9.17 g/m*3 10.1 C 0 km/h
2717 10-11-2020 15:15:00 10.2 C 9.23 g/m*3 10.2 C 0 km/h
2718 10-11-2020 15:20:00 10.3 C 9.29 g/m*3 10.3 C 0 km/h
2719 10-11-2020 15:25:00 10.3 C 9.29 g/m*3 10.3 C 0 km/h
2720 10-11-2020 15:30:00 10.4 C 9.35 g/m*3 10.4 C 0 km/h
2721 10-11-2020 15:35:00 10.4 C 9.35 g/m*3 10.4 C 0 km/h
2722 10-11-2020 15:40:00 10.4 C 9.35 g/m*3 10.4 C 0 km/h
2723 10-11-2020 15:45:00 10.4 C 9.35 g/m*3 10.4 C 0 km/h
2724 10-11-2020 15:50:00 10.4 C 9.35 g/m*3 10.4 C 0 km/h
2725 10-11-2020 15:55:00 10.3 C 9.29 g/m*3 10.3 C 0 km/h
Sensor: Nr:Datum:Temp:Abs-Feuchte:Windchill:Wind:
Aussen-T/F 2726 10-11-2020 16:00:00 10.3 C 9.29 g/m*3 10.3 C 0 km/h
2727 10-11-2020 16:05:00 10.2 C 9.23 g/m*3 10.2 C 0 km/h
2728 10-11-2020 16:10:00 10.2 C 9.23 g/m*3 10.2 C 0 km/h
2729 10-11-2020 16:15:00 10.1 C 9.17 g/m*3 10.1 C 0 km/h
2730 10-11-2020 16:20:00 9.9 C 8.96 g/m*3 9.9 C 0 km/h
2731 10-11-2020 16:25:00 9.8 C 8.91 g/m*3 9.8 C 0 km/h
2732 10-11-2020 16:30:00 9.6 C 8.79 g/m*3 9.6 C 0 km/h
2733 10-11-2020 16:35:00 9.4 C 8.68 g/m*3 9.4 C 0 km/h
2734 10-11-2020 16:40:00 9.3 C 8.63 g/m*3 9.3 C 0 km/h
2735 10-11-2020 16:45:00 9.1 C 8.52 g/m*3 9.1 C 0 km/h
2736 10-11-2020 16:50:00 8.9 C 8.41 g/m*3 8.9 C 0 km/h
2737 10-11-2020 16:55:00 8.7 C 8.3 g/m*3 8.7 C 0 km/h
2738 10-11-2020 17:00:00 8.6 C 8.25 g/m*3 8.6 C 0 km/h
2739 10-11-2020 17:05:00 8.3 C 8.01 g/m*3 8.3 C 0 km/h
2740 10-11-2020 17:10:00 8.2 C 8.04 g/m*3 8.2 C 0 km/h
2741 10-11-2020 17:15:00 8.1 C 7.99 g/m*3 8.1 C 0 km/h
2742 10-11-2020 17:20:00 7.9 C 7.8 g/m*3 7.9 C 0 km/h
2743 10-11-2020 17:25:00 7.8 C 7.83 g/m*3 7.8 C 0 km/h
2744 10-11-2020 17:30:00 7.7 C 7.78 g/m*3 7.7 C 0 km/h
2745 10-11-2020 17:35:00 7.7 C 7.78 g/m*3 7.7 C 0 km/h
2746 10-11-2020 17:40:00 7.6 C 7.73 g/m*3 7.6 C 0 km/h
2747 10-11-2020 17:45:00 7.5 C 7.68 g/m*3 7.5 C 0 km/h
2748 10-11-2020 17:50:00 7.4 C 7.63 g/m*3 7.4 C 0 km/h
2749 10-11-2020 17:55:00 7.3 C 7.58 g/m*3 7.3 C 0 km/h
2750 10-11-2020 18:00:00 7.1 C 7.49 g/m*3 7.1 C 0 km/h
Sensor: Nr:Datum:Temp:Abs-Feuchte:Windchill:Wind:
Aussen-T/F 2751 10-11-2020 18:05:00 7 C 7.44 g/m*3 7 C 0 km/h
2752 10-11-2020 18:10:00 6.9 C 7.39 g/m*3 6.9 C 0 km/h
2753 10-11-2020 18:15:00 6.8 C 7.34 g/m*3 6.8 C 0 km/h
2754 10-11-2020 18:20:00 6.8 C 7.34 g/m*3 6.8 C 0 km/h
2755 10-11-2020 18:25:00 6.7 C 7.29 g/m*3 6.7 C 0 km/h
2756 10-11-2020 18:30:00 6.7 C 7.29 g/m*3 6.7 C 0 km/h
2757 10-11-2020 18:35:00 6.6 C 7.25 g/m*3 6.6 C 0 km/h
2758 10-11-2020 18:40:00 6.6 C 7.25 g/m*3 6.6 C 0 km/h
2759 10-11-2020 18:45:00 6.6 C 7.25 g/m*3 6.6 C 0 km/h
2760 10-11-2020 18:50:00 6.6 C 7.25 g/m*3 6.6 C 0 km/h
2761 10-11-2020 18:55:00 6.6 C 7.25 g/m*3 6.6 C 0 km/h
2762 10-11-2020 19:00:00 6.7 C 7.29 g/m*3 6.7 C 0 km/h
2763 10-11-2020 19:05:00 6.7 C 7.37 g/m*3 6.7 C 0 km/h
2764 10-11-2020 19:10:00 6.7 C 7.37 g/m*3 6.7 C 0 km/h
2765 10-11-2020 19:15:00 6.8 C 7.42 g/m*3 6.8 C 0 km/h
2766 10-11-2020 19:20:00 6.8 C 7.42 g/m*3 6.8 C 0 km/h
2767 10-11-2020 19:25:00 6.8 C 7.42 g/m*3 6.8 C 0 km/h
2768 10-11-2020 19:30:00 6.8 C 7.42 g/m*3 6.8 C 0 km/h
2769 10-11-2020 19:35:00 6.7 C 7.37 g/m*3 6.7 C 0 km/h
2770 10-11-2020 19:40:00 6.6 C 7.32 g/m*3 6.6 C 0 km/h
2771 10-11-2020 19:45:00 6.6 C 7.25 g/m*3 6.6 C 0 km/h
2772 10-11-2020 19:50:00 6.4 C 7.15 g/m*3 6.4 C 0 km/h
2773 10-11-2020 19:55:00 6.4 C 7.15 g/m*3 6.4 C 0 km/h
2774 10-11-2020 20:00:00 6.4 C 7.23 g/m*3 6.4 C 0 km/h
2775 10-11-2020 20:05:00 6.4 C 7.23 g/m*3 6.4 C 0 km/h
Sensor: Nr:Datum:Temp:Abs-Feuchte:Windchill:Wind:
Aussen-T/F 2776 10-11-2020 20:10:00 6.4 C 7.23 g/m*3 6.4 C 0 km/h
2777 10-11-2020 20:15:00 6.4 C 7.23 g/m*3 6.4 C 0 km/h
2778 10-11-2020 20:20:00 6.4 C 7.23 g/m*3 6.4 C 0 km/h
2779 10-11-2020 20:25:00 6.5 C 7.27 g/m*3 6.5 C 0 km/h
2780 10-11-2020 20:30:00 6.6 C 7.32 g/m*3 6.6 C 0 km/h
2781 10-11-2020 20:35:00 6.7 C 7.37 g/m*3 6.7 C 0 km/h
2782 10-11-2020 20:40:00 6.7 C 7.37 g/m*3 6.7 C 0 km/h
2783 10-11-2020 20:45:00 6.8 C 7.42 g/m*3 6.8 C 0 km/h
2784 10-11-2020 20:50:00 6.8 C 7.42 g/m*3 6.8 C 0 km/h
2785 10-11-2020 20:55:00 6.9 C 7.47 g/m*3 6.9 C 0 km/h
2786 10-11-2020 21:00:00 6.9 C 7.47 g/m*3 6.9 C 0 km/h
2787 10-11-2020 21:05:00 6.9 C 7.47 g/m*3 6.9 C 0 km/h
2788 10-11-2020 21:10:00 7 C 7.52 g/m*3 7 C 0 km/h
2789 10-11-2020 21:15:00 7.1 C 7.57 g/m*3 7.1 C 0 km/h
2790 10-11-2020 21:20:00 7.1 C 7.57 g/m*3 7.1 C 0 km/h
2791 10-11-2020 21:25:00 7.2 C 7.61 g/m*3 7.2 C 0 km/h
2792 10-11-2020 21:30:00 7.2 C 7.61 g/m*3 7.2 C 0 km/h
2793 10-11-2020 21:35:00 7.3 C 7.66 g/m*3 7.3 C 0 km/h
2794 10-11-2020 21:40:00 7.3 C 7.66 g/m*3 7.3 C 0 km/h
2795 10-11-2020 21:45:00 7.3 C 7.66 g/m*3 7.3 C 0 km/h
2796 10-11-2020 21:50:00 7.3 C 7.66 g/m*3 7.3 C 0 km/h
2797 10-11-2020 21:55:00 7.4 C 7.71 g/m*3 7.4 C 0 km/h
2798 10-11-2020 22:00:00 7.4 C 7.71 g/m*3 7.4 C 0 km/h
2799 10-11-2020 22:05:00 7.4 C 7.71 g/m*3 7.4 C 0 km/h
2800 10-11-2020 22:10:00 7.4 C 7.71 g/m*3 7.4 C 0 km/h
Sensor: Nr:Datum:Temp:Abs-Feuchte:Windchill:Wind:
Aussen-T/F 2801 10-11-2020 22:15:00 7.5 C 7.76 g/m*3 7.5 C 0 km/h
2802 10-11-2020 22:20:00 7.5 C 7.76 g/m*3 7.5 C 0 km/h
2803 10-11-2020 22:25:00 7.6 C 7.81 g/m*3 7.6 C 0 km/h
2804 10-11-2020 22:30:00 7.6 C 7.81 g/m*3 7.6 C 0 km/h
2805 10-11-2020 22:35:00 7.6 C 7.81 g/m*3 7.6 C 0 km/h
2806 10-11-2020 22:40:00 7.6 C 7.81 g/m*3 7.6 C 0 km/h
2807 10-11-2020 22:45:00 7.6 C 7.81 g/m*3 7.6 C 0 km/h
2808 10-11-2020 22:50:00 7.6 C 7.81 g/m*3 7.6 C 0 km/h
2809 10-11-2020 22:55:00 7.7 C 7.87 g/m*3 7.7 C 0 km/h
2810 10-11-2020 23:00:00 7.7 C 7.87 g/m*3 7.7 C 0 km/h
2811 10-11-2020 23:05:00 7.7 C 7.87 g/m*3 7.7 C 0 km/h
2812 10-11-2020 23:10:00 7.7 C 7.87 g/m*3 7.7 C 0 km/h
2813 10-11-2020 23:15:00 7.7 C 7.87 g/m*3 7.7 C 0 km/h
2814 10-11-2020 23:20:00 7.7 C 7.87 g/m*3 7.7 C 0 km/h
2815 10-11-2020 23:25:00 7.7 C 7.87 g/m*3 7.7 C 0 km/h
2816 10-11-2020 23:30:00 7.8 C 7.92 g/m*3 7.8 C 0 km/h
2817 10-11-2020 23:35:00 7.8 C 7.92 g/m*3 7.8 C 0 km/h
2818 10-11-2020 23:40:00 7.8 C 7.92 g/m*3 7.8 C 0 km/h
2819 10-11-2020 23:45:00 7.7 C 7.87 g/m*3 7.7 C 0 km/h
2820 10-11-2020 23:50:00 7.7 C 7.87 g/m*3 7.7 C 0 km/h
2821 10-11-2020 23:55:00 7.7 C 7.87 g/m*3 7.7 C 0 km/h
2822 11-11-2020 00:00:00 7.7 C 7.87 g/m*3 7.7 C 0 km/h
2823 11-11-2020 00:05:00 7.7 C 7.87 g/m*3 7.7 C 0 km/h
2824 11-11-2020 00:10:00 7.7 C 7.87 g/m*3 7.7 C 0 km/h
2825 11-11-2020 00:15:00 7.7 C 7.87 g/m*3 7.7 C 0 km/h
Sensor: Nr:Datum:Temp:Abs-Feuchte:Windchill:Wind:
Aussen-T/F 2826 11-11-2020 00:20:00 7.7 C 7.87 g/m*3 7.7 C 0 km/h
2827 11-11-2020 00:25:00 7.7 C 7.87 g/m*3 7.7 C 0 km/h
2828 11-11-2020 00:30:00 7.7 C 7.87 g/m*3 7.7 C 0 km/h
2829 11-11-2020 00:35:00 7.7 C 7.87 g/m*3 7.7 C 0 km/h
2830 11-11-2020 00:40:00 7.7 C 7.87 g/m*3 7.7 C 0 km/h
2831 11-11-2020 00:45:00 7.7 C 7.87 g/m*3 7.7 C 0 km/h
2832 11-11-2020 00:50:00 7.7 C 7.87 g/m*3 7.7 C 0 km/h
2833 11-11-2020 00:55:00 7.7 C 7.87 g/m*3 7.7 C 0 km/h
2834 11-11-2020 01:00:00 7.7 C 7.87 g/m*3 7.7 C 0 km/h
2835 11-11-2020 01:05:00 7.7 C 7.87 g/m*3 7.7 C 0 km/h
2836 11-11-2020 01:10:00 7.7 C 7.87 g/m*3 7.7 C 0 km/h
2837 11-11-2020 01:15:00 7.7 C 7.87 g/m*3 7.7 C 0 km/h
2838 11-11-2020 01:20:00 7.8 C 7.92 g/m*3 7.8 C 0 km/h
2839 11-11-2020 01:25:00 7.8 C 7.92 g/m*3 7.8 C 0 km/h
2840 11-11-2020 01:30:00 7.8 C 7.92 g/m*3 7.8 C 0 km/h
2841 11-11-2020 01:35:00 7.8 C 7.92 g/m*3 7.8 C 0 km/h
2842 11-11-2020 01:40:00 7.8 C 7.92 g/m*3 7.8 C 0 km/h
2843 11-11-2020 01:45:00 7.8 C 7.92 g/m*3 7.8 C 0 km/h
2844 11-11-2020 01:50:00 7.8 C 7.92 g/m*3 7.8 C 0 km/h
2845 11-11-2020 01:55:00 7.8 C 7.92 g/m*3 7.8 C 0 km/h
2846 11-11-2020 02:00:00 7.8 C 7.92 g/m*3 7.8 C 0 km/h
2847 11-11-2020 02:05:00 7.8 C 7.92 g/m*3 7.8 C 0 km/h
2848 11-11-2020 02:10:00 7.8 C 7.92 g/m*3 7.8 C 0 km/h
2849 11-11-2020 02:15:00 7.8 C 7.92 g/m*3 7.8 C 0 km/h
2850 11-11-2020 02:20:00 7.8 C 7.92 g/m*3 7.8 C 0 km/h
Sensor: Nr:Datum:Temp:Abs-Feuchte:Windchill:Wind:
Aussen-T/F 2851 11-11-2020 02:25:00 7.8 C 7.92 g/m*3 7.8 C 0 km/h
2852 11-11-2020 02:30:00 7.8 C 7.92 g/m*3 7.8 C 0 km/h
2853 11-11-2020 02:35:00 7.8 C 7.92 g/m*3 7.8 C 0 km/h
2854 11-11-2020 02:40:00 7.7 C 7.87 g/m*3 7.7 C 0 km/h
2855 11-11-2020 02:45:00 7.7 C 7.87 g/m*3 7.7 C 0 km/h
2856 11-11-2020 02:50:00 7.7 C 7.87 g/m*3 7.7 C 0 km/h
2857 11-11-2020 02:55:00 7.7 C 7.87 g/m*3 7.7 C 0 km/h
2858 11-11-2020 03:00:00 7.8 C 7.92 g/m*3 7.8 C 0 km/h
2859 11-11-2020 03:05:00 7.7 C 7.87 g/m*3 7.7 C 0 km/h
2860 11-11-2020 03:10:00 7.8 C 7.92 g/m*3 7.8 C 0 km/h
2861 11-11-2020 03:15:00 7.8 C 7.92 g/m*3 7.8 C 0 km/h
2862 11-11-2020 03:20:00 7.8 C 7.92 g/m*3 7.8 C 0 km/h
2863 11-11-2020 03:25:00 7.8 C 7.92 g/m*3 7.8 C 0 km/h
2864 11-11-2020 03:30:00 7.8 C 7.92 g/m*3 7.8 C 0 km/h
2865 11-11-2020 03:35:00 7.8 C 7.92 g/m*3 7.8 C 0 km/h
2866 11-11-2020 03:40:00 7.8 C 7.92 g/m*3 7.8 C 0 km/h
2867 11-11-2020 03:45:00 7.8 C 7.92 g/m*3 7.8 C 0 km/h
2868 11-11-2020 03:50:00 7.8 C 7.92 g/m*3 7.8 C 0 km/h
2869 11-11-2020 03:55:00 7.8 C 7.92 g/m*3 7.8 C 0 km/h
2870 11-11-2020 04:00:00 7.8 C 7.92 g/m*3 7.8 C 0 km/h
2871 11-11-2020 04:05:00 7.8 C 7.92 g/m*3 7.8 C 0 km/h
2872 11-11-2020 04:10:00 7.8 C 7.92 g/m*3 7.8 C 0 km/h
2873 11-11-2020 04:15:00 7.8 C 7.92 g/m*3 7.8 C 0 km/h
2874 11-11-2020 04:20:00 7.8 C 7.92 g/m*3 7.8 C 0 km/h
2875 11-11-2020 04:25:00 7.8 C 7.92 g/m*3 7.8 C 0 km/h
Sensor: Nr:Datum:Temp:Abs-Feuchte:Windchill:Wind:
Aussen-T/F 2876 11-11-2020 04:30:00 7.8 C 7.92 g/m*3 7.8 C 0 km/h
2877 11-11-2020 04:35:00 7.8 C 7.92 g/m*3 7.8 C 0 km/h
2878 11-11-2020 04:40:00 7.8 C 7.92 g/m*3 7.8 C 0 km/h
2879 11-11-2020 04:45:00 7.9 C 7.97 g/m*3 7.9 C 0 km/h
2880 11-11-2020 04:50:00 7.9 C 7.97 g/m*3 7.9 C 0 km/h
2881 11-11-2020 04:55:00 7.9 C 7.97 g/m*3 7.9 C 0 km/h
2882 11-11-2020 05:00:00 7.9 C 7.97 g/m*3 7.9 C 0 km/h
2883 11-11-2020 05:05:00 7.9 C 7.97 g/m*3 7.9 C 0 km/h
2884 11-11-2020 05:10:00 7.9 C 7.97 g/m*3 7.9 C 0 km/h
2885 11-11-2020 05:15:00 7.8 C 7.92 g/m*3 7.8 C 0 km/h
2886 11-11-2020 05:20:00 7.9 C 7.97 g/m*3 7.9 C 0 km/h
2887 11-11-2020 05:25:00 7.9 C 7.97 g/m*3 7.9 C 0 km/h
2888 11-11-2020 05:30:00 7.9 C 7.97 g/m*3 7.9 C 0 km/h
2889 11-11-2020 05:35:00 7.9 C 7.97 g/m*3 7.9 C 0 km/h
2890 11-11-2020 05:40:00 7.9 C 7.97 g/m*3 7.9 C 0 km/h
2891 11-11-2020 05:45:00 7.9 C 7.97 g/m*3 7.9 C 0 km/h
2892 11-11-2020 05:50:00 7.9 C 7.97 g/m*3 7.9 C 0 km/h
2893 11-11-2020 05:55:00 7.9 C 7.97 g/m*3 7.9 C 0 km/h
2894 11-11-2020 06:00:00 7.9 C 7.97 g/m*3 7.9 C 0 km/h
2895 11-11-2020 06:05:00 7.9 C 7.97 g/m*3 7.9 C 0 km/h
2896 11-11-2020 06:10:00 7.9 C 7.97 g/m*3 7.9 C 0 km/h
2897 11-11-2020 06:15:00 7.9 C 7.97 g/m*3 7.9 C 0 km/h
2898 11-11-2020 06:20:00 7.9 C 7.97 g/m*3 7.9 C 0 km/h
2899 11-11-2020 06:25:00 7.9 C 7.97 g/m*3 7.9 C 0 km/h
2900 11-11-2020 06:30:00 7.9 C 7.97 g/m*3 7.9 C 0 km/h
Sensor: Nr:Datum:Temp:Abs-Feuchte:Windchill:Wind:
Aussen-T/F 2901 11-11-2020 06:35:00 7.9 C 7.97 g/m*3 7.9 C 0 km/h
2902 11-11-2020 06:40:00 7.9 C 7.97 g/m*3 7.9 C 0 km/h
2903 11-11-2020 06:45:00 7.9 C 7.97 g/m*3 7.9 C 0 km/h
2904 11-11-2020 06:50:00 7.9 C 7.97 g/m*3 7.9 C 0 km/h
2905 11-11-2020 06:55:00 7.9 C 7.97 g/m*3 7.9 C 0 km/h
2906 11-11-2020 07:00:00 7.9 C 7.97 g/m*3 7.9 C 0 km/h
2907 11-11-2020 07:05:00 7.9 C 7.97 g/m*3 7.9 C 0 km/h
2908 11-11-2020 07:10:00 7.9 C 7.97 g/m*3 7.9 C 0 km/h
2909 11-11-2020 07:15:00 7.9 C 7.97 g/m*3 7.9 C 0 km/h
2910 11-11-2020 07:20:00 7.9 C 7.97 g/m*3 7.9 C 0 km/h
2911 11-11-2020 07:25:00 7.9 C 7.97 g/m*3 7.9 C 0 km/h
2912 11-11-2020 07:30:00 7.9 C 7.97 g/m*3 7.9 C 0 km/h
2913 11-11-2020 07:35:00 7.9 C 7.97 g/m*3 7.9 C 0 km/h
2914 11-11-2020 07:40:00 7.9 C 7.97 g/m*3 7.9 C 0 km/h
2915 11-11-2020 07:45:00 7.9 C 7.97 g/m*3 7.9 C 0 km/h
2916 11-11-2020 07:50:00 8 C 8.02 g/m*3 8 C 0 km/h
2917 11-11-2020 07:55:00 8 C 8.02 g/m*3 8 C 0 km/h
2918 11-11-2020 08:00:00 8 C 8.02 g/m*3 8 C 0 km/h
2919 11-11-2020 08:05:00 8 C 8.02 g/m*3 8 C 0 km/h
2920 11-11-2020 08:10:00 8 C 8.02 g/m*3 8 C 0 km/h
2921 11-11-2020 08:15:00 8.1 C 8.07 g/m*3 8.1 C 0 km/h
2922 11-11-2020 08:20:00 8.1 C 8.07 g/m*3 8.1 C 0 km/h
2923 11-11-2020 08:25:00 8.1 C 8.07 g/m*3 8.1 C 0 km/h
2924 11-11-2020 08:30:00 8.1 C 8.07 g/m*3 8.1 C 0 km/h
2925 11-11-2020 08:35:00 8.1 C 8.07 g/m*3 8.1 C 0 km/h
Sensor: Nr:Datum:Temp:Abs-Feuchte:Windchill:Wind:
Aussen-T/F 2926 11-11-2020 08:40:00 8.1 C 8.07 g/m*3 8.1 C 0 km/h
2927 11-11-2020 08:45:00 8.1 C 8.07 g/m*3 8.1 C 0 km/h
2928 11-11-2020 08:50:00 8.1 C 8.07 g/m*3 8.1 C 0 km/h
2929 11-11-2020 08:55:00 8.2 C 8.12 g/m*3 8.2 C 0 km/h
2930 11-11-2020 09:00:00 8.2 C 8.12 g/m*3 8.2 C 0 km/h
2931 11-11-2020 09:05:00 8.3 C 8.18 g/m*3 8.3 C 0 km/h
2932 11-11-2020 09:10:00 8.3 C 8.18 g/m*3 8.3 C 0 km/h
2933 11-11-2020 09:15:00 8.3 C 8.18 g/m*3 8.3 C 0 km/h
2934 11-11-2020 09:20:00 8.3 C 8.18 g/m*3 8.3 C 0 km/h
2935 11-11-2020 09:25:00 8.4 C 8.23 g/m*3 8.4 C 0 km/h
2936 11-11-2020 09:30:00 8.4 C 8.23 g/m*3 8.4 C 0 km/h
2937 11-11-2020 09:35:00 8.5 C 8.28 g/m*3 8.5 C 0 km/h
2938 11-11-2020 09:40:00 8.5 C 8.28 g/m*3 8.5 C 0 km/h
2939 11-11-2020 09:45:00 8.5 C 8.28 g/m*3 8.5 C 0 km/h
2940 11-11-2020 09:50:00 8.6 C 8.34 g/m*3 8.6 C 0 km/h
2941 11-11-2020 09:55:00 8.6 C 8.34 g/m*3 8.6 C 0 km/h
2942 11-11-2020 10:00:00 8.6 C 8.34 g/m*3 8.6 C 0 km/h
2943 11-11-2020 10:05:00 8.6 C 8.34 g/m*3 8.6 C 0 km/h
2944 11-11-2020 10:10:00 8.7 C 8.39 g/m*3 8.7 C 0 km/h
2945 11-11-2020 10:15:00 8.8 C 8.44 g/m*3 8.8 C 0 km/h
2946 11-11-2020 10:20:00 8.9 C 8.5 g/m*3 8.9 C 0 km/h
2947 11-11-2020 10:25:00 9 C 8.55 g/m*3 9 C 0 km/h
2948 11-11-2020 10:30:00 9.1 C 8.61 g/m*3 9.1 C 0 km/h
2949 11-11-2020 10:35:00 9.2 C 8.57 g/m*3 9.2 C 0 km/h
2950 11-11-2020 10:40:00 9.3 C 8.63 g/m*3 9.3 C 0 km/h
Sensor: Nr:Datum:Temp:Abs-Feuchte:Windchill:Wind:
Aussen-T/F 2951 11-11-2020 10:45:00 9.3 C 8.63 g/m*3 9.3 C 0 km/h
2952 11-11-2020 10:50:00 9.5 C 8.74 g/m*3 9.5 C 0 km/h
2953 11-11-2020 10:55:00 9.6 C 8.79 g/m*3 8.91 C 6.4 km/h
2954 11-11-2020 11:00:00 9.7 C 8.85 g/m*3 8.33 C 9.7 km/h
2955 11-11-2020 11:05:00 9.8 C 8.91 g/m*3 7.54 C 16.1 km/h
2956 11-11-2020 11:10:00 9.8 C 8.81 g/m*3 7.54 C 16.1 km/h
2957 11-11-2020 11:15:00 9.9 C 8.87 g/m*3 8.87 C 8.1 km/h
2958 11-11-2020 11:20:00 9.9 C 8.87 g/m*3 9.9 C 3.2 km/h
2959 11-11-2020 11:25:00 10 C 8.83 g/m*3 9.37 C 6.4 km/h
2960 11-11-2020 11:30:00 10 C 8.83 g/m*3 10 C 3.2 km/h
2961 11-11-2020 11:35:00 10 C 8.83 g/m*3 8.99 C 8.1 km/h
2962 11-11-2020 11:40:00 10 C 8.74 g/m*3 9.37 C 6.4 km/h
2963 11-11-2020 11:45:00 9.9 C 8.68 g/m*3 9.25 C 6.4 km/h
2964 11-11-2020 11:50:00 9.9 C 8.68 g/m*3 9.25 C 6.4 km/h
2965 11-11-2020 11:55:00 9.9 C 8.68 g/m*3 9.9 C 1.6 km/h
2966 11-11-2020 12:00:00 9.9 C 8.68 g/m*3 9.9 C 0 km/h
2967 11-11-2020 12:05:00 9.9 C 8.68 g/m*3 9.9 C 1.6 km/h
2968 11-11-2020 12:10:00 9.9 C 8.68 g/m*3 9.9 C 0 km/h
2969 11-11-2020 12:15:00 10 C 8.74 g/m*3 10 C 1.6 km/h
2970 11-11-2020 12:20:00 10 C 8.74 g/m*3 10 C 0 km/h
2971 11-11-2020 12:25:00 10 C 8.74 g/m*3 10 C 3.2 km/h
2972 11-11-2020 12:30:00 10 C 8.74 g/m*3 10 C 0 km/h
2973 11-11-2020 12:35:00 10 C 8.74 g/m*3 10 C 3.2 km/h
2974 11-11-2020 12:40:00 10 C 8.74 g/m*3 10 C 1.6 km/h
2975 11-11-2020 12:45:00 10.1 C 8.79 g/m*3 10.1 C 3.2 km/h
Sensor: Nr:Datum:Temp:Abs-Feuchte:Windchill:Wind:
Aussen-T/F 2976 11-11-2020 12:50:00 10.1 C 8.79 g/m*3 10.1 C 3.2 km/h
2977 11-11-2020 12:55:00 10.1 C 8.79 g/m*3 10.1 C 0 km/h
2978 11-11-2020 13:00:00 10.2 C 8.85 g/m*3 10.2 C 0 km/h
2979 11-11-2020 13:05:00 10.3 C 8.91 g/m*3 10.3 C 3.2 km/h
2980 11-11-2020 13:10:00 10.4 C 8.96 g/m*3 10.4 C 1.6 km/h
2981 11-11-2020 13:15:00 10.6 C 9.08 g/m*3 10.6 C 0 km/h
2982 11-11-2020 13:20:00 10.7 C 9.13 g/m*3 10.7 C 1.6 km/h
2983 11-11-2020 13:25:00 10.8 C 9.19 g/m*3 10.8 C 1.6 km/h
2984 11-11-2020 13:30:00 10.9 C 9.15 g/m*3 10.9 C 0 km/h
2985 11-11-2020 13:35:00 10.9 C 9.15 g/m*3 10.9 C 3.2 km/h
2986 11-11-2020 13:40:00 11 C 9.11 g/m*3 10.16 C 8.1 km/h
2987 11-11-2020 13:45:00 10.9 C 9.05 g/m*3 10.9 C 4.8 km/h
2988 11-11-2020 13:50:00 10.8 C 8.99 g/m*3 10.8 C 3.2 km/h
2989 11-11-2020 13:55:00 10.8 C 8.99 g/m*3 10.8 C 4.8 km/h
2990 11-11-2020 14:00:00 10.9 C 9.05 g/m*3 10.9 C 1.6 km/h
2991 11-11-2020 14:05:00 10.9 C 9.05 g/m*3 10.9 C 3.2 km/h
2992 11-11-2020 14:10:00 10.9 C 9.05 g/m*3 10.9 C 0 km/h
2993 11-11-2020 14:15:00 11.1 C 9.17 g/m*3 11.1 C 1.6 km/h
2994 11-11-2020 14:20:00 11.2 C 9.33 g/m*3 11.2 C 0 km/h
2995 11-11-2020 14:25:00 11.3 C 9.28 g/m*3 11.3 C 3.2 km/h
2996 11-11-2020 14:30:00 11.4 C 9.34 g/m*3 11.4 C 1.6 km/h
2997 11-11-2020 14:35:00 11.5 C 9.3 g/m*3 11.5 C 1.6 km/h
2998 11-11-2020 14:40:00 11.6 C 9.35 g/m*3 11.6 C 4.8 km/h
2999 11-11-2020 14:45:00 11.6 C 9.35 g/m*3 11.6 C 6.4 km/h
3000 11-11-2020 14:50:00 11.6 C 9.35 g/m*3 11.6 C 3.2 km/h
Sensor: Nr:Datum:Temp:Abs-Feuchte:Windchill:Wind:
Aussen-T/F 3001 11-11-2020 14:55:00 11.5 C 9.3 g/m*3 11.5 C 4.8 km/h
3002 11-11-2020 15:00:00 11.4 C 9.14 g/m*3 11.4 C 6.4 km/h
3003 11-11-2020 15:05:00 11.4 C 9.24 g/m*3 11.4 C 3.2 km/h
3004 11-11-2020 15:10:00 11.3 C 9.18 g/m*3 11.3 C 8.1 km/h
3005 11-11-2020 15:15:00 11.3 C 9.18 g/m*3 11.3 C 4.8 km/h
3006 11-11-2020 15:20:00 11.3 C 9.18 g/m*3 11.3 C 8.1 km/h
3007 11-11-2020 15:25:00 11.3 C 9.18 g/m*3 11.3 C 6.4 km/h
3008 11-11-2020 15:30:00 11.3 C 9.18 g/m*3 11.3 C 6.4 km/h
3009 11-11-2020 15:35:00 11.3 C 9.18 g/m*3 11.3 C 1.6 km/h
3010 11-11-2020 15:40:00 11.2 C 9.12 g/m*3 11.2 C 6.4 km/h
3011 11-11-2020 15:45:00 11.2 C 9.12 g/m*3 11.2 C 8.1 km/h
3012 11-11-2020 15:50:00 11.2 C 9.12 g/m*3 11.2 C 4.8 km/h
3013 11-11-2020 15:55:00 11.2 C 9.12 g/m*3 11.2 C 6.4 km/h
3014 11-11-2020 16:00:00 11.1 C 9.17 g/m*3 11.1 C 9.7 km/h
3015 11-11-2020 16:05:00 11.1 C 9.17 g/m*3 11.1 C 9.7 km/h
3016 11-11-2020 16:10:00 11.1 C 9.17 g/m*3 11.1 C 6.4 km/h
3017 11-11-2020 16:15:00 11.1 C 9.17 g/m*3 11.1 C 4.8 km/h
3018 11-11-2020 16:20:00 11 C 9.11 g/m*3 11 C 3.2 km/h
3019 11-11-2020 16:25:00 11 C 9.11 g/m*3 10.52 C 6.4 km/h
3020 11-11-2020 16:30:00 10.9 C 9.05 g/m*3 10.04 C 8.1 km/h
3021 11-11-2020 16:35:00 10.9 C 9.05 g/m*3 10.9 C 1.6 km/h
3022 11-11-2020 16:40:00 10.9 C 9.05 g/m*3 10.9 C 3.2 km/h
3023 11-11-2020 16:45:00 10.8 C 8.99 g/m*3 10.8 C 0 km/h
3024 11-11-2020 16:50:00 10.8 C 8.99 g/m*3 10.8 C 1.6 km/h
3025 11-11-2020 16:55:00 10.8 C 8.99 g/m*3 10.8 C 1.6 km/h
Sensor: Nr:Datum:Temp:Abs-Feuchte:Windchill:Wind:
Aussen-T/F 3026 11-11-2020 17:00:00 10.8 C 8.99 g/m*3 10.8 C 3.2 km/h
3027 11-11-2020 17:05:00 10.7 C 8.94 g/m*3 10.7 C 4.8 km/h
3028 11-11-2020 17:10:00 10.7 C 8.94 g/m*3 10.7 C 1.6 km/h
3029 11-11-2020 17:15:00 10.6 C 8.88 g/m*3 10.6 C 0 km/h
3030 11-11-2020 17:20:00 10.6 C 8.88 g/m*3 10.6 C 1.6 km/h
3031 11-11-2020 17:25:00 10.5 C 8.83 g/m*3 10.5 C 3.2 km/h
3032 11-11-2020 17:30:00 10.4 C 8.77 g/m*3 10.4 C 1.6 km/h
3033 11-11-2020 17:35:00 10.4 C 8.77 g/m*3 10.4 C 1.6 km/h
3034 11-11-2020 17:40:00 10.3 C 8.71 g/m*3 9.04 C 9.7 km/h
3035 11-11-2020 17:45:00 10.2 C 8.66 g/m*3 9.22 C 8.1 km/h
3036 11-11-2020 17:50:00 10.2 C 8.66 g/m*3 9.22 C 8.1 km/h
3037 11-11-2020 17:55:00 10.1 C 8.61 g/m*3 9.48 C 6.4 km/h
3038 11-11-2020 18:00:00 10 C 8.64 g/m*3 9.37 C 6.4 km/h
3039 11-11-2020 18:05:00 9.9 C 8.5 g/m*3 8.87 C 8.1 km/h
3040 11-11-2020 18:10:00 9.9 C 8.59 g/m*3 9.9 C 3.2 km/h
3041 11-11-2020 18:15:00 9.8 C 8.54 g/m*3 9.8 C 3.2 km/h
3042 11-11-2020 18:20:00 9.8 C 8.54 g/m*3 9.14 C 6.4 km/h
3043 11-11-2020 18:25:00 9.7 C 8.48 g/m*3 8.33 C 9.7 km/h
3044 11-11-2020 18:30:00 9.7 C 8.48 g/m*3 7.82 C 12.9 km/h
3045 11-11-2020 18:35:00 9.6 C 8.43 g/m*3 8.91 C 6.4 km/h
3046 11-11-2020 18:40:00 9.6 C 8.43 g/m*3 7.94 C 11.3 km/h
3047 11-11-2020 18:45:00 9.4 C 8.32 g/m*3 8.28 C 8.1 km/h
3048 11-11-2020 18:50:00 9.4 C 8.32 g/m*3 7.7 C 11.3 km/h
3049 11-11-2020 18:55:00 9.3 C 8.36 g/m*3 6.92 C 16.1 km/h
3050 11-11-2020 19:00:00 9.3 C 8.36 g/m*3 7.58 C 11.3 km/h
Sensor: Nr:Datum:Temp:Abs-Feuchte:Windchill:Wind:
Aussen-T/F 3051 11-11-2020 19:05:00 9.2 C 8.3 g/m*3 8.45 C 6.4 km/h
3052 11-11-2020 19:10:00 9.2 C 8.3 g/m*3 7.21 C 12.9 km/h
3053 11-11-2020 19:15:00 9.1 C 8.25 g/m*3 6.48 C 17.7 km/h
3054 11-11-2020 19:20:00 9.1 C 8.25 g/m*3 6.48 C 17.7 km/h
3055 11-11-2020 19:25:00 9.1 C 8.25 g/m*3 7.09 C 12.9 km/h
3056 11-11-2020 19:30:00 9 C 8.2 g/m*3 9 C 3.2 km/h
3057 11-11-2020 19:35:00 9 C 8.2 g/m*3 7.21 C 11.3 km/h
3058 11-11-2020 19:40:00 8.9 C 8.15 g/m*3 7.09 C 11.3 km/h
3059 11-11-2020 19:45:00 8.9 C 8.15 g/m*3 7.69 C 8.1 km/h
3060 11-11-2020 19:50:00 8.9 C 8.15 g/m*3 8.1 C 6.4 km/h
3061 11-11-2020 19:55:00 8.9 C 8.15 g/m*3 8.1 C 6.4 km/h
3062 11-11-2020 20:00:00 8.9 C 8.15 g/m*3 8.1 C 6.4 km/h
3063 11-11-2020 20:05:00 8.8 C 8.09 g/m*3 7.98 C 6.4 km/h
3064 11-11-2020 20:10:00 8.8 C 8.09 g/m*3 7.98 C 6.4 km/h
3065 11-11-2020 20:15:00 8.8 C 8.09 g/m*3 8.8 C 1.6 km/h
3066 11-11-2020 20:20:00 8.8 C 8.09 g/m*3 8.8 C 4.8 km/h
3067 11-11-2020 20:25:00 8.8 C 8.09 g/m*3 8.8 C 4.8 km/h
3068 11-11-2020 20:30:00 8.8 C 8.09 g/m*3 8.8 C 3.2 km/h
3069 11-11-2020 20:35:00 8.8 C 8.09 g/m*3 8.8 C 4.8 km/h
3070 11-11-2020 20:40:00 8.7 C 8.04 g/m*3 8.7 C 3.2 km/h
3071 11-11-2020 20:45:00 8.7 C 8.04 g/m*3 8.7 C 1.6 km/h
3072 11-11-2020 20:50:00 8.7 C 8.04 g/m*3 8.7 C 0 km/h
3073 11-11-2020 20:55:00 8.7 C 8.04 g/m*3 8.7 C 0 km/h
3074 11-11-2020 21:00:00 8.7 C 8.04 g/m*3 8.7 C 3.2 km/h
3075 11-11-2020 21:05:00 8.7 C 8.04 g/m*3 8.7 C 0 km/h
Sensor: Nr:Datum:Temp:Abs-Feuchte:Windchill:Wind:
Aussen-T/F 3076 11-11-2020 21:10:00 8.7 C 8.04 g/m*3 7.87 C 6.4 km/h
3077 11-11-2020 21:15:00 8.7 C 8.04 g/m*3 8.7 C 0 km/h
3078 11-11-2020 21:20:00 8.7 C 8.13 g/m*3 8.7 C 1.6 km/h
3079 11-11-2020 21:25:00 8.7 C 8.13 g/m*3 8.7 C 0 km/h
3080 11-11-2020 21:30:00 8.7 C 8.13 g/m*3 8.7 C 0 km/h
3081 11-11-2020 21:35:00 8.7 C 8.13 g/m*3 8.7 C 0 km/h
3082 11-11-2020 21:40:00 8.7 C 8.04 g/m*3 8.7 C 1.6 km/h
3083 11-11-2020 21:45:00 8.7 C 8.13 g/m*3 8.7 C 0 km/h
3084 11-11-2020 21:50:00 8.7 C 8.13 g/m*3 8.7 C 0 km/h
3085 11-11-2020 21:55:00 8.7 C 8.13 g/m*3 8.7 C 0 km/h
3086 11-11-2020 22:00:00 8.7 C 8.13 g/m*3 8.7 C 0 km/h
3087 11-11-2020 22:05:00 8.7 C 8.13 g/m*3 8.7 C 0 km/h
3088 11-11-2020 22:10:00 8.7 C 8.13 g/m*3 8.7 C 0 km/h
3089 11-11-2020 22:15:00 8.7 C 8.13 g/m*3 8.7 C 0 km/h
3090 11-11-2020 22:20:00 8.8 C 8.18 g/m*3 8.8 C 0 km/h
3091 11-11-2020 22:25:00 8.8 C 8.18 g/m*3 8.8 C 1.6 km/h
3092 11-11-2020 22:30:00 8.8 C 8.18 g/m*3 8.8 C 0 km/h
3093 11-11-2020 22:35:00 8.8 C 8.18 g/m*3 8.8 C 0 km/h
3094 11-11-2020 22:40:00 8.8 C 8.18 g/m*3 8.8 C 0 km/h
3095 11-11-2020 22:45:00 8.8 C 8.18 g/m*3 8.8 C 0 km/h
3096 11-11-2020 22:50:00 8.8 C 8.18 g/m*3 8.8 C 0 km/h
3097 11-11-2020 22:55:00 8.8 C 8.18 g/m*3 8.8 C 0 km/h
3098 11-11-2020 23:00:00 8.8 C 8.18 g/m*3 8.8 C 0 km/h
3099 11-11-2020 23:05:00 8.8 C 8.18 g/m*3 8.8 C 0 km/h
3100 11-11-2020 23:10:00 8.8 C 8.18 g/m*3 8.8 C 0 km/h
Sensor: Nr:Datum:Temp:Abs-Feuchte:Windchill:Wind:
Aussen-T/F 3101 11-11-2020 23:15:00 8.8 C 8.18 g/m*3 8.8 C 0 km/h
3102 11-11-2020 23:20:00 8.8 C 8.18 g/m*3 8.8 C 0 km/h
3103 11-11-2020 23:25:00 8.8 C 8.18 g/m*3 8.8 C 0 km/h
3104 11-11-2020 23:30:00 8.8 C 8.18 g/m*3 8.8 C 0 km/h
3105 11-11-2020 23:35:00 8.8 C 8.18 g/m*3 8.8 C 0 km/h
3106 11-11-2020 23:40:00 8.8 C 8.18 g/m*3 8.8 C 0 km/h
3107 11-11-2020 23:45:00 8.8 C 8.18 g/m*3 8.8 C 0 km/h
3108 11-11-2020 23:50:00 8.8 C 8.18 g/m*3 8.8 C 0 km/h
3109 11-11-2020 23:55:00 8.8 C 8.18 g/m*3 8.8 C 0 km/h
3110 12-11-2020 00:00:00 8.8 C 8.18 g/m*3 8.8 C 0 km/h
3111 12-11-2020 00:05:00 8.8 C 8.18 g/m*3 8.8 C 0 km/h
3112 12-11-2020 00:10:00 8.8 C 8.18 g/m*3 8.8 C 0 km/h
3113 12-11-2020 00:15:00 8.8 C 8.18 g/m*3 8.8 C 0 km/h
3114 12-11-2020 00:20:00 8.8 C 8.18 g/m*3 8.8 C 0 km/h
3115 12-11-2020 00:25:00 8.8 C 8.18 g/m*3 8.8 C 0 km/h
3116 12-11-2020 00:30:00 8.8 C 8.18 g/m*3 8.8 C 0 km/h
3117 12-11-2020 00:35:00 8.8 C 8.18 g/m*3 8.8 C 0 km/h
3118 12-11-2020 00:40:00 8.8 C 8.18 g/m*3 8.8 C 0 km/h
3119 12-11-2020 00:45:00 8.8 C 8.18 g/m*3 8.8 C 3.2 km/h
3120 12-11-2020 00:50:00 8.9 C 8.23 g/m*3 8.9 C 3.2 km/h
3121 12-11-2020 00:55:00 8.9 C 8.23 g/m*3 8.9 C 3.2 km/h
3122 12-11-2020 01:00:00 8.9 C 8.23 g/m*3 8.9 C 0 km/h
3123 12-11-2020 01:05:00 8.9 C 8.23 g/m*3 8.9 C 1.6 km/h
3124 12-11-2020 01:10:00 8.8 C 8.18 g/m*3 8.8 C 1.6 km/h
3125 12-11-2020 01:15:00 8.9 C 8.23 g/m*3 8.9 C 0 km/h
Sensor: Nr:Datum:Temp:Abs-Feuchte:Windchill:Wind:
Aussen-T/F 3126 12-11-2020 01:20:00 8.9 C 8.23 g/m*3 8.9 C 0 km/h
3127 12-11-2020 01:25:00 8.9 C 8.23 g/m*3 8.9 C 0 km/h
3128 12-11-2020 01:30:00 8.9 C 8.23 g/m*3 8.9 C 0 km/h
3129 12-11-2020 01:35:00 8.9 C 8.23 g/m*3 8.9 C 0 km/h
3130 12-11-2020 01:40:00 8.9 C 8.23 g/m*3 8.9 C 0 km/h
3131 12-11-2020 01:45:00 8.9 C 8.23 g/m*3 8.9 C 0 km/h
3132 12-11-2020 01:50:00 8.9 C 8.23 g/m*3 8.9 C 0 km/h
3133 12-11-2020 01:55:00 8.9 C 8.23 g/m*3 8.9 C 0 km/h
3134 12-11-2020 02:00:00 8.9 C 8.23 g/m*3 8.9 C 0 km/h
3135 12-11-2020 02:05:00 8.9 C 8.23 g/m*3 8.9 C 0 km/h
3136 12-11-2020 02:10:00 8.9 C 8.23 g/m*3 8.9 C 0 km/h
3137 12-11-2020 02:15:00 8.9 C 8.23 g/m*3 8.9 C 0 km/h
3138 12-11-2020 02:20:00 8.9 C 8.23 g/m*3 8.9 C 0 km/h
3139 12-11-2020 02:25:00 8.9 C 8.23 g/m*3 8.9 C 0 km/h
3140 12-11-2020 02:30:00 8.9 C 8.23 g/m*3 8.9 C 0 km/h
3141 12-11-2020 02:35:00 8.9 C 8.23 g/m*3 8.9 C 0 km/h
3142 12-11-2020 02:40:00 8.9 C 8.23 g/m*3 8.9 C 0 km/h
3143 12-11-2020 02:45:00 8.9 C 8.23 g/m*3 8.9 C 0 km/h
3144 12-11-2020 02:50:00 8.9 C 8.23 g/m*3 8.9 C 0 km/h
3145 12-11-2020 02:55:00 8.9 C 8.23 g/m*3 8.9 C 0 km/h
3146 12-11-2020 03:00:00 8.9 C 8.23 g/m*3 8.9 C 0 km/h
3147 12-11-2020 03:05:00 8.9 C 8.23 g/m*3 8.9 C 0 km/h
3148 12-11-2020 03:10:00 8.9 C 8.23 g/m*3 8.9 C 0 km/h
3149 12-11-2020 03:15:00 8.9 C 8.23 g/m*3 8.9 C 0 km/h
3150 12-11-2020 03:20:00 8.9 C 8.23 g/m*3 8.9 C 0 km/h
Sensor: Nr:Datum:Temp:Abs-Feuchte:Windchill:Wind:
Aussen-T/F 3151 12-11-2020 03:25:00 8.9 C 8.23 g/m*3 8.9 C 0 km/h
3152 12-11-2020 03:30:00 8.9 C 8.23 g/m*3 8.9 C 0 km/h
3153 12-11-2020 03:35:00 8.9 C 8.23 g/m*3 8.9 C 0 km/h
3154 12-11-2020 03:40:00 8.9 C 8.23 g/m*3 8.9 C 0 km/h
3155 12-11-2020 03:45:00 8.9 C 8.23 g/m*3 8.9 C 0 km/h
3156 12-11-2020 03:50:00 8.9 C 8.23 g/m*3 8.9 C 0 km/h
3157 12-11-2020 03:55:00 8.9 C 8.23 g/m*3 8.9 C 0 km/h
3158 12-11-2020 04:00:00 8.9 C 8.23 g/m*3 8.9 C 0 km/h
3159 12-11-2020 04:05:00 8.9 C 8.32 g/m*3 8.9 C 0 km/h
3160 12-11-2020 04:10:00 8.9 C 8.23 g/m*3 8.9 C 0 km/h
3161 12-11-2020 04:15:00 8.9 C 8.32 g/m*3 8.9 C 0 km/h
3162 12-11-2020 04:20:00 8.9 C 8.32 g/m*3 8.9 C 0 km/h
3163 12-11-2020 04:25:00 8.9 C 8.32 g/m*3 8.9 C 0 km/h
3164 12-11-2020 04:30:00 8.9 C 8.32 g/m*3 8.9 C 0 km/h
3165 12-11-2020 04:35:00 8.9 C 8.32 g/m*3 8.9 C 0 km/h
3166 12-11-2020 04:40:00 9 C 8.38 g/m*3 9 C 0 km/h
3167 12-11-2020 04:45:00 8.9 C 8.32 g/m*3 8.9 C 0 km/h
3168 12-11-2020 04:50:00 9 C 8.38 g/m*3 9 C 0 km/h
3169 12-11-2020 04:55:00 9 C 8.38 g/m*3 9 C 0 km/h
3170 12-11-2020 05:00:00 8.9 C 8.32 g/m*3 8.9 C 0 km/h
3171 12-11-2020 05:05:00 8.9 C 8.32 g/m*3 8.9 C 0 km/h
3172 12-11-2020 05:10:00 8.9 C 8.32 g/m*3 8.9 C 0 km/h
3173 12-11-2020 05:15:00 8.9 C 8.32 g/m*3 8.9 C 0 km/h
3174 12-11-2020 05:20:00 8.9 C 8.32 g/m*3 8.9 C 0 km/h
3175 12-11-2020 05:25:00 8.9 C 8.32 g/m*3 8.9 C 0 km/h
Sensor: Nr:Datum:Temp:Abs-Feuchte:Windchill:Wind:
Aussen-T/F 3176 12-11-2020 05:30:00 8.8 C 8.18 g/m*3 8.8 C 0 km/h
3177 12-11-2020 05:35:00 8.8 C 8.27 g/m*3 8.8 C 0 km/h
3178 12-11-2020 05:40:00 8.9 C 8.32 g/m*3 8.9 C 0 km/h
3179 12-11-2020 05:45:00 8.9 C 8.32 g/m*3 8.9 C 0 km/h
3180 12-11-2020 05:50:00 8.9 C 8.32 g/m*3 8.9 C 0 km/h
3181 12-11-2020 05:55:00 8.9 C 8.32 g/m*3 8.9 C 0 km/h
3182 12-11-2020 06:00:00 9 C 8.38 g/m*3 9 C 4.8 km/h
3183 12-11-2020 06:05:00 9.1 C 8.43 g/m*3 9.1 C 4.8 km/h
3184 12-11-2020 06:10:00 9.1 C 8.43 g/m*3 9.1 C 4.8 km/h
3185 12-11-2020 06:15:00 9.2 C 8.39 g/m*3 9.2 C 3.2 km/h
3186 12-11-2020 06:20:00 9.2 C 8.39 g/m*3 9.2 C 1.6 km/h
3187 12-11-2020 06:25:00 9.2 C 8.39 g/m*3 9.2 C 1.6 km/h
3188 12-11-2020 06:30:00 9.2 C 8.39 g/m*3 9.2 C 1.6 km/h
3189 12-11-2020 06:35:00 9.2 C 8.39 g/m*3 9.2 C 3.2 km/h
3190 12-11-2020 06:40:00 9.2 C 8.39 g/m*3 9.2 C 4.8 km/h
3191 12-11-2020 06:45:00 9.3 C 8.36 g/m*3 9.3 C 3.2 km/h
3192 12-11-2020 06:50:00 9.3 C 8.36 g/m*3 9.3 C 3.2 km/h
3193 12-11-2020 06:55:00 9.3 C 8.36 g/m*3 9.3 C 3.2 km/h
3194 12-11-2020 07:00:00 9.3 C 8.36 g/m*3 8.56 C 6.4 km/h
3195 12-11-2020 07:05:00 9.3 C 8.36 g/m*3 8.16 C 8.1 km/h
3196 12-11-2020 07:10:00 9.4 C 8.41 g/m*3 8.68 C 6.4 km/h
3197 12-11-2020 07:15:00 9.5 C 8.47 g/m*3 9.5 C 3.2 km/h
3198 12-11-2020 07:20:00 9.6 C 8.43 g/m*3 9.6 C 1.6 km/h
3199 12-11-2020 07:25:00 9.6 C 8.43 g/m*3 9.6 C 3.2 km/h
3200 12-11-2020 07:30:00 9.7 C 8.48 g/m*3 9.7 C 1.6 km/h
Sensor: Nr:Datum:Temp:Abs-Feuchte:Windchill:Wind:
Aussen-T/F 3201 12-11-2020 07:35:00 9.7 C 8.48 g/m*3 9.02 C 6.4 km/h
3202 12-11-2020 07:40:00 9.7 C 8.48 g/m*3 9.7 C 4.8 km/h
3203 12-11-2020 07:45:00 9.8 C 8.54 g/m*3 9.8 C 4.8 km/h
3204 12-11-2020 07:50:00 9.8 C 8.44 g/m*3 9.8 C 3.2 km/h
3205 12-11-2020 07:55:00 9.8 C 8.44 g/m*3 9.8 C 4.8 km/h
3206 12-11-2020 08:00:00 9.8 C 8.44 g/m*3 9.8 C 4.8 km/h
3207 12-11-2020 08:05:00 9.9 C 8.5 g/m*3 9.9 C 1.6 km/h
3208 12-11-2020 08:10:00 9.9 C 8.5 g/m*3 9.9 C 1.6 km/h
3209 12-11-2020 08:15:00 9.9 C 8.5 g/m*3 9.9 C 1.6 km/h
3210 12-11-2020 08:20:00 9.9 C 8.5 g/m*3 9.25 C 6.4 km/h
3211 12-11-2020 08:25:00 9.9 C 8.5 g/m*3 9.9 C 3.2 km/h
3212 12-11-2020 08:30:00 10 C 8.55 g/m*3 10 C 1.6 km/h
3213 12-11-2020 08:35:00 10 C 8.55 g/m*3 10 C 1.6 km/h
3214 12-11-2020 08:40:00 10.1 C 8.61 g/m*3 10.1 C 3.2 km/h
3215 12-11-2020 08:45:00 10.1 C 8.61 g/m*3 10.1 C 1.6 km/h
3216 12-11-2020 08:50:00 10.1 C 8.61 g/m*3 10.1 C 0 km/h
3217 12-11-2020 08:55:00 10.1 C 8.61 g/m*3 10.1 C 1.6 km/h
3218 12-11-2020 09:00:00 10.2 C 8.66 g/m*3 10.2 C 3.2 km/h
3219 12-11-2020 09:05:00 10.2 C 8.66 g/m*3 10.2 C 1.6 km/h
3220 12-11-2020 09:10:00 10.3 C 8.71 g/m*3 10.3 C 3.2 km/h
3221 12-11-2020 09:15:00 10.3 C 8.71 g/m*3 10.3 C 1.6 km/h
3222 12-11-2020 09:20:00 10.4 C 8.67 g/m*3 10.4 C 4.8 km/h
3223 12-11-2020 09:25:00 10.5 C 8.73 g/m*3 10.5 C 4.8 km/h
3224 12-11-2020 09:30:00 10.6 C 8.78 g/m*3 10.6 C 4.8 km/h
3225 12-11-2020 09:35:00 10.6 C 8.78 g/m*3 10.6 C 3.2 km/h
Sensor: Nr:Datum:Temp:Abs-Feuchte:Windchill:Wind:
Aussen-T/F 3226 12-11-2020 09:40:00 10.6 C 8.78 g/m*3 10.6 C 3.2 km/h
3227 12-11-2020 09:45:00 10.7 C 8.84 g/m*3 10.7 C 1.6 km/h
3228 12-11-2020 09:50:00 10.7 C 8.84 g/m*3 10.7 C 4.8 km/h
3229 12-11-2020 09:55:00 10.8 C 8.9 g/m*3 10.8 C 4.8 km/h
3230 12-11-2020 10:00:00 10.8 C 8.8 g/m*3 10.8 C 1.6 km/h
3231 12-11-2020 10:05:00 10.8 C 8.8 g/m*3 10.8 C 3.2 km